     2              OBSERVATION DATA    GPS                 RINEX VERSION / TYPE
srx-v1.3-(5/19/93) SEISMO 16-OCT-1996                       PGM / RUN BY / DATE
                                                            COMMENT
sig: 9 8 7 6 5 4 1 0                                        COMMENT
sig: 9 8 7 6 5 4 1 0                                        COMMENT
sig: 9 8 7 6 5 4 1 0                                        COMMENT
Original Marker Name: MPNS                                  COMMENT
Campaign Name: jpl 1993-1997                                COMMENT
4-Character Station Name: MPNS                              COMMENT
6-Character Antenna Code: DMRCHT                            COMMENT
Vertical Measurement Point: BPA                             COMMENT
Vertical Offset to Rinex Ref. Point: 0.0000                 COMMENT
Radial Measurement Point: RRP                               COMMENT
Radial Offset to Rinex Ref. Point: 0.0000                   COMMENT
Antenna Height from Field Measurement: 0.0814 m             COMMENT
Additional Antenna Identification Info.:                    COMMENT
Turborogue and Ashtech Choke Ring                           COMMENT
Original XYZ: -2448062.8229 -4681769.7475 3562659.4694      COMMENT
New XYZ position is based on association with SCEC monument COMMENT
E1E9T6N5+0011. Position of that monument is believed to be  COMMENT
valid to within 1 m horizontally; vertical accuracy         COMMENT
should be no worse than 3-times this value.                 COMMENT
                                                            COMMENT
Revised Rinex header created by UCSD GPS archive for        COMMENT
GSAC on 15-Apr-1999 (1999:105) 00:18:46 GMT                 COMMENT
For assistance contact dagnew@ucsd.edu or hjohnson@ucsd.edu COMMENT
                                                            COMMENT
MOUNT PINOS 1941                                            MARKER NAME
MPNS                                                        MARKER NUMBER
GAL JET PROPULSION LABORATORY                               OBSERVER / AGENCY
T263 TURBOROGUE SNR-8000 95.03.08                           REC # / TYPE / VERS
329 DORNE-MARGOL. TYPE T                                    ANT # / TYPE
 -2554215.0000 -4580471.0000  3622358.0000                  APPROX POSITION XYZ
        0.0814        0.0000        0.0000                  ANTENNA: DELTA H/E/N
     1     1     0                                          WAVELENGTH FACT L1/2
     5    L1    L2    P1    P2    C1                        # / TYPES OF OBSERV
    30                                                      INTERVAL
  1996    10    10     0     0    0.000000                  TIME OF FIRST OBS
  1996    10    10    23    59   30.000000                  TIME OF LAST OBS
    27                                                      # OF SATELLITES
          01   842   842     0   842   842                  PRN / # OF OBS
          02   947   947     0   947   947                  PRN / # OF OBS
          03  1067  1067     0  1067  1067                  PRN / # OF OBS
          04   894   894     0   894   894                  PRN / # OF OBS
          05   794   794     0   794   794                  PRN / # OF OBS
          06   809   809     0   809   809                  PRN / # OF OBS
          07   844   844     0   844   844                  PRN / # OF OBS
          09   771   771     0   771   771                  PRN / # OF OBS
          10   760   760     0   760   760                  PRN / # OF OBS
          14   617   617     0   617   617                  PRN / # OF OBS
          15   936   936     0   936   936                  PRN / # OF OBS
          16   733   733     0   733   733                  PRN / # OF OBS
          17   892   892     0   892   892                  PRN / # OF OBS
          18   841   841     0   841   841                  PRN / # OF OBS
          19   918   918     0   918   918                  PRN / # OF OBS
          20     7     7     7     7     0                  PRN / # OF OBS
          21   935   935     0   935   935                  PRN / # OF OBS
          22   684   684     0   684   684                  PRN / # OF OBS
          23   900   900     0   900   900                  PRN / # OF OBS
          24   802   802     0   802   802                  PRN / # OF OBS
          25   738   738     0   738   738                  PRN / # OF OBS
          26  1017  1017     0  1017  1017                  PRN / # OF OBS
          27   847   847     0   847   847                  PRN / # OF OBS
          28   728   728   728   728     0                  PRN / # OF OBS
          29   882   882     0   882   882                  PRN / # OF OBS
          30   918   918     0   918   918                  PRN / # OF OBS
                                                            END OF HEADER
 96 10 10 00 00 00.0000000  0  8 22 18 29 14 04 25 15 19
  -2049871.46849  -1597300.99446         0.00041  21422342.13146  21422339.86249
  -2790663.96348  -2174541.79345         0.00041  23291320.31445  23291317.18648
   -727322.82949   -566743.97347         0.00041  20877366.03347  20877364.59049
   -845238.46449   -658626.73947         0.00041  20189667.52947  20189664.98549
  -1656393.74248  -1290696.23544         0.00041  24979403.19544  24979399.37948
   3276690.39348   2553264.90946         0.00041  23195033.90146  23195032.88548
   3771300.42648   2938673.93145         0.00041  23415963.15545  23415958.13148
   -386772.94748   -301381.02644         0.00041  25245193.46044  25245190.21148
 96 10 10 00 00 30.0000000  0  8 22 18 29 14 04 25 15 19
  -2094183.30949  -1631829.69446         0.00041  21413909.40146  21413907.58349
  -2865516.24548  -2232868.21045         0.00041  23277076.41045  23277073.31848
   -744246.90749   -579931.57547         0.00041  20874145.81147  20874144.29749
   -857800.98049   -668415.70947         0.00041  20187276.96047  20187274.42949
  -1708933.30348  -1331636.15544         0.00041  24969403.99744  24969401.53748
   3365488.87548   2622458.51846         0.00041  23211930.80346  23211930.74348
   3873073.68048   3017977.71645         0.00041  23435330.74245  23435324.81748
   -482815.38848   -376219.26044         0.00041  25226920.41144  25226913.29548
 96 10 10 00 01 00.0000000  0  8 22 18 29 14 04 25 15 19
  -2137841.03749  -1665848.69046         0.00041  21405601.85546  21405599.46549
  -2940210.18848  -2291071.25245         0.00041  23262863.19345  23262860.28548
   -760894.66349   -592903.87247         0.00041  20870977.77747  20870975.94649
   -869772.32049   -677744.02547         0.00041  20184998.86047  20184996.22349
  -1760942.23548  -1372162.58144         0.00041  24959507.10444  24959504.56948
   3454524.68148   2691837.05546         0.00041  23228874.59946  23228873.74948
   3975040.86348   3097432.61245         0.00041  23454733.66145  23454728.52148
   -578643.53348   -450890.46044         0.00041  25208684.34344  25208678.11148
 96 10 10 00 01 30.0000000  0  8 22 18 29 14 04 25 15 19
  -2180571.12549  -1699144.84646         0.00041  21397470.89746  21397468.04149
  -3014476.52948  -2348941.09245         0.00041  23248731.41545  23248728.68448
   -777017.38249   -605467.02647         0.00041  20867909.53147  20867908.02949
   -880904.93649   -686418.79947         0.00041  20182880.73447  20182877.89049
  -1812149.46148  -1412064.28944         0.00041  24949763.54544  24949759.88648
   3544055.83348   2761601.57146         0.00041  23245912.54846  23245910.96448
   4077451.94648   3177233.41445         0.00041  23474222.66145  23474217.53348
   -674020.83748   -525210.34244         0.00041  25190533.78144  25190527.83848
 96 10 10 00 02 00.0000000  0  8 22 18 29 14 04 25 15 19
  -2222687.56649  -1731962.82746         0.00041  21389456.43046  21389453.97249
  -3088604.67548  -2406703.24845         0.00041  23234624.74045  23234622.81448
   -792922.34849   -617860.49547         0.00041  20864883.04347  20864881.61649
   -891505.05149   -694678.64047         0.00041  20180863.41647  20180860.77349
  -1862862.12148  -1451580.65344         0.00041  24940112.62044  24940109.27348
   3633781.00948   2831517.27446         0.00041  23262985.95546  23262984.67048
   4179993.58348   3257135.94845         0.00041  23493733.73745  23493730.20148
   -769276.65048   -599435.56344         0.00041  25172407.92644  25172400.62548
 96 10 10 00 02 30.0000000  0  8 22 18 29 14 04 25 15 19
  -2264339.69849  -1764419.00946         0.00041  21381530.18346  21381527.81749
  -3162736.33548  -2464468.14745         0.00041  23220517.58745  23220515.51848
   -808745.86349   -630190.49147         0.00041  20861872.00447  20861870.15549
   -901676.53349   -702604.47747         0.00041  20178927.62947  20178925.26849
  -1913207.04948  -1490810.46144         0.00041  24930529.53444  24930529.07548
   3723557.22048   2901472.74645         0.00041  23280070.21945  23280068.37248
   4282535.12348   3337038.40045         0.00041  23513248.07445  23513243.43148
   -864520.39348   -673651.39044         0.00041  25154283.56544  25154276.91548
 96 10 10 00 03 00.0000000  0  8 22 18 29 14 04 25 15 19
  -2305192.32249  -1796252.20146         0.00041  21373756.01546  21373753.47449
  -3236544.43148  -2521980.90245         0.00041  23206472.86145  23206469.83448
   -824148.55349   -642192.57147         0.00041  20858940.97747  20858939.46249
   -911055.36149   -709912.65847         0.00041  20177143.04947  20177140.58249
  -1962828.70248  -1529476.71244         0.00041  24921090.38244  24921086.46348
   3813713.86948   2971724.65646         0.00041  23297226.56846  23297225.00848
   4385412.95748   3417202.91145         0.00041  23532823.34345  23532820.67748
   -959396.79048   -747580.99344         0.00041  25136225.47944  25136223.60048
 96 10 10 00 03 30.0000000  0  8 22 18 29 14 04 25 15 19
  -2345340.72049  -1827536.64246         0.00041  21366116.07146  21366113.63949
  -3310109.64148  -2579304.41445         0.00041  23192473.66745  23192470.59048
   -839191.77849   -653914.55647         0.00041  20856078.20747  20856076.68149
   -919699.74649   -716648.55047         0.00041  20175497.80647  20175495.41849
  -2011806.74948  -1567641.39444         0.00041  24911769.79244  24911766.68848
   3904157.47748   3042200.17546         0.00041  23314437.80946  23314436.26848
   4488542.39848   3497563.46345         0.00041  23552449.21945  23552445.36548
  -1053974.40848   -821277.76144         0.00041  25118232.33944  25118226.00448
 96 10 10 00 04 00.0000000  0  8 22 18 29 14 04 25 15 19
  -2384758.03249  -1858251.41046         0.00041  21358615.30646  21358612.73449
  -3383403.92948  -2636416.80945         0.00041  23178525.81945  23178523.58948
   -853816.96449   -665310.80347         0.00041  20853294.99747  20853293.26649
   -927555.25949   -722769.73347         0.00041  20174003.13547  20174000.56049
  -2060088.41348  -1605263.44544         0.00041  24902581.86744  24902579.00248
   3994919.24548   3112923.60446         0.00041  23331709.13346  23331708.06248
   4591964.48148   3578152.05945         0.00041  23572130.83145  23572125.81948
  -1148184.10548   -894687.85544         0.00041  25100301.76144  25100298.54948
 96 10 10 00 04 30.0000000  0  8 22 18 29 14 04 25 15 19
  -2423345.86349  -1888319.83746         0.00041  21351272.18746  21351269.81849
  -3456360.55048  -2693266.08446         0.00041  23164643.40946  23164640.14048
   -867925.28949   -676304.29647         0.00041  20850610.32747  20850608.99849
   -934551.34049   -728221.22947         0.00041  20172671.64947  20172669.38149
  -2107579.22648  -1642269.26944         0.00041  24893544.56544  24893541.60148
   4086069.27148   3183949.58145         0.00041  23349053.50145  23349053.02348
   4695765.42948   3659035.86045         0.00041  23591883.42745  23591879.11448
  -1241919.56848   -967728.42544         0.00041  25082464.83744  25082460.62348
 96 10 10 00 05 00.0000000  0  8 22 18 29 14 04 25 15 19
  -2460870.15049  -1917559.52046         0.00041  21344131.39446  21344129.08549
  -3528751.52948  -2749674.59946         0.00041  23150867.58446  23150863.79548
   -881295.87549   -686722.92647         0.00041  20848066.07547  20848064.49849
   -940497.03049   -732854.23947         0.00041  20171540.49047  20171537.98049
  -2154070.56948  -1678496.29444         0.00041  24884697.92844  24884694.28748
   4177833.06248   3255453.81645         0.00041  23366516.81445  23366514.71448
   4800156.59248   3740379.58645         0.00041  23611747.47045  23611744.11148
  -1334989.30148  -1040250.18744         0.00041  25064756.26344  25064748.98448
 96 10 10 00 05 30.0000000  0  8 22 18 29 14 04 25 15 19
  -2497532.49249  -1946127.55546         0.00041  21337154.93046  21337152.37549
  -3600787.53348  -2805806.51846         0.00041  23137158.93746  23137155.78748
   -894142.59249   -696733.35447         0.00041  20845621.27447  20845619.72049
   -945605.93649   -736835.20447         0.00041  20170568.43447  20170565.75249
  -2199771.40548  -1714107.32244         0.00041  24876001.22344  24875998.02648
   4270005.85848   3327276.74445         0.00041  23384056.75045  23384054.44948
   4904926.62548   3822018.54145         0.00041  23631684.06745  23631680.86948
  -1427612.31948  -1112423.93644         0.00041  25047130.14844  25047123.25248
 96 10 10 00 06 00.0000000  0  8 22 18 29 14 04 25 15 19
  -2533462.40849  -1974124.87246         0.00041  21330317.81046  21330315.41149
  -3672600.67948  -2861764.77446         0.00041  23123493.36346  23123490.73748
   -906616.27749   -706453.10447         0.00041  20843247.53047  20843246.18349
   -950010.31549   -740267.18247         0.00041  20169730.11347  20169727.47049
  -2244807.92548  -1749200.68344         0.00041  24867430.42044  24867428.15548
   4362448.80348   3399310.19745         0.00041  23401647.54745  23401645.95948
   5009942.48948   3903849.04745         0.00041  23651668.49045  23651664.55448
  -1519931.04648  -1184360.52844         0.00041  25029561.05444  25029555.60148
 96 10 10 00 06 30.0000000  0  8 22 18 29 14 04 25 15 19
  -2568346.99049  -2001307.63146         0.00041  21323679.35746  21323676.57549
  -3743863.48148  -2917294.19146         0.00041  23109933.09846  23109930.33248
   -918422.44949   -715652.71447         0.00041  20841001.17947  20840999.23149
   -953400.08349   -742908.55347         0.00041  20169084.96047  20169082.61949
  -2288877.77248  -1783540.81144         0.00041  24859044.51544  24859042.30748
   4455464.48548   3471789.91945         0.00041  23419347.98145  23419346.29448
   5115509.63948   3986109.12845         0.00041  23671755.81045  23671753.18848
  -1611646.41648  -1255826.95044         0.00041  25012108.66044  25012102.70248
 96 10 10 00 07 00.0000000  0  8 22 18 29 14 04 25 15 19
  -2602640.71649  -2028029.98146         0.00041  21317153.75446  21317150.95349
  -3815014.29048  -2972736.33546         0.00041  23096393.31546  23096390.36748
   -930025.41349   -724693.98247         0.00041  20838793.12647  20838791.32549
   -956209.83449   -745097.96947         0.00041  20168550.56247  20168547.92349
  -2332430.61648  -1817478.08645         0.00041  24850757.33445  24850754.38848
   4548590.55748   3544355.67445         0.00041  23437069.42645  23437067.69248
   5221165.74348   4068438.51944         0.00041  23691863.27144  23691859.47648
  -1703214.14548  -1327178.33644         0.00041  24994684.64844  24994678.35648
 96 10 10 00 07 30.0000000  0  8 22 18 29 14 04 25 15 19
  -2636620.03949  -2054507.35846         0.00041  21310687.18046  21310685.04849
  -3886320.01148  -3028299.20846         0.00041  23082823.80346  23082820.81848
   -941704.74849   -733794.76147         0.00041  20836570.65547  20836568.79349
   -958701.37149   -747039.42847         0.00041  20168076.22647  20168073.89249
  -2375733.19948  -1851220.34945         0.00041  24842517.05145  24842513.89348
   4641536.61248   3616781.13645         0.00041  23454755.11145  23454755.48348
   5326635.24348   4150622.51345         0.00041  23711933.65945  23711929.46748
  -1794890.61548  -1398614.46344         0.00041  24977240.21044  24977233.69948
 96 10 10 00 08 00.0000000  0  8 22 18 29 14 04 25 15 19
  -2669945.73649  -2080475.42046         0.00041  21304345.54346  21304343.31049
  -3957441.75248  -3083718.71046         0.00041  23069289.74446  23069286.53748
   -953131.96549   -742699.07247         0.00041  20834396.01847  20834394.15949
   -960548.24249   -748478.55247         0.00041  20167724.69847  20167722.10649
  -2418464.86948  -1884517.75245         0.00041  24834385.68345  24834382.22648
   4734617.63848   3689311.78745         0.00041  23472469.66745  23472468.19048
   5432240.45448   4232912.23945         0.00041  23732030.41545  23732025.31948
  -1886337.94548  -1469872.05944         0.00041  24959837.61644  24959831.48848
 96 10 10 00 08 30.0000000  0  8 22 18 29 14 04 25 15 19
  -2703170.76949  -2106365.02846         0.00041  21298023.02146  21298020.69449
  -4028948.84348  -3139438.49646         0.00041  23055682.15946  23055678.90948
   -964871.12849   -751846.46247         0.00041  20832162.10947  20832160.55649
   -962330.83349   -749867.58947         0.00041  20167385.56447  20167382.99749
  -2461215.39048  -1917829.83945         0.00041  24826250.55245  24826247.01348
   4827264.12848   3761503.83445         0.00041  23490100.18145  23490097.85948
   5537402.32148   4314856.49745         0.00041  23752042.46145  23752037.16348
  -1978132.99648  -1541400.56844         0.00041  24942367.38844  24942362.58848
 96 10 10 00 09 00.0000000  0  8 22 18 29 14 04 25 15 19
  -2735826.55249  -2131811.05846         0.00041  21291809.02246  21291806.33549
  -4100392.04748  -3195108.49946         0.00041  23042087.08446  23042083.99448
   -976469.70749   -760884.31447         0.00041  20829954.94647  20829953.26249
   -963598.55549   -750855.42847         0.00041  20167144.51347  20167141.73049
  -2503527.13648  -1950800.02344         0.00041  24818197.66344  24818194.88148
   4919941.42148   3833719.89545         0.00041  23507734.42945  23507733.61948
   5642576.41648   4396810.29244         0.00041  23772055.76044  23772049.96548
  -2069817.48748  -1612842.96044         0.00041  24924922.60044  24924915.71648
 96 10 10 00 09 30.0000000  0  8 22 18 29 14 04 25 15 19
  -2768267.85049  -2157089.96246         0.00041  21285635.71946  21285633.11349
  -4172129.78848  -3251008.00846         0.00041  23028436.81946  23028433.89448
   -988275.21749   -770083.41447         0.00041  20827708.43147  20827706.92149
   -964711.48649   -751722.65447         0.00041  20166932.53947  20166930.23149
  -2545751.23548  -1983701.89944         0.00041  24810162.42644  24810160.77448
   5012317.12548   3905700.94745         0.00041  23525314.09145  23525311.98448
   5747413.73048   4478501.64844         0.00041  23792004.50544  23791998.94648
  -2161744.06548  -1684473.98444         0.00041  24907428.50244  24907422.00448
 96 10 10 00 10 00.0000000  0  8 22 18 29 14 04 25 15 19
  -2800218.22349  -2181986.33646         0.00041  21279555.64846  21279553.15249
  -4243892.70748  -3306927.12846         0.00041  23014780.98846  23014777.92848
  -1000004.35649   -779222.99847         0.00041  20825476.38047  20825475.14649
   -965382.85449   -752245.79247         0.00041  20166804.87247  20166802.37849
  -2587606.87648  -2016316.66144         0.00041  24802197.64244  24802196.38748
   5104693.70348   3977682.68545         0.00041  23542892.92245  23542890.18048
   5852194.74348   4560149.12844         0.00041  23811944.17944  23811939.30748
  -2253640.18748  -1756081.23644         0.00041  24889940.55444  24889934.65748
 96 10 10 00 10 30.0000000  0  8 22 18 29 14 04 25 15 19
  -2832024.55949  -2206770.47546         0.00041  21273502.72246  21273500.57049
  -4316023.66548  -3363133.04346         0.00041  23001054.35446  23001051.13448
  -1011978.08949   -788553.17547         0.00041  20823198.04847  20823196.57249
   -965940.95549   -752680.67547         0.00041  20166698.49947  20166696.11249
  -2629410.99448  -2048891.30844         0.00041  24794241.48744  24794240.34848
   5196772.54748   4049432.42045         0.00041  23560414.69045  23560412.27148
   5956592.21748   4641497.76044         0.00041  23831811.12944  23831805.03948
  -2345847.94148  -1827931.33444         0.00041  24872393.76744  24872388.50648
 96 10 10 00 11 00.0000000  0  8 22 18 29 14 04 25 15 19
  -2863742.59649  -2231485.80146         0.00041  21267467.45346  21267464.56449
  -4388574.56348  -3419666.18546         0.00041  22987247.54946  22987244.36948
  -1024228.56449   -798098.99747         0.00041  20820866.95047  20820865.11249
   -966409.77449   -753045.99147         0.00041  20166609.55647  20166606.72249
  -2671183.27048  -2081441.10645         0.00041  24786295.82345  24786290.77548
   5288524.30048   4120927.27245         0.00041  23577873.37445  23577872.11748
   6060567.82148   4722517.64044         0.00041  23851596.46944  23851591.02948
  -2438395.00148  -1900045.86544         0.00041  24854781.44044  24854777.76648
 96 10 10 00 11 30.0000000  0  8 22 18 29 14 04 25 15 19
  -2895616.36449  -2256322.47146         0.00041  21261401.97746  21261399.36349
  -4461782.55048  -3476711.33646         0.00041  22973316.74746  22973312.98448
  -1036985.64349   -808039.56847         0.00041  20818439.13247  20818437.72849
   -967019.88249   -753521.40247         0.00041  20166493.25147  20166490.63749
  -2713164.53748  -2114153.74844         0.00041  24778307.66644  24778302.61648
   5379706.59348   4191978.39345         0.00041  23595225.65045  23595223.68348
   6163875.96448   4803017.44744         0.00041  23871253.06144  23871251.79648
  -2531517.84048  -1972609.02344         0.00041  24837062.88744  24837056.66748
 96 10 10 00 12 00.0000000  0  8 22 18 29 14 04 25 15 19
  -2928133.39249  -2281660.39146         0.00041  21255214.03046  21255211.48549
  -4536142.13248  -3534653.83946         0.00041  22959165.70146  22959162.98648
  -1050750.10649   -818765.11347         0.00041  20815819.84247  20815818.12549
   -968271.36449   -754496.58647         0.00041  20166255.13247  20166252.74949
  -2755851.10148  -2147415.99444         0.00041  24770183.37744  24770179.85648
   5469809.15948   4262188.16045         0.00041  23612372.69945  23612369.49948
   6266012.87348   4882604.59944         0.00041  23890690.07544  23890687.67448
  -2625712.47548  -2046007.34844         0.00041  24819135.57844  24819131.27848
 96 10 10 00 12 30.0000000  0  8 22 18 29 14 04 25 15 19
  -2960761.81849  -2307085.11946         0.00041  21249004.97346  21249002.51949
  -4611120.85548  -3593078.78446         0.00041  22944898.30546  22944895.69548
  -1065001.83549   -829870.35347         0.00041  20813107.95047  20813106.14749
   -969661.16449   -755579.55148         0.00041  20165990.75348  20165988.16649
  -2798727.54048  -2180826.19744         0.00041  24762024.04744  24762020.96848
   5559332.84148   4331946.85745         0.00041  23629408.29945  23629405.28548
   6367490.29748   4961677.86844         0.00041  23910002.45744  23909997.80448
  -2720442.85948  -2119823.13544         0.00041  24801111.12944  24801105.01848
 96 10 10 00 13 00.0000000  0  8 22 18 29 14 04 25 15 19
  -2993306.41749  -2332444.53146         0.00041  21242811.73346  21242809.47749
  -4686518.16148  -3651829.88846         0.00041  22930550.47046  22930548.86448
  -1079574.10649   -841225.36647         0.00041  20810334.90247  20810333.40949
   -971005.38149   -756626.99547         0.00041  20165734.82447  20165732.36849
  -2841614.96548  -2214244.96344         0.00041  24753862.81044  24753858.56348
   5648430.07748   4401373.24845         0.00041  23646362.68345  23646359.99748
   6468482.82548   5040373.31144         0.00041  23929219.84844  23929216.47748
  -2815504.00948  -2193896.70844         0.00041  24783020.99844  24783016.02348
 96 10 10 00 13 30.0000000  0  8 22 18 29 14 04 25 15 19
  -3025486.56249  -2357519.95046         0.00041  21236688.05846  21236685.80449
  -4762048.35348  -3710684.53546         0.00041  22916178.53046  22916175.81948
  -1094203.11149   -852624.58647         0.00041  20807550.97247  20807549.14949
   -972047.06549   -757438.70347         0.00041  20165536.85347  20165534.14349
  -2884250.35548  -2247467.32344         0.00041  24745748.02244  24745744.57848
   5737360.20848   4470669.42745         0.00041  23663285.74745  23663282.50548
   6569253.41448   5118895.76644         0.00041  23948394.56744  23948392.19448
  -2910630.27048  -2268021.02344         0.00041  24764919.40344  24764913.68048
 96 10 10 00 14 00.0000000  0  8 22 18 29 14 04 25 15 19
  -3057505.80149  -2382469.98346         0.00041  21230595.17446  21230592.76049
  -4837917.43748  -3769803.26646         0.00041  22901740.67846  22901737.57948
  -1109085.04649   -864220.89747         0.00041  20804719.14447  20804717.38749
   -972987.10049   -758171.20647         0.00041  20165357.66447  20165355.31549
  -2926831.96048  -2280647.81844         0.00041  24737643.96544  24737642.19148
   5825927.10548   4539682.57945         0.00041  23680139.57345  23680136.29448
   6669598.80948   5197086.91844         0.00041  23967492.31044  23967486.19348
  -3006033.31748  -2342360.95345         0.00041  24746763.12745  24746759.96748
 96 10 10 00 14 30.0000000  0  8 22 18 29 14 04 25 15 19
  -3089410.52949  -2407330.78046         0.00041  21224523.87246  21224521.44449
  -4914162.14248  -3829214.69846         0.00041  22887232.15946  22887228.82848
  -1124263.04149   -876047.89847         0.00041  20801830.89147  20801829.13249
   -973850.64749   -758844.09948         0.00041  20165193.47848  20165190.95349
  -2969396.24848  -2313814.76844         0.00041  24729546.09744  24729542.92948
   5914079.79948   4608372.95045         0.00041  23696914.12645  23696911.10248
   6769476.79648   5274913.85644         0.00041  23986500.10344  23986490.91948
  -3101756.94548  -2416950.75745         0.00041  24728547.34245  24728543.99748
 96 10 10 00 15 00.0000000  0  8 22 18 29 14 04 25 15 19
  -3121141.11149  -2432055.89946         0.00041  21218485.71546  21218483.41349
  -4990721.08048  -3888870.99046         0.00041  22872663.26746  22872660.70548
  -1139680.91149   -888061.81847         0.00041  20798896.65847  20798895.31949
   -974563.61749   -759399.65748         0.00041  20165058.06648  20165055.31749
  -3011866.77848  -2346908.68644         0.00041  24721464.26444  24721460.98048
   6001869.45348   4676780.45145         0.00041  23713619.26345  23713616.96248
   6868949.01348   5352424.61844         0.00041  24005425.73644  24005420.74648
  -3197753.69548  -2491753.34845         0.00041  24710282.24245  24710276.19548
 96 10 10 00 15 30.0000000  0  8 22 18 29 14 04 25 15 19
  -3152714.61849  -2456658.62046         0.00041  21212477.14146  21212474.98049
  -5067627.78448  -3948798.25246         0.00041  22858028.34246  22858026.07548
  -1155341.83349   -900265.12547         0.00041  20795916.61647  20795915.11249
   -975148.17249   -759855.15147         0.00041  20164946.45947  20164943.93649
  -3054269.07048  -2379949.42645         0.00041  24713395.09245  24713392.39848
   6089269.26548   4744884.18745         0.00041  23730250.73545  23730248.50448
   6967996.53048   5429604.45544         0.00041  24024276.77444  24024269.90848
  -3294066.29448  -2566802.07345         0.00041  24691954.60045  24691948.55748
 96 10 10 00 16 00.0000000  0  8 22 18 29 14 04 25 15 19
  -3184588.74149  -2481495.57646         0.00041  21206411.99346  21206409.67049
  -5145338.75048  -4009352.22446         0.00041  22843240.30646  22843237.47048
  -1171696.30949   -913008.87147         0.00041  20792804.67347  20792802.93249
   -976054.39649   -760561.30047         0.00041  20164773.88147  20164771.48149
  -3097052.19548  -2413286.91944         0.00041  24705253.58044  24705251.57448
   6175815.65648   4812322.90845         0.00041  23746719.26345  23746717.90548
   7066167.08048   5506100.92244         0.00041  24042955.20844  24042950.98148
  -3391141.49848  -2642445.02144         0.00041  24673481.62044  24673474.60248
 96 10 10 00 16 30.0000000  0  8 22 18 29 14 04 25 15 19
  -3216489.71849  -2506353.45846         0.00041  21200341.26346  21200338.95849
  -5223587.66848  -4070325.37446         0.00041  22828348.70146  22828346.23148
  -1188474.82849   -926083.04147         0.00041  20789611.79147  20789610.23549
   -977011.63249   -761307.20648         0.00041  20164592.04048  20164589.54149
  -3139946.91248  -2446711.38145         0.00041  24697091.34145  24697088.99148
   6261771.16048   4879301.19845         0.00041  23763076.78645  23763075.77448
   7163729.32048   5582123.39445         0.00041  24061521.11245  24061516.35248
  -3488691.34648  -2718457.83745         0.00041  24654918.43145  24654911.58048
 96 10 10 00 17 00.0000000  0  8 22 18 29 14 04 25 15 19
  -3248531.48549  -2531321.05246         0.00041  21194243.98846  21194241.59549
  -5302501.62648  -4131816.73846         0.00041  22813332.37446  22813329.77948
  -1205770.62749   -939560.28147         0.00041  20786320.32647  20786318.77149
   -978144.45349   -762189.92947         0.00041  20164376.25847  20164373.84349
  -3183074.14648  -2480317.00744         0.00041  24688885.24844  24688882.10648
   6347037.22148   4945742.27245         0.00041  23779303.63545  23779302.08948
   7260566.05248   5657580.54645         0.00041  24079950.46045  24079943.59848
  -3586820.05348  -2794921.70544         0.00041  24636244.05144  24636238.79348
 96 10 10 00 17 30.0000000  0  8 22 18 29 14 04 25 15 19
  -3280379.82349  -2556137.91346         0.00041  21188183.47546  21188181.28249
  -5381759.43748  -4193576.03946         0.00041  22798251.16946  22798248.56248
  -1223237.95749   -953171.17647         0.00041  20782996.62247  20782995.21849
   -979126.50049   -762955.17047         0.00041  20164189.57847  20164187.14049
  -3226112.10848  -2513853.06944         0.00041  24680695.02744  24680692.25148
   6431974.99348   5011927.51845         0.00041  23795466.19245  23795465.64048
   7357004.93248   5732727.65745         0.00041  24098302.05145  24098295.33248
  -3685188.58548  -2871572.44844         0.00041  24617524.65244  24617519.68148
 96 10 10 00 18 00.0000000  0  8 22 18 29 14 04 25 15 19
  -3311562.77549  -2580436.30546         0.00041  21182249.42346  21182247.26149
  -5460886.21348  -4255233.23546         0.00041  22783194.64446  22783191.60748
  -1240417.86749   -966558.11247         0.00041  20779727.06947  20779725.69749
   -979480.23649   -763230.81148         0.00041  20164122.30648  20164119.77349
  -3268584.35248  -2546948.32844         0.00041  24672612.59144  24672609.36548
   6517072.36348   5078237.13645         0.00041  23811660.44145  23811659.38748
   7453511.23548   5807927.31645         0.00041  24116667.08745  24116660.08848
  -3783307.28948  -2948028.56644         0.00041  24598851.60444  24598848.47348
 96 10 10 00 18 30.0000000  0  8 22 18 29 14 04 25 15 19
  -3341945.94849  -2604111.48546         0.00041  21176467.78746  21176465.29949
  -5539751.88948  -4316686.97446         0.00041  22768186.61646  22768183.40748
  -1257194.80049   -979631.04347         0.00041  20776534.55147  20776533.23349
   -979089.42549   -762926.28647         0.00041  20164196.63247  20164194.03349
  -3310369.34248  -2579508.06844         0.00041  24664660.92844  24664657.75548
   6602467.92248   5144779.10545         0.00041  23827909.23545  23827909.33948
   7550202.88848   5883271.37845         0.00041  24135066.88145  24135061.02448
  -3881050.72848  -3024192.21144         0.00041  24580251.87844  24580249.58248
 96 10 10 00 19 00.0000000  0  8 22 18 29 14 04 25 15 19
  -3371280.58549  -2626969.61646         0.00041  21170885.56946  21170883.08149
  -5618097.29848  -4377735.32046         0.00041  22753276.72146  22753273.84548
  -1273326.97749   -992201.56847         0.00041  20773464.93047  20773463.39149
   -977719.84149   -761859.08047         0.00041  20164457.22047  20164454.50549
  -3351226.54848  -2611344.82644         0.00041  24656885.73444  24656882.35348
   6688394.08548   5211734.54345         0.00041  23844260.24245  23844259.94148
   7647315.93548   5958943.83445         0.00041  24153546.99545  24153540.99248
  -3978179.46048  -3099876.90044         0.00041  24561769.80444  24561766.20848
 96 10 10 00 19 30.0000000  0  8 22 18 29 14 04 25 15 19
  -3399483.87049  -2648946.18146         0.00041  21165518.54046  21165516.37549
  -5695819.11648  -4438297.74446         0.00041  22738486.33546  22738483.54548
  -1288746.85549  -1004217.05247         0.00041  20770530.50247  20770528.75949
   -975286.06749   -759962.63647         0.00041  20164920.28447  20164917.86749
  -3391066.87248  -2642389.23344         0.00041  24649306.36644  24649301.86448
   6774913.74248   5279152.42245         0.00041  23860724.21445  23860723.73248
   7744925.34648   6035003.07245         0.00041  24172121.34045  24172114.81848
  -4074626.41648  -3175030.30645         0.00041  24543417.07045  24543412.69648
 96 10 10 00 20 00.0000000  0  8 22 18 29 14 04 25 15 19
  -3426823.09049  -2670249.45346         0.00041  21160315.94546  21160313.94649
  -5773171.98548  -4498572.67646         0.00041  22723766.52646  22723764.36748
  -1303727.93549  -1015890.61547         0.00041  20767679.57447  20767678.32049
   -972047.80649   -757439.31848         0.00041  20165536.64948  20165534.23749
  -3430144.29848  -2672839.17245         0.00041  24641869.10845  24641866.14448
   6861728.60548   5346800.35845         0.00041  23877244.53545  23877243.87348
   7842761.22848   6111238.78145         0.00041  24190737.42645  24190732.28348
  -4170658.44548  -3249860.38945         0.00041  24525141.61745  24525138.38748
 96 10 10 00 20 30.0000000  0  8 22 18 29 14 04 25 15 19
  -3453584.10849  -2691102.17346         0.00041  21155223.72746  21155221.44649
  -5850439.61948  -4558781.19746         0.00041  22709063.81146  22709061.45848
  -1318538.01449  -1027430.93247         0.00041  20764861.60647  20764859.94449
   -968288.42049   -754509.92947         0.00041  20166252.06747  20166249.26749
  -3468733.83948  -2702908.95044         0.00041  24634526.07144  24634523.14148
   6948540.84048   5414446.21045         0.00041  23893765.95045  23893764.11648
   7940534.47548   6187425.67844         0.00041  24209343.78344  24209337.92748
  -4266578.40348  -3324603.17545         0.00041  24506889.82545  24506885.93648
 96 10 10 00 21 00.0000000  0  8 22 18 29 14 04 25 15 19
  -3479688.32449  -2711443.10146         0.00041  21150256.23846  21150253.80049
  -5927553.82848  -4618870.15046         0.00041  22694389.95446  22694386.90748
  -1333083.94549  -1038765.41747         0.00041  20762093.18147  20762091.81949
   -963895.95049   -751087.23247         0.00041  20167087.82547  20167085.19349
  -3506731.94248  -2732517.87644         0.00041  24627294.87644  24627292.47448
   7035427.93848   5482150.42145         0.00041  23910297.53945  23910297.93648
   8038333.59048   6263632.73944         0.00041  24227952.91644  24227948.17648
  -4362312.50748  -3399201.09045         0.00041  24488674.59245  24488667.31248
 96 10 10 00 21 30.0000000  0  8 22 18 29 14 04 25 15 19
  -3504850.88349  -2731050.26946         0.00041  21145468.03846  21145465.60249
  -6004249.05648  -4678632.63246         0.00041  22679794.31746  22679791.43148
  -1347089.56849  -1049678.88047         0.00041  20759428.17347  20759427.02749
   -958577.09349   -746942.66747         0.00041  20168099.87047  20168097.49549
  -3543839.93748  -2761433.19744         0.00041  24620234.18444  24620230.95748
   7122683.20548   5550141.51545         0.00041  23926903.72045  23926902.21748
   8136444.64648   6340082.84244         0.00041  24246625.61744  24246618.12048
  -4457576.90548  -3473433.03944         0.00041  24470542.69044  24470538.33048
 96 10 10 00 22 00.0000000  0  8 22 18 29 14 04 25 15 19
  -3528740.98949  -2749665.91646         0.00041  21140921.70446  21140919.64349
  -6080221.07948  -4737831.57946         0.00041  22665337.23546  22665334.18748
  -1360224.94649  -1059914.23847         0.00041  20756928.43847  20756927.07049
   -952004.06449   -741820.83047         0.00041  20169350.80147  20169348.26649
  -3579738.30048  -2789405.95444         0.00041  24613403.56944  24613399.77848
   7210655.16748   5618691.06345         0.00041  23943643.58945  23943643.15248
   8235197.19848   6417032.81245         0.00041  24265415.24945  24265410.44848
  -4552022.13148  -3547026.67045         0.00041  24452571.66745  24452566.73448
 96 10 10 00 22 30.0000000  0  8 22 18 29 14 04 25 15 19
  -3551889.36149  -2767703.58846         0.00041  21136516.75746  21136514.37249
  -6156006.50948  -4796885.12846         0.00041  22650916.14746  22650913.21848
  -1373023.85049  -1069887.40647         0.00041  20754492.88347  20754491.70049
   -944707.52449   -736135.22048         0.00041  20170739.10148  20170736.83649
  -3614975.28848  -2816863.32944         0.00041  24606697.03244  24606694.38548
   7298837.68848   5687404.68545         0.00041  23960424.41945  23960423.87648
   8334060.74148   6494069.24445         0.00041  24284231.00945  24284223.99448
  -4646162.42448  -3620382.67945         0.00041  24434656.65045  24434652.42348
 96 10 10 00 23 00.0000000  0  8 22 18 29 14 04 25 15 19
  -3574171.69749  -2785066.42446         0.00041  21132276.43446  21132274.03049
  -6231483.76448  -4855698.54446         0.00041  22636553.10046  22636550.85948
  -1385381.93349  -1079517.07247         0.00041  20752141.51747  20752139.89049
   -936575.74349   -729798.76547         0.00041  20172286.82747  20172284.12949
  -3649457.09548  -2843732.27145         0.00041  24600135.49345  24600132.06548
   7387345.14448   5756371.48845         0.00041  23977266.79645  23977266.35648
   8433149.78448   6571281.43044         0.00041  24303085.00944  24303076.32148
  -4739857.07148  -3693391.43744         0.00041  24416825.81344  24416822.95548
 96 10 10 00 23 30.0000000  0  8 22 18 29 14 04 25 15 19
  -3595431.18849  -2801632.24146         0.00041  21128230.82446  21128228.81949
  -6306485.20048  -4914141.18546         0.00041  22622280.85046  22622278.47448
  -1397148.71849  -1088685.99247         0.00041  20749902.21147  20749900.65549
   -927479.97649   -722711.15947         0.00041  20174017.71747  20174014.88949
  -3683061.63748  -2869917.61644         0.00041  24593740.58044  24593737.13148
   7476322.99348   5825704.83745         0.00041  23994198.32145  23994197.57148
   8533159.07548   6649214.86444         0.00041  24322007.05744  24322007.05748
  -4832939.54648  -3765923.19745         0.00041  24399113.90845  24399110.23048
 96 10 10 00 24 00.0000000  0  7 22 18 29 14 04 25 19
  -3615937.77549  -2817611.38347         0.00041  21124328.78147  21124326.73949
  -6381269.45348  -4972414.59746         0.00041  22608050.44446  22608047.25048
  -1408586.63749  -1097598.65047         0.00041  20747725.56647  20747724.22349
   -917687.06049   -715080.31647         0.00041  20175881.03947  20175878.54749
  -3716075.12048  -2895642.42944         0.00041  24587455.76844  24587454.05448
   7565494.02348   5895188.73545         0.00041  24011168.10445  24011166.44648
  -4925679.62448  -3838188.11744         0.00041  24381466.25344  24381461.87048
 96 10 10 00 24 30.0000000  0  7 22 18 29 14 04 25 19
  -3635627.88949  -2832954.30646         0.00041  21120581.72346  21120579.23149
  -6455765.64448  -5030463.55446         0.00041  22593874.09046  22593871.18348
  -1419636.73149  -1106209.10847         0.00041  20745622.91047  20745621.43349
   -907151.67849   -706870.93147         0.00041  20177886.02547  20177883.43249
  -3748436.27648  -2920858.89044         0.00041  24581298.04844  24581296.14048
   7654885.26748   5964844.22545         0.00041  24028176.70545  24028177.32048
  -5018040.45048  -3910157.53644         0.00041  24363888.90644  24363884.97448
 96 10 10 00 25 00.0000000  0  7 22 18 29 14 04 25 19
  -3654303.45449  -2847506.66846         0.00041  21117028.01646  21117025.40249
  -6529779.08148  -5088136.32946         0.00041  22579790.09046  22579786.87548
  -1430093.63549  -1114357.33947         0.00041  20743633.01347  20743631.32149
   -895678.89849   -697931.11047         0.00041  20180068.97247  20180066.69949
  -3779935.60548  -2945403.84744         0.00041  24575304.20244  24575302.28048
   7744675.77948   6034810.83445         0.00041  24045263.73345  24045264.07048
  -5109846.15948  -3981694.38344         0.00041  24346420.05144  24346416.61648
 96 10 10 00 25 30.0000000  0  7 22 18 29 14 04 25 19
  -3671821.96349  -2861157.44346         0.00041  21113693.76646  21113691.92549
  -6603173.28948  -5145326.58546         0.00041  22565823.06046  22565820.09748
  -1439796.56449  -1121918.05847         0.00041  20741786.47947  20741785.23149
   -883127.99649   -688151.18547         0.00041  20182457.21947  20182454.95649
  -3810401.35148  -2969143.38645         0.00041  24569509.31245  24569505.40048
   7835018.62248   6105207.81145         0.00041  24062454.49545  24062455.97748
  -5200969.86248  -4052699.79744         0.00041  24329081.80544  24329075.87348
 96 10 10 00 26 00.0000000  0  8 22 18 29 14 04 25 15 19
  -3688162.37349  -2873890.21146         0.00041  21110584.75846  21110582.80149
  -6675927.78548  -5202018.36446         0.00041  22551977.62846  22551975.21348
  -1448709.03249  -1128862.82947         0.00041  20740090.39647  20740089.17949
   -869463.31349   -677503.38447         0.00041  20185057.92647  20185055.27949
  -3839784.53248  -2992039.33845         0.00041  24563917.28445  24563913.96148
   7925948.63248   6176062.34445         0.00041  24079759.11545  24079758.86648
        -0.87658        -0.52755         0.00051  24417291.19055  24417286.00258
  -5291397.64948  -4123162.95644         0.00041  24311871.47944  24311867.67348
 96 10 10 00 26 30.0000000  0  8 22 18 29 14 04 25 15 19
  -3703539.20549  -2885872.13346         0.00041  21107658.62546  21107656.39749
  -6748253.36448  -5258375.92746         0.00041  22538214.95546  22538212.27448
  -1457043.91549  -1135357.53447         0.00041  20738504.56147  20738502.87649
   -854892.78349   -666149.72947         0.00041  20187830.40747  20187828.03549
  -3868287.57648  -3014249.50844         0.00041  24558492.58844  24558489.50348
   8017264.12048   6247217.23745         0.00041  24097135.39445  24097135.58948
    101293.93548     78930.41545         0.00041  24436566.39245  24436563.04348
  -5381339.37348  -4193247.37044         0.00041  24294757.29244  24294752.12948
 96 10 10 00 27 00.0000000  0  8 22 18 29 14 04 25 15 19
  -3717681.62949  -2896892.18046         0.00041  21104967.19646  21104964.79249
  -6819869.05648  -5314180.32746         0.00041  22524587.07246  22524584.32248
  -1464531.97549  -1141192.38047         0.00041  20737079.53947  20737078.11149
   -839115.50349   -653855.74647         0.00041  20190832.78147  20190830.26949
  -3895623.43248  -3035550.17844         0.00041  24553291.01944  24553287.01848
   8109257.04248   6318900.02845         0.00041  24114641.62745  24114641.23848
    203159.96848    158306.48045         0.00041  24455950.77545  24455947.70648
  -5470499.35148  -4262722.63145         0.00041  24277791.02945  24277784.90248
 96 10 10 00 27 30.0000000  0  8 22 18 29 14 04 25 15 19
  -3730886.57449  -2907181.74046         0.00041  21102454.38346  21102452.33549
  -6891059.69748  -5369653.53746         0.00041  22511040.30546  22511037.29848
  -1471481.55949  -1146607.63147         0.00041  20735757.00147  20735755.38049
   -822425.14249   -640850.27348         0.00041  20194008.96148  20194006.45249
  -3922084.24348  -3056168.99045         0.00041  24548254.57845  24548251.85448
   8201633.47348   6390881.62144         0.00041  24132219.77844  24132219.98148
    305298.37548    237894.76445         0.00041  24475387.34345  24475383.88248
  -5559158.38148  -4331807.50945         0.00041  24260920.07745  24260913.13948
 96 10 10 00 28 00.0000000  0  8 22 18 29 14 04 25 15 19
  -3743487.58049  -2917000.68846         0.00041  21100056.29846  21100054.44449
  -6962143.15748  -5425043.22246         0.00041  22497513.52446  22497510.85948
  -1478249.70549  -1151881.50847         0.00041  20734469.27947  20734467.55149
   -805147.93449   -627387.51947         0.00041  20197296.57147  20197294.05549
  -3948024.53648  -3076382.20044         0.00041  24543319.30844  24543315.95148
   8294056.47548   6462899.50845         0.00041  24149808.12345  24149808.01948
    407369.52648    317430.64944         0.00041  24494812.09844  24494806.36748
  -5647624.46848  -4400742.06444         0.00041  24244084.65544  24244079.45948
 96 10 10 00 28 30.0000000  0  8 22 18 29 14 04 25 15 19
  -3755295.93249  -2926201.97246         0.00041  21097809.57646  21097807.16049
  -7032927.23948  -5480199.62746         0.00041  22484044.23046  22484041.25748
  -1484674.80049  -1156888.07147         0.00041  20733246.82247  20733245.15449
   -787105.38549   -613328.39447         0.00041  20200729.73047  20200727.47549
  -3973264.22348  -3096049.49345         0.00041  24538517.72745  24538514.28948
   8386700.89848   6535089.93645         0.00041  24167439.20145  24167437.72048
    509548.53348    397050.56645         0.00041  24514253.90045  24514249.95948
  -5735704.44648  -4469375.74245         0.00041  24227321.04845  24227318.45648
 96 10 10 00 29 00.0000000  0  8 22 18 29 14 04 25 15 19
  -3766058.72849  -2934588.54646         0.00041  21095761.40046  21095759.07749
  -7103161.74848  -5534927.79846         0.00041  22470678.23446  22470675.20748
  -1490502.52049  -1161429.14847         0.00041  20732137.56847  20732135.87149
   -768052.30249   -598481.83947         0.00041  20204355.63247  20204353.14249
  -3997554.81948  -3114977.24245         0.00041  24533895.04345  24533892.12448
   8479804.17448   6607637.92845         0.00041  24185154.06345  24185154.45348
    612089.28648    476952.37745         0.00041  24533768.79745  24533763.95948
  -5823154.01048  -4537518.21544         0.00041  24210681.08544  24210677.73048
 96 10 10 00 29 30.0000000  0  8 22 18 29 14 04 25 15 19
  -3775997.99349  -2942333.41846         0.00041  21093869.92946  21093867.90649
  -7173080.75448  -5589410.12046         0.00041  22457372.02846  22457368.88048
  -1495941.21449  -1165667.08947         0.00041  20731102.33047  20731101.18549
   -748226.98849   -583033.54947         0.00041  20208128.20647  20208125.61349
  -4021133.53548  -3133350.28245         0.00041  24529409.29245  24529404.76448
   8573131.66648   6680360.64345         0.00041  24202914.40645  24202913.85648
    714763.02048    556957.81745         0.00041  24553306.52645  24553303.30048
  -5910214.92448  -4605357.82144         0.00041  24194113.38744  24194109.05448
 96 10 10 00 30 00.0000000  0  8 22 18 29 14 04 25 15 19
  -3785282.53449  -2949568.11146         0.00041  21092103.26646  21092100.83249
  -7242868.31348  -5643790.02046         0.00041  22444092.12646  22444089.15448
  -1501148.53649  -1169724.73847         0.00041  20730111.68847  20730110.06749
   -727799.82049   -567116.27547         0.00041  20212015.31247  20212013.01949
  -4044176.05248  -3151305.49245         0.00041  24525022.53945  24525019.96448
   8666502.57748   6753117.17545         0.00041  24220682.22545  24220681.60548
    817389.87548    636926.72145         0.00041  24572833.70445  24572832.29548
  -5997077.78348  -4673043.11344         0.00041  24177585.34444  24177579.28448
 96 10 10 00 30 30.0000000  0  8 22 18 29 14 04 25 15 19
  -3793577.45849  -2956031.66546         0.00041  21090524.73546  21090522.51249
  -7312210.34348  -5697822.75346         0.00041  22430897.54446  22430894.39048
  -1505770.93849  -1173326.60747         0.00041  20729232.02947  20729230.36449
   -706430.91849   -550465.18347         0.00041  20216081.77147  20216079.28349
  -4066335.82048  -3168572.82044         0.00041  24520806.26444  24520803.02548
   8760233.12948   6826153.93644         0.00041  24238520.57644  24238517.60848
    920297.35948    717114.32544         0.00041  24592417.33044  24592414.61248
  -6083436.39648  -4740335.49244         0.00041  24161152.51744  24161146.38448
 96 10 10 00 31 00.0000000  0  8 22 18 29 14 04 25 15 19
  -3800729.91149  -2961604.98046         0.00041  21089163.22946  21089161.39349
  -7380969.68648  -5751401.44546         0.00041  22417812.78846  22417809.92348
  -1509636.90149  -1176339.04147         0.00041  20728496.27247  20728494.94049
   -683988.87149   -532977.87947         0.00041  20220352.33547  20220350.02349
  -4087477.30648  -3185046.71545         0.00041  24516782.52545  24516779.71348
   8854455.26548   6899573.74744         0.00041  24256450.58644  24256447.21548
   1023624.77348    797629.11144         0.00041  24612079.68644  24612076.16448
  -6169146.18048  -4807122.28745         0.00041  24144840.68345  24144837.29948
 96 10 10 00 31 30.0000000  0  8 22 18 29 14 04 25 15 19
  -3807015.32349  -2966502.69146         0.00041  21087967.39046  21087965.53149
  -7449410.16448  -5804731.67146         0.00041  22404788.52046  22404786.13548
  -1513020.47649  -1178975.59047         0.00041  20727852.47647  20727850.68249
   -660764.90049   -514881.28147         0.00041  20224771.69747  20224769.15249
  -4107869.19248  -3200936.49345         0.00041  24512902.25945  24512898.80248
   8948902.74048   6973169.14945         0.00041  24274422.19645  24274419.14448
   1127087.97748    878249.70944         0.00041  24631768.21444  24631764.18248
  -6254469.12348  -4873607.66745         0.00041  24128603.93345  24128601.45248
 96 10 10 00 32 00.0000000  0  8 22 18 29 14 04 25 15 19
  -3812377.50549  -2970681.00447         0.00041  21086947.57647  21086944.87949
  -7517455.99648  -5857754.38146         0.00041  22391840.93546  22391838.09748
  -1515875.17149  -1181200.02747         0.00041  20727309.26547  20727307.92949
   -636703.39949   -496132.06347         0.00041  20229350.39847  20229348.04749
  -4127451.82048  -3216195.68345         0.00041  24509175.94645  24509172.03948
   9043641.93948   7046991.88144         0.00041  24292450.04344  24292447.15348
   1230740.18948    959017.60244         0.00041  24651495.03444  24651488.84448
  -6339326.78248  -4939730.45745         0.00041  24112457.07345  24112453.98048
 96 10 10 00 32 30.0000000  0  8 22 18 29 14 04 25 15 19
  -3816894.43849  -2974200.66746         0.00041  21086087.66646  21086085.27849
  -7585168.25648  -5910517.15946         0.00041  22378955.48146  22378952.86848
  -1518281.15749  -1183074.81547         0.00041  20726851.09647  20726849.90449
   -611887.55249   -476795.04247         0.00041  20234072.73647  20234070.30549
  -4146302.24148  -3230884.33344         0.00041  24505588.10444  24505584.72648
   9138605.45948   7120989.41044         0.00041  24310523.21644  24310518.84548
   1334509.76348   1039876.93444         0.00041  24671238.37444  24671235.80248
  -6423771.00848  -5005531.07444         0.00041  24096388.19344  24096384.98248
 96 10 10 00 33 00.0000000  0  8 22 18 29 14 04 25 15 19
  -3820752.43449  -2977206.88046         0.00041  21085352.95146  21085351.17649
  -7652712.81748  -5963149.27446         0.00041  22366101.92846  22366098.79848
  -1520422.98449  -1184743.76947         0.00041  20726443.68747  20726442.02949
   -586511.13849   -457021.21647         0.00041  20238901.69647  20238899.23449
  -4164601.83348  -3245143.75445         0.00041  24502105.94545  24502102.73748
   9233625.79048   7195031.21645         0.00041  24328603.50145  24328600.80548
   1438216.37548   1120687.22444         0.00041  24690974.93344  24690970.22648
  -6507974.10648  -5071143.85044         0.00041  24080366.55644  24080360.83648
 96 10 10 00 33 30.0000000  0  8 22 18 29 14 04 25 15 19
  -3824420.89149  -2980065.40346         0.00041  21084654.90746  21084652.83849
  -7720543.00148  -6016003.94846         0.00041  22353194.25346  22353191.06548
  -1522777.01849  -1186578.08147         0.00041  20725996.09447  20725994.44649
   -560998.06649   -437140.90247         0.00041  20243756.69247  20243754.44449
  -4182796.43648  -3259321.37045         0.00041  24498644.90945  24498641.17148
   9328267.96248   7268778.31045         0.00041  24346613.73445  24346610.48848
   1541407.69848   1201095.98044         0.00041  24710613.71244  24710606.25348
  -6592389.81248  -5136922.26744         0.00041  24064299.86344  24064296.75548
 96 10 10 00 34 00.0000000  0  8 22 18 29 14 04 25 15 19
  -3828085.78649  -2982921.15146         0.00041  21083957.78146  21083955.72449
  -7788870.98148  -6069246.51646         0.00041  22340191.95946  22340188.88748
  -1525535.28449  -1188727.37747         0.00041  20725470.70747  20725469.07349
   -535514.95349   -417283.93747         0.00041  20248606.10547  20248603.34349
  -4201082.97448  -3273570.60945         0.00041  24495163.95945  24495161.72348
   9422335.18148   7342077.41345         0.00041  24364513.38445  24364510.32648
   1643893.83348   1280955.23544         0.00041  24730114.99344  24730108.86548
  -6677221.21648  -5203024.63544         0.00041  24048157.06544  24048153.90948
 96 10 10 00 34 30.0000000  0  8 22 18 29 14 04 25 15 19
  -3831368.46849  -2985479.07747         0.00041  21083333.21347  21083331.06949
  -7857338.13948  -6122597.52746         0.00041  22327163.07946  22327160.39848
  -1528323.91249  -1190900.32947         0.00041  20724940.26247  20724938.99849
   -509676.74149   -397150.26947         0.00041  20253522.79747  20253520.45649
  -4219082.20148  -3287595.99345         0.00041  24491738.34645  24491735.96748
   9516201.45448   7415219.93844         0.00041  24382373.96944  24382372.04648
   1746049.73548   1360557.17344         0.00041  24749558.22944  24749548.30148
  -6762105.48548  -5269168.17845         0.00041  24032003.85645  24032000.81348
 96 10 10 00 35 00.0000000  0  8 22 18 29 14 04 25 15 19
  -3834291.37449  -2987756.65847         0.00041  21082776.72847  21082774.60449
  -7925978.23948  -6176083.30346         0.00041  22314101.73846  22314098.69648
  -1531161.82549  -1193111.67947         0.00041  20724400.50347  20724398.63549
   -483502.97849   -376755.12847         0.00041  20258503.64647  20258501.04149
  -4236818.21448  -3301416.26244         0.00041  24488364.25644  24488360.33148
   9609845.09548   7488188.98744         0.00041  24400197.18744  24400192.37848
   1847846.56348   1439879.32544         0.00041  24768927.42544  24768918.73848
  -6847072.56648  -5335376.24045         0.00041  24015837.40245  24015832.76448
 96 10 10 00 35 30.0000000  0  8 22 18 29 14 04 25 15 19
  -3837006.39149  -2989872.22346         0.00041  21082260.10546  21082258.06849
  -7994963.93448  -6229838.36746         0.00041  22300973.28646  22300970.91448
  -1534199.77749  -1195478.92547         0.00041  20723822.22047  20723820.69649
   -457150.02349   -356220.37147         0.00041  20263518.41347  20263515.90549
  -4254464.92148  -3315166.95945         0.00041  24485005.67245  24485002.62248
   9703104.22048   7560858.40144         0.00041  24417942.10444  24417939.06648
   1949118.28548   1518792.27744         0.00041  24788197.19244  24788190.47748
  -6932270.05648  -5401763.82945         0.00041  23999623.31145  23999620.14748
 96 10 10 00 36 00.0000000  0  8 22 18 29 14 04 25 15 19
  -3839520.33449  -2991831.12346         0.00041  21081781.91446  21081779.45049
  -8064317.18248  -6283879.84846         0.00041  22287775.16246  22287772.98948
  -1537443.36449  -1198006.38547         0.00041  20723204.90347  20723203.40749
   -430658.24849   -335577.43447         0.00041  20268559.32447  20268557.14749
  -4272049.23048  -3328869.01045         0.00041  24481660.50145  24481656.85048
   9795942.53348   7633199.93344         0.00041  24435609.23744  24435605.26348
   2049840.10848   1597276.74944         0.00041  24807362.69744  24807357.25848
  -7017725.37848  -5468352.33544         0.00041  23983362.42244  23983358.02548
 96 10 10 00 36 30.0000000  0  8 22 18 29 14 04 25 15 19
  -3841721.78849  -2993546.51946         0.00041  21081362.68646  21081360.64549
  -8133915.15148  -6338112.01146         0.00041  22274531.18146  22274529.18648
  -1540773.15949  -1200601.03047         0.00041  20722571.62047  20722569.51849
   -403925.22549   -314746.50247         0.00041  20273646.79047  20273644.05649
  -4289452.70048  -3342430.16345         0.00041  24478347.09145  24478344.70348
   9888473.22248   7705301.73044         0.00041  24453215.37444  24453213.56748
   2150127.23448   1675422.45744         0.00041  24826451.28644  24826440.61348
  -7103313.69348  -5535044.47145         0.00041  23967076.09245  23967071.07048
 96 10 10 00 37 00.0000000  0  8 22 18 29 14 04 25 15 19
  -3843503.03049  -2994934.48946         0.00041  21081023.51046  21081021.91149
  -8203656.58148  -6392455.96246         0.00041  22261260.23846  22261258.02648
  -1544077.63449  -1203175.94747         0.00041  20721942.50047  20721941.12049
   -376845.37849   -293645.33047         0.00041  20278800.01547  20278797.35249
  -4306567.05448  -3355766.08144         0.00041  24475089.68744  24475087.59548
   9980799.03548   7777243.91544         0.00041  24470784.80544  24470782.86748
   2250088.27648   1753314.10244         0.00041  24845471.34744  24845463.72948
  -7188924.60848  -5601754.23145         0.00041  23950782.34845  23950778.72548
 96 10 10 00 37 30.0000000  0  8 22 18 29 14 04 25 15 19
  -3844834.02549  -2995971.61946         0.00041  21080770.47746  21080768.44449
  -8273510.42048  -6446887.50246         0.00041  22247967.40346  22247964.86248
  -1547351.44949  -1205726.96547         0.00041  20721319.21947  20721317.87549
   -349390.67549   -272252.06247         0.00041  20284024.35547  20284021.94349
  -4323362.54448  -3368853.39845         0.00041  24471895.16945  24471890.81048
  10072936.69448   7849039.48044         0.00041  24488318.91644  24488315.81948
   2349742.02348   1830966.32844         0.00041  24864433.10144  24864427.56248
  -7274546.06848  -5668472.18945         0.00041  23934490.68045  23934485.68648
 96 10 10 00 38 00.0000000  0  8 22 18 29 14 04 25 15 19
  -3845730.75249  -2996670.34646         0.00041  21080599.95846  21080597.47549
  -8343459.49048  -6501393.25346         0.00041  22234657.24646  22234654.31548
  -1550623.90349  -1208276.92947         0.00041  20720696.88947  20720695.33449
   -321561.60349   -250567.07147         0.00041  20289319.84547  20289317.59549
  -4339819.94348  -3381677.37044         0.00041  24468762.67244  24468759.54948
  10164886.56548   7920688.72844         0.00041  24505816.26344  24505813.13648
   2449085.07848   1908376.47244         0.00041  24883330.77444  24883330.77448
  -7360190.23548  -5735207.85845         0.00041  23918191.58345  23918188.40848
 96 10 10 00 38 30.0000000  0  8 22 18 29 14 04 25 15 19
  -3846746.68349  -2997461.96446         0.00041  21080406.44646  21080404.49649
  -8414036.19048  -6556388.06946         0.00041  22221226.88146  22221224.29248
  -1554443.98449  -1211253.61347         0.00041  20719969.72947  20719968.59149
   -293888.62249   -229003.71547         0.00041  20294586.02147  20294583.51649
  -4356471.96248  -3394652.97744         0.00041  24465592.50344  24465591.59648
  10256108.42148   7991770.65244         0.00041  24523175.01444  24523171.52148
   2547571.38048   1985120.55644         0.00041  24902071.85544  24902071.85548
  -7446385.24948  -5802372.75345         0.00041  23901789.02345  23901785.26348
 96 10 10 00 39 00.0000000  0  8 22 18 29 14 04 25 15 19
  -3847691.70149  -2998198.33046         0.00041  21080226.68646  21080224.78049
  -8485040.13148  -6611715.79446         0.00041  22207714.70746  22207711.96248
  -1558635.67049  -1214519.85647         0.00041  20719172.10147  20719170.92049
   -266196.64449   -207425.56147         0.00041  20299855.76547  20299853.30549
  -4373141.76748  -3407642.44145         0.00041  24462422.97045  24462419.77848
  10346775.36248   8062420.20344         0.00041  24540429.04044  24540424.93048
   2645373.13848   2061328.08044         0.00041  24920683.47444  24920683.47448
  -7532946.57548  -5869823.06745         0.00041  23885319.06545  23885313.11148
 96 10 10 00 39 30.0000000  0  8 22 18 29 14 04 25 15 19
  -3847625.55649  -2998146.76647         0.00041  21080239.34347  21080237.37549
  -8555510.38148  -6666627.65846         0.00041  22194304.58346  22194302.17048
  -1562253.02849  -1217338.57247         0.00041  20718483.92847  20718482.62049
   -237558.27349   -185109.94847         0.00041  20305305.15647  20305302.82849
  -4388890.40548  -3419914.09745         0.00041  24459424.92745  24459422.76248
  10437822.54548   8133366.03644         0.00041  24557755.31144  24557750.46748
   2743426.21948   2137734.71644         0.00041  24939343.86144  24939343.86148
  -7618929.64348  -5936822.80445         0.00041  23868958.86745  23868950.93048
 96 10 10 00 40 00.0000000  0  8 18 22 29 14 04 25 15 19
  -8625553.72048  -6721206.85546         0.00041  22180975.93346  22180973.92648
  -3846653.76549  -2997389.51446         0.00041  21080424.10446  21080422.36549
  -1565372.92249  -1219769.65647         0.00041  20717889.82247  20717888.72449
   -208074.33649   -162135.45147         0.00041  20310915.89447  20310913.56849
  -4403823.46348  -3431550.24544         0.00041  24456585.51344  24456581.13148
  10529139.86448   8204522.37644         0.00041  24575133.62744  24575127.46848
   2841632.19648   2214257.10444         0.00041  24958032.77644  24958032.77648
  -7704421.86048  -6003440.07045         0.00041  23852689.13645  23852680.94548
 96 10 10 00 40 30.0000000  0  8 22 18 29 14 04 25 15 19
  -3844801.95149  -2995946.53046         0.00041  21080776.49146  21080774.56449
  -8695225.57448  -6775496.59246         0.00041  22167717.30846  22167714.87248
  -1568014.84549  -1221828.29547         0.00041  20717387.25047  20717386.16449
   -177795.34449   -138541.44047         0.00041  20316677.98447  20316675.65649
  -4418000.74748  -3442597.48745         0.00041  24453886.54345  24453883.61348
  10620663.25648   8275839.29144         0.00041  24592547.28144  24592543.81748
   2939945.00348   2290866.23644         0.00041  24976740.56344  24976740.56348
  -7789472.07548  -6069712.88845         0.00041  23836503.46745  23836497.65248
 96 10 10 00 41 00.0000000  0  8 22 18 29 14 04 25 15 19
  -3842144.19949  -2993875.53746         0.00041  21081282.44746  21081280.35149
  -8764597.25448  -6829552.42546         0.00041  22154516.50446  22154513.46348
  -1570247.44749  -1223567.98247         0.00041  20716962.57647  20716961.02649
   -146807.81849   -114395.32447         0.00041  20322574.80247  20322572.21449
  -4431502.62148  -3453118.44344         0.00041  24451317.17044  24451313.95348
  10712325.53548   8347264.42044         0.00041  24609989.29544  24609986.94548
   3038288.42848   2367497.47644         0.00041  24995453.86644  24995453.86648
  -7874163.83148  -6135706.40445         0.00041  23820386.25645  23820382.29948
 96 10 10 00 41 30.0000000  0  8 22 18 29 14 04 25 15 19
  -3838907.91549  -2991353.74146         0.00041  21081897.98546  21081895.78949
  -8833902.50948  -6883556.49746         0.00041  22141328.45346  22141326.19748
  -1572282.82149  -1225153.98647         0.00041  20716575.08247  20716573.62949
   -115316.61449    -89856.72847         0.00041  20328566.92647  20328564.59649
  -4444538.47048  -3463276.23545         0.00041  24448835.98445  24448832.45648
  10803919.09248   8418636.00744         0.00041  24627420.53244  24627416.85448
   3136444.34447   2443982.60644         0.00041  25014132.34044  25014132.34047
  -7958718.68548  -6201593.25245         0.00041  23804295.97945  23804292.18248
 96 10 10 00 42 00.0000000  0  8 18 22 29 14 04 25 15 19
  -8903111.97548  -6937485.93046         0.00041  22128158.19446  22128155.97548
  -3835060.07349  -2988355.41346         0.00041  21082630.08546  21082628.25249
  -1574092.43549  -1226564.07347         0.00041  20716230.74947  20716229.52649
    -83281.10049    -64893.99347         0.00041  20334663.22047  20334660.81449
  -4457075.59948  -3473045.40645         0.00041  24446449.89845  24446446.67748
  10895479.23348   8489981.54144         0.00041  24644844.78844  24644840.72348
   3234440.00147   2520342.85844         0.00041  25032780.43644  25032780.43647
  -8043098.79448  -6267343.95245         0.00041  23788238.84745  23788235.71848
 96 10 10 00 42 30.0000000  0  8 18 22 29 14 04 25 15 19
  -8972259.90448  -6991367.40446         0.00041  22114999.52646  22114996.47848
  -3830636.85149  -2984908.73246         0.00041  21083472.01646  21083469.94049
  -1575713.96649  -1227827.60447         0.00041  20715922.05747  20715920.63549
    -50740.43649    -39537.64147         0.00041  20340855.64847  20340853.14049
  -4469148.19048  -3482452.63045         0.00041  24444153.06545  24444149.96848
  10986990.87548   8561289.31244         0.00041  24662256.55744  24662255.14448
   3332235.34047   2596547.01844         0.00041  25051392.06144  25051392.06147
  -8127331.37848  -6332979.66845         0.00041  23772210.41445  23772206.00048
 96 10 10 00 43 00.0000000  0  8 18 22 29 14 04 25 15 19
  -9041252.74248  -7045128.04146         0.00041  22101871.20546  22101868.04248
  -3825547.94149  -2980943.33246         0.00041  21084440.40746  21084438.25549
  -1577049.09349  -1228867.96247         0.00041  20715667.84547  20715666.74249
    -17603.61149    -13716.74647         0.00041  20347161.29647  20347158.80349
  -4480656.26148  -3491419.95945         0.00041  24441961.62445  24441960.76048
  11078567.46948   8632647.68545         0.00041  24679685.56345  24679682.36148
   3429925.66848   2672669.35244         0.00041  25069983.64044  25069983.64048
  -8211302.39948  -6398411.59145         0.00041  23756230.96245  23756226.29348
 96 10 10 00 43 30.0000000  0  8 18 22 29 14 04 25 15 19
  -9110147.50449  -7098812.25146         0.00041  22088760.91346  22088758.68449
  -3819825.18749  -2976484.02846         0.00041  21085529.22746  21085527.11949
  -1578141.32449  -1229719.04947         0.00041  20715460.29947  20715458.75549
     16089.03649     12537.25847         0.00041  20353572.86747  20353570.38749
  -4491642.35748  -3499980.55845         0.00041  24439873.54845  24439870.22248
  11170151.26848   8704011.69844         0.00041  24697113.56744  24697110.84248
   3527464.36147   2748673.52844         0.00041  25088544.43044  25088544.43047
  -8295057.44848  -6463675.19345         0.00041  23740293.78645  23740288.14248
 96 10 10 00 44 00.0000000  0  7 18 22 29 14 04 25 19
  -9178961.51249  -7152433.52746         0.00041  22075665.48246  22075663.13149
  -3813492.79549  -2971549.69346         0.00041  21086734.39246  21086732.47849
  -1579005.50349  -1230392.43647         0.00041  20715295.77647  20715294.37749
     50315.83749     39207.48547         0.00041  20360085.96847  20360083.54949
  -4502139.94548  -3508160.50745         0.00041  24437875.16145  24437872.72948
  11261720.69348   8775364.49544         0.00041  24714538.72944  24714536.28148
  -8378617.12548  -6528786.56345         0.00041  23724392.17545  23724387.31348
 96 10 10 00 44 30.0000000  0  7 18 22 29 14 04 25 19
  -9247733.02348  -7206021.70046         0.00041  22062578.99146  22062575.91348
  -3806588.76549  -2966169.91446         0.00041  21088048.47146  21088046.20149
  -1579675.60349  -1230914.58947         0.00041  20715167.97547  20715166.79549
     85038.41949     66264.03547         0.00041  20366693.55447  20366690.90349
  -4512194.64848  -3515995.33545         0.00041  24435962.43345  24435959.20948
  11353239.18648   8846677.61844         0.00041  24731952.85944  24731951.44148
  -8462035.32948  -6593787.71445         0.00041  23708517.32545  23708514.17048
 96 10 10 00 45 00.0000000  0  7 18 22 29 14 04 25 19
  -9316387.00349  -7259518.28646         0.00041  22049514.98646  22049512.40249
  -3799034.46749  -2960283.43946         0.00041  21089485.43046  21089483.73649
  -1580082.90349  -1231231.96647         0.00041  20715090.95047  20715089.42949
    120335.36649     93768.13947         0.00041  20373410.28947  20373407.89049
  -4521731.88848  -3523426.95345         0.00041  24434148.17945  24434143.43848
  11444758.56648   8917991.39544         0.00041  24749368.28444  24749367.70848
  -8545260.88248  -6658638.73045         0.00041  23692679.73345  23692677.64148
 96 10 10 00 45 30.0000000  0  7 18 22 29 14 04 25 19
  -9384907.15649  -7312910.59846         0.00041  22036475.72846  22036473.21749
  -3790824.30749  -2953885.90646         0.00041  21091047.90346  21091046.05649
  -1580230.98749  -1231347.35847         0.00041  20715062.53747  20715061.35249
    156235.83049    121742.51647         0.00041  20380242.02047  20380239.55549
  -4530742.25948  -3530448.01345         0.00041  24432430.80245  24432428.96948
  11536278.07648   8989305.29444         0.00041  24766784.03944  24766783.59548
  -8628295.36448  -6723340.87745         0.00041  23676879.10745  23676876.64948
 96 10 10 00 46 00.0000000  0  7 18 22 29 14 04 25 19
  -9453328.47948  -7366225.89746         0.00041  22023455.14246  22023452.34448
  -3782005.74849  -2947014.29046         0.00041  21092725.95846  21092723.90349
  -1580161.95049  -1231293.55947         0.00041  20715075.59347  20715074.23549
    192694.30149    150151.70447         0.00041  20387179.72447  20387177.31149
  -4539266.82748  -3537090.54945         0.00041  24430809.63545  24430806.83248
  11627762.15448   9060591.58044         0.00041  24784193.78844  24784193.07848
  -8711174.17348  -6787921.72745         0.00041  23661106.56245  23661105.17948
 96 10 10 00 46 30.0000000  0  7 18 22 04 29 14 25 19
  -9521619.29649  -7419439.50846         0.00041  22010459.55146  22010457.48249
  -3772538.70649  -2939637.36346         0.00041  21094527.60546  21094525.65049
  -4547265.20148  -3543323.05145         0.00041  24429286.72345  24429284.40948
  -1579865.12649  -1231062.26847         0.00041  20715132.49747  20715130.90949
    229729.52449    179010.31747         0.00041  20394227.18447  20394225.03949
  11719223.52248   9131860.18744         0.00041  24801598.59544  24801597.56648
  -8793871.01948  -6852360.77345         0.00041  23645370.85145  23645367.69348
 96 10 10 00 47 00.0000000  0  7 18 22 29 14 04 25 19
  -9589788.30049  -7472558.19746         0.00041  21997487.44346  21997485.52049
  -3762429.01849  -2931759.67546         0.00041  21096451.41546  21096449.30649
  -1579359.00349  -1230667.88747         0.00041  20715228.38747  20715227.18749
    267332.87549    208311.62147         0.00041  20401383.23547  20401380.52749
  -4554736.34048  -3549144.71945         0.00041  24427865.52245  24427862.33948
  11810649.80048   9203101.46344         0.00041  24818994.97944  24818995.47148
  -8876378.43948  -6916652.22545         0.00041  23629670.81945  23629665.89848
 96 10 10 00 47 30.0000000  0  7 18 22 04 29 14 25 19
  -9657821.27849  -7525570.89046         0.00041  21984541.34346  21984539.10449
  -3751675.66049  -2923380.42446         0.00041  21098497.93046  21098495.69149
  -4561684.07948  -3554558.53245         0.00041  24426543.32945  24426540.68848
  -1578651.64549  -1230116.69747         0.00041  20715362.81247  20715361.85849
    305500.43549    238052.55947         0.00041  20408646.09147  20408643.53049
  11902057.49048   9274328.26744         0.00041  24836389.53644  24836389.28048
  -8958675.19248  -6980779.51845         0.00041  23614009.28045  23614004.77648
 96 10 10 00 48 00.0000000  0  7 18 22 04 29 14 25 19
  -9725717.18349  -7578476.77046         0.00041  21971621.59046  21971619.15749
  -3740285.30449  -2914504.81546         0.00041  21100664.96446  21100663.21649
  -4568111.81448  -3559567.16445         0.00041  24425321.79245  24425318.25648
  -1577736.60149  -1229403.67447         0.00041  20715537.44247  20715535.92049
    344215.09249    268219.81747         0.00041  20416013.07847  20416011.12049
  11993453.71948   9345546.10644         0.00041  24853780.54544  24853780.23848
  -9040761.93448  -7044743.15945         0.00041  23598389.07645  23598384.39448
 96 10 10 00 48 30.0000000  0  7 18 22 04 29 14 25 19
  -9793498.97849  -7631293.73646         0.00041  21958723.45446  21958720.61249
  -3728289.36049  -2905157.33046         0.00041  21102947.46246  21102945.83949
  -4574047.35848  -3564192.27644         0.00041  24424192.31944  24424187.89848
  -1576640.50549  -1228549.57447         0.00041  20715745.85947  20715744.69249
    383456.32049    298797.39747         0.00041  20423480.48147  20423477.93849
  12084809.33348   9416732.31544         0.00041  24871163.87644  24871162.82148
  -9122664.44348  -7108563.24345         0.00041  23582803.76845  23582799.15348
 96 10 10 00 49 00.0000000  0  7 18 22 04 29 14 25 19
  -9861110.89349  -7683978.32346         0.00041  21945857.46646  21945854.63349
  -3715641.69549  -2895301.99346         0.00041  21105354.69946  21105352.69149
  -4579437.95448  -3568392.72244         0.00041  24423164.74144  24423161.39948
  -1575289.65449  -1227496.96047         0.00041  20716002.71547  20716001.53349
    423284.58849    329832.39647         0.00041  20431059.73947  20431056.79849
  12176193.04648   9487940.41444         0.00041  24888553.85644  24888551.27648
  -9204315.47848  -7172187.38445         0.00041  23567266.59645  23567261.35448
 96 10 10 00 49 30.0000000  0  7 18 22 04 25 29 14 19
  -9928627.59949  -7736588.72946         0.00041  21933008.79146  21933006.45349
  -3702419.80249  -2884999.20346         0.00041  21107870.77746  21107868.77649
  -4584348.47548  -3572219.12345         0.00041  24422230.64045  24422227.43848
  12267526.07048   9559108.96444         0.00041  24905936.02444  24905929.96548
  -1573735.59049  -1226286.00047         0.00041  20716298.57447  20716297.44349
    463629.40749    361269.90647         0.00041  20438737.10747  20438734.71149
  -9285795.56448  -7235678.31045         0.00041  23551761.68745  23551756.17848
 96 10 10 00 50 00.0000000  0  7 18 22 19 29 14 04 25
  -9996060.69149  -7789133.98446         0.00041  21920176.84546  21920174.24549
  -3688626.25949  -2874250.98146         0.00041  21110495.11246  21110493.57649
  -9367110.63748  -7299040.67545         0.00041  23536286.18545  23536282.28648
  -1571956.49149  -1224899.68947         0.00041  20716637.08747  20716636.00249
    504491.14349    393110.21547         0.00041  20446512.60847  20446510.40549
  -4588772.12548  -3575666.14245         0.00041  24421388.65745  24421386.60348
  12358796.42948   9630228.72544         0.00041  24923303.41544  24923297.71348
 96 10 10 00 50 30.0000000  0  8 18 22 29 14 04 25 15 19
 -10063378.01049  -7841589.02446         0.00041  21907366.73746  21907364.51849
  -3674213.25749  -2863020.06746         0.00041  21113238.25746  21113236.01449
  -1569919.38149  -1223312.32847         0.00041  20717024.71547  20717023.42749
    545913.88249    425387.66047         0.00041  20454395.15147  20454392.45349
  -4592666.14448  -3578700.44145         0.00041  24420649.21345  24420646.37848
  12450028.18348   9701318.43444         0.00041  24940666.38844  24940659.58548
        -1.17357        -0.91454         0.00051  25344944.50354  25344944.50357
  -9448216.00448  -7362239.61645         0.00041  23520852.80845  23520849.06348
 96 10 10 00 51 00.0000000  0  8 18 22 19 29 14 04 25 15
 -10130594.59749  -7893965.57046         0.00041  21894575.59446  21894573.35049
  -3659189.67849  -2851313.36346         0.00041  21116097.20346  21116095.14049
  -9529125.60948  -7425286.03145         0.00041  23505456.03545  23505452.57348
  -1567629.43349  -1221527.95247         0.00041  20717460.46647  20717459.51349
    587878.32349    458087.21647         0.00041  20462380.81647  20462378.38849
  -4596045.11548  -3581333.41544         0.00041  24420007.52644  24420002.95748
  12541210.84448   9772369.88044         0.00041  24958016.78944  24958012.33548
     94857.05647     73914.58944         0.00041  25362996.71944  25362996.71947
 96 10 10 00 51 30.0000000  0  7 18 22 04 29 14 25 19
 -10197692.61949  -7946249.73046         0.00041  21881807.41746  21881804.87249
  -3643542.25749  -2839120.55646         0.00041  21119074.42046  21119072.63749
  -4598908.68948  -3583564.77344         0.00041  24419460.60644  24419457.54348
  -1565078.62149  -1219540.30547         0.00041  20717945.88247  20717944.63149
    630393.88249    491216.21747         0.00041  20470471.27147  20470468.87049
  12632345.88248   9843384.21344         0.00041  24975359.25744  24975356.12648
  -9609838.22248  -7488178.92745         0.00041  23490097.20345  23490094.00748
 96 10 10 00 52 00.0000000  0  7 18 22 04 25 29 14 19
 -10264768.77049  -7998516.84546         0.00041  21869043.53746  21869041.18449
  -3627365.68849  -2826515.43446         0.00041  21122152.88546  21122150.78749
  -4601370.06748  -3585482.75744         0.00041  24418991.92144  24418988.81048
  12723348.19348   9914295.10244         0.00041  24992676.16744  24992674.96148
  -1562373.03949  -1217432.05947         0.00041  20718460.66747  20718459.65149
    673358.12349    524694.83647         0.00041  20478647.12147  20478644.72549
  -9690431.45148  -7550978.81945         0.00041  23474760.77945  23474757.55948
 96 10 10 00 52 30.0000000  0  7 18 22 04 25 29 14 19
 -10332029.34949  -8050927.66746         0.00041  21856244.29446  21856242.02549
  -3610864.51949  -2813657.36746         0.00041  21125293.22446  21125290.99449
  -4603643.87148  -3587254.57244         0.00041  24418556.85844  24418555.49248
  12814013.99548   9984943.78244         0.00041  25009928.62244  25009928.96548
  -1559725.94949  -1215369.38747         0.00041  20718964.27547  20718963.18349
    716560.14149    558358.72947         0.00041  20486868.59447  20486865.62349
  -9771108.70548  -7613844.15545         0.00041  23459408.72545  23459405.10748
 96 10 10 00 53 00.0000000  0  7 18 22 04 25 29 14 19
 -10399118.78049  -8103205.12346         0.00041  21843477.36146  21843474.96249
  -3593700.70949  -2800282.95846         0.00041  21128559.00246  21128557.38249
  -4605390.02448  -3588615.22044         0.00041  24418226.45744  24418223.32448
  12904698.99348  10055607.45344         0.00041  25027184.55444  25027186.40948
  -1556785.21349  -1213077.90547         0.00041  20719524.16947  20719522.85149
    760340.81549    592473.52647         0.00041  20495199.29347  20495196.75749
  -9851533.58348  -7676512.84945         0.00041  23444104.23345  23444100.45048
 96 10 10 00 53 30.0000000  0  7 18 22 04 25 29 14 19
 -10465816.16449  -8155177.09346         0.00041  21830785.53146  21830783.31549
  -3575649.34849  -2786216.95146         0.00041  21131994.22746  21131992.19049
  -4606379.62748  -3589386.37944         0.00041  24418038.11444  24418035.82648
  12995626.72448  10126460.26244         0.00041  25044488.79444  25044490.26648
  -1553342.21149  -1210395.04647         0.00041  20720179.52547  20720178.08249
    804920.35349    627210.82747         0.00041  20503682.44047  20503680.14149
  -9931486.90248  -7738814.11345         0.00041  23428888.74345  23428885.80948
 96 10 10 00 54 00.0000000  0  7 18 22 04 25 29 14 19
 -10532308.02149  -8206988.90846         0.00041  21818132.06046  21818129.96949
  -3556888.52249  -2771598.11046         0.00041  21135564.53146  21135562.25949
  -4606781.06248  -3589699.20045         0.00041  24417962.59345  24417960.16148
  13086622.03248  10197365.74044         0.00041  25061807.36344  25061806.43348
  -1549579.14649  -1207462.78447         0.00041  20720895.30347  20720893.98449
    850113.30249    662426.10447         0.00041  20512282.34047  20512279.88049
 -10011148.58648  -7800888.10345         0.00041  23413731.55245  23413726.58548
 96 10 10 00 54 30.0000000  0  7 18 22 04 25 29 14 19
 -10598736.03649  -8258750.97946         0.00041  21805490.86846  21805488.58749
  -3537579.27949  -2756551.93646         0.00041  21139238.64446  21139236.69949
  -4606746.65148  -3589672.40545         0.00041  24417969.36945  24417966.28948
  13177524.49448  10268198.82944         0.00041  25079104.26344  25079105.11548
  -1545662.01649  -1204410.47547         0.00041  20721640.85747  20721639.63249
    895767.14349    698000.50747         0.00041  20520970.39047  20520967.77849
 -10090696.65648  -7862873.57045         0.00041  23398594.16345  23398589.05248
 96 10 10 00 55 00.0000000  0  7 18 22 04 25 29 14 19
 -10665073.72849  -8310442.67046         0.00041  21792867.88746  21792865.76849
  -3517706.93849  -2741066.99346         0.00041  21143020.16246  21143018.55249
  -4606258.25148  -3589291.81445         0.00041  24418061.03445  24418059.15948
  13268348.16348  10338970.59044         0.00041  25096387.74244  25096387.13748
  -1541574.93649  -1201225.73947         0.00041  20722418.64947  20722417.13749
    941902.88449    733950.42247         0.00041  20529749.60447  20529747.14549
 -10170117.67748  -7924760.02645         0.00041  23383478.85845  23383475.57848
 96 10 10 00 55 30.0000000  0  7 18 22 04 25 29 14 19
 -10731282.35549  -8362033.79146         0.00041  21780268.43146  21780266.22949
  -3497226.86149  -2725108.48146         0.00041  21146917.47846  21146915.35449
  -4605275.84148  -3588526.31945         0.00041  24418248.45245  24418246.23448
  13359127.28548  10409707.59144         0.00041  25113660.55844  25113660.25048
  -1537274.88549  -1197875.05047         0.00041  20723236.65647  20723235.67549
    988570.65449    770314.91147         0.00041  20538629.97447  20538627.69949
 -10249355.25048  -7986503.55245         0.00041  23368399.94745  23368396.95948
 96 10 10 00 56 00.0000000  0  7 18 22 04 25 29 14 19
 -10797229.37049  -8413421.05946         0.00041  21767718.89546  21767716.91049
  -3476021.42149  -2708584.74846         0.00041  21150952.75646  21150950.99149
  -4603690.75548  -3587291.14645         0.00041  24418549.91745  24418548.06048
  13449976.43648  10480499.16444         0.00041  25130949.03544  25130946.61448
  -1532626.50249  -1194252.93447         0.00041  20724121.59247  20724120.16349
   1035901.90749    807196.40047         0.00041  20547636.91747  20547634.54549
 -10328282.75648  -8048005.46445         0.00041  23353379.71345  23353377.32448
 96 10 10 00 56 30.0000000  0  7 18 22 04 25 29 14 19
 -10863019.62449  -8464686.17546         0.00041  21755199.88746  21755197.95549
  -3454204.11549  -2691584.24746         0.00041  21155104.50746  21155102.51949
  -4601620.59148  -3585678.01045         0.00041  24418943.49445  24418941.29548
  13540777.90648  10551253.62844         0.00041  25148227.60944  25148223.90448
  -1527734.86049  -1190441.26947         0.00041  20725052.26047  20725050.94549
   1083790.59849    844512.25147         0.00041  20556750.31547  20556747.46749
 -10407005.55948  -8109347.85845         0.00041  23338401.45845  23338397.15348
 96 10 10 00 57 00.0000000  0  7 18 22 04 25 29 14 19
 -10928652.10649  -8515828.35146         0.00041  21742710.16246  21742708.23949
  -3431768.52149  -2674101.95446         0.00041  21159374.04146  21159371.79949
  -4599054.57148  -3583678.49245         0.00041  24419433.00245  24419429.25048
  13631529.02048  10621968.83144         0.00041  25165495.14444  25165491.82948
  -1522572.31549  -1186418.50747         0.00041  20726034.30347  20726033.36649
   1132232.80449    882259.40747         0.00041  20565968.24147  20565965.66049
 -10485502.04248  -8170513.89345         0.00041  23323462.75945  23323459.47448
 96 10 10 00 57 30.0000000  0  7 18 22 04 25 29 14 19
 -10994168.52349  -8566880.08846         0.00041  21730242.71846  21730240.56549
  -3408757.63249  -2656171.38946         0.00041  21163752.45446  21163750.57349
  -4596034.92948  -3581325.51344         0.00041  24420005.23644  24420003.62348
  13722191.39648  10692614.85744         0.00041  25182747.94144  25182743.48148
  -1517174.67449  -1182212.55847         0.00041  20727061.72747  20727060.53349
   1181174.06249    920395.43947         0.00041  20575281.23547  20575278.97849
 -10563812.49948  -8231534.98845         0.00041  23308561.42245  23308557.36448
 96 10 10 00 58 00.0000000  0  7 18 22 04 25 29 14 19
 -11059539.20649  -8617818.26446         0.00041  21717803.48846  21717800.99449
  -3385139.23749  -2637767.44146         0.00041  21168247.06446  21168245.15249
  -4592532.77648  -3578596.54144         0.00041  24420674.13344  24420669.75148
  13812797.15848  10763216.78844         0.00041  25199990.27544  25199985.50948
  -1511508.82449  -1177797.61147         0.00041  20728139.84147  20728138.80349
   1230621.48549    958925.89347         0.00041  20584690.83247  20584688.41449
 -10641911.41648  -8292391.23245         0.00041  23293700.13145  23293695.75848
 96 10 10 00 58 30.0000000  0  7 18 22 04 25 29 14 19
 -11124755.67149  -8668636.27446         0.00041  21705392.73846  21705390.21749
  -3360896.42249  -2618876.92846         0.00041  21172860.23646  21172858.56149
  -4588525.59448  -3575474.09144         0.00041  24421434.73644  24421433.32748
  13903364.83348  10833789.01444         0.00041  25217228.32944  25217221.89348
  -1505555.83649  -1173158.92047         0.00041  20729272.57647  20729271.27049
   1280583.36949    997857.21847         0.00041  20594198.46647  20594195.82649
 -10719775.20348  -8353064.28546         0.00041  23278882.35646  23278879.00248
 96 10 10 00 59 00.0000000  0  7 18 22 04 25 29 14 19
 -11189820.81549  -8719336.37146         0.00041  21693011.06246  21693008.72649
  -3336025.83349  -2599497.24246         0.00041  21177593.00646  21177590.98549
  -4584016.88048  -3571961.20544         0.00041  24422292.14244  24422292.14248
  13993906.12148  10904340.72844         0.00041  25234453.46244  25234452.37548
  -1499321.13249  -1168300.71247         0.00041  20730459.00047  20730457.86349
   1331072.05649   1037199.03647         0.00041  20603806.14147  20603803.50649
 -10797407.54748  -8413556.97946         0.00041  23264109.37446  23264106.18048
 96 10 10 00 59 30.0000000  0  7 18 22 04 25 29 14 19
 -11254737.58149  -8769920.84846         0.00041  21680658.53446  21680655.84449
  -3310517.54849  -2579620.64946         0.00041  21182447.25246  21182444.93649
  -4579006.64048  -3568057.12244         0.00041  24423245.57844  24423245.57848
  14084438.97748  10974885.82744         0.00041  25251677.83544  25251680.91348
  -1492811.75249  -1163228.47047         0.00041  20731697.72447  20731696.60949
   1382105.75549   1076965.54047         0.00041  20613517.61047  20613515.22549
 -10874811.71848  -8473871.88546         0.00041  23249380.54046  23249377.35648
 96 10 10 01 00 00.0000000  0  7 18 22 04 25 29 14 19
 -11319531.34149  -8820409.48346         0.00041  21668328.50046  21668325.53049
  -3284402.38549  -2559271.17446         0.00041  21187416.69646  21187414.76349
  -4573508.77148  -3563773.06944         0.00041  24424291.67744  24424291.67748
  14174931.37148  11045399.38844         0.00041  25268897.77744  25268900.99848
  -1486061.31549  -1157968.39147         0.00041  20732982.55447  20732981.09349
   1433676.18049   1117150.27747         0.00041  20623331.07347  20623328.41049
 -10952012.62148  -8534028.39846         0.00041  23234689.33546  23234686.25248
 96 10 10 01 00 30.0000000  0  7 18 22 04 25 29 14 19
 -11384189.37349  -8870792.35646         0.00041  21656024.41646  21656021.41249
  -3257701.62749  -2538465.38446         0.00041  21192497.33746  21192495.70949
  -4567518.99448  -3559105.71044         0.00041  24425431.54944  24425431.54948
  14265381.54948  11115880.14744         0.00041  25286112.37544  25286113.65448
  -1479080.93049  -1152529.13447         0.00041  20734310.83347  20734309.26849
   1485805.50449   1157770.51647         0.00041  20633250.87047  20633248.26149
 -11029022.70548  -8594036.21946         0.00041  23220034.57446  23220031.76848
 96 10 10 01 01 00.0000000  0  7 18 22 04 25 19 29 14
 -11448729.28549  -8921083.18546         0.00041  21643742.39746  21643740.32049
  -3230439.86749  -2517222.44446         0.00041  21197685.21846  21197683.47449
  -4561057.54848  -3554071.92646         0.00041  24426660.96246  24426660.54048
  14355762.68448  11186307.05744         0.00041  25303317.22344  25303313.25348
 -11105876.10048  -8653921.94146         0.00041  23205410.33446  23205407.54348
  -1471904.28149  -1146936.94247         0.00041  20735676.25447  20735675.02749
   1538463.51249   1198802.71847         0.00041  20643271.25347  20643268.89349
 96 10 10 01 01 30.0000000  0  7 18 22 04 25 29 14 19
 -11513139.24449  -8971272.75046         0.00041  21631485.86646  21631483.78049
  -3202623.02549  -2495546.98246         0.00041  21202978.71346  21202976.60249
  -4554117.50448  -3548672.62046         0.00041  24427982.05846  24427980.53448
  14446060.42848  11256668.96144         0.00041  25320499.61744  25320496.21848
  -1464533.72149  -1141193.65147         0.00041  20737079.11847  20737077.48249
   1591627.02449   1240228.81747         0.00041  20653388.28147  20653385.63249
 -11182566.63448  -8713680.76546         0.00041  23190816.53746  23190813.47348
 96 10 10 01 02 00.0000000  0  7 18 22 04 25 29 14 19
 -11577397.04549  -9021343.75046         0.00041  21619257.84146  21619255.50949
  -3174245.15249  -2473434.35046         0.00041  21208378.67546  21208376.90449
  -4546682.85548  -3542899.36347         0.00041  24429396.93547  24429395.65248
  14536278.33648  11326968.67344         0.00041  25337666.73344  25337663.50848
  -1456938.85749  -1135275.57847         0.00041  20738524.31047  20738523.04149
   1645310.70849   1282060.24547         0.00041  20663603.85647  20663601.04149
 -11259072.99148  -8773296.08346         0.00041  23176256.97646  23176253.90648
 96 10 10 01 02 30.0000000  0  7 18 22 04 25 19 29 14
 -11641406.53949  -9071221.26146         0.00041  21607077.73046  21607075.12149
  -3145185.47649  -2450790.44846         0.00041  21213908.59946  21213906.86449
  -4538662.32048  -3536636.78147         0.00041  24430923.24047  24430921.84648
  14626525.15148  11397290.88144         0.00041  25354840.49144  25354835.69648
 -11335273.75248  -8832673.26846         0.00041  23161756.69946  23161752.95048
  -1448994.89649  -1129085.47747         0.00041  20740036.06847  20740034.60749
   1699608.46549   1324370.17547         0.00041  20673936.16847  20673933.78549
 96 10 10 01 03 00.0000000  0  7 18 22 04 25 19 29 14
 -11705303.76649  -9121011.29046         0.00041  21594918.02246  21594915.57749
  -3115541.41449  -2427691.16746         0.00041  21219549.97246  21219547.77149
  -4530179.59648  -3530010.02046         0.00041  24432536.72446  24432535.50248
  14716681.32448  11467542.50244         0.00041  25371994.62144  25371991.34748
 -11411269.58748  -8891890.76146         0.00041  23147295.37546  23147290.78348
  -1440808.90549  -1122706.78947         0.00041  20741593.83947  20741592.38949
   1754382.28349   1367051.05947         0.00041  20684359.48147  20684356.81649
 96 10 10 01 03 30.0000000  0  7 18 22 04 25 19 29 14
 -11769117.86649  -9170736.54746         0.00041  21582774.70246  21582772.90249
  -3085343.21349  -2404160.09346         0.00041  21225295.79746  21225294.39249
  -4521260.21348  -3523051.61946         0.00041  24434233.63146  24434232.73548
  14806725.23048  11537706.64544         0.00041  25389127.52044  25389127.52048
 -11487069.83948  -8950955.85746         0.00041  23132871.54646  23132866.46648
  -1432389.37249  -1116146.11447         0.00041  20743195.63047  20743194.64849
   1809612.89049   1410087.87547         0.00041  20694869.57547  20694866.94849
 96 10 10 01 04 00.0000000  0  7 18 22 04 25 19 29 14
 -11832776.39049  -9220340.58146         0.00041  21570660.88846  21570659.04649
  -3054508.13549  -2380132.76046         0.00041  21231163.84046  21231162.14949
  -4511830.77548  -3515700.57846         0.00041  24436029.14446  24436027.48448
  14896738.26048  11607846.66144         0.00041  25406254.44344  25406256.43948
 -11562604.08948  -9009813.68246         0.00041  23118497.64346  23118492.91848
  -1423649.42049  -1109335.76447         0.00041  20744859.12347  20744857.76649
   1865384.87149   1453546.54847         0.00041  20705482.39547  20705479.99649
 96 10 10 01 04 30.0000000  0  7 18 22 04 25 19 29 14
 -11896269.34649  -9269815.60246         0.00041  21558578.30746  21558576.16749
  -3023018.89249  -2355595.68446         0.00041  21237156.08946  21237154.15749
  -4501889.27248  -3507954.92844         0.00041  24437919.91844  24437920.59948
  14986737.70148  11677976.22544         0.00041  25423381.25944  25423381.25948
 -11637874.95948  -9068466.27146         0.00041  23104173.92046  23104169.13248
  -1414603.96649  -1102287.36047         0.00041  20746580.49447  20746579.26349
   1921693.49249   1497423.38647         0.00041  20716197.68147  20716195.10149
 96 10 10 01 05 00.0000000  0  7 18 22 04 25 19 29 14
 -11959623.89149  -9319182.76846         0.00041  21546522.52546  21546520.60149
  -2990932.60649  -2330593.37946         0.00041  21243261.86346  21243260.05449
  -4491482.79848  -3499856.72644         0.00041  24439901.59444  24439901.59448
  15076680.52948  11748061.57144         0.00041  25440495.82644  25440495.82648
 -11712948.28348  -9126964.92946         0.00041  23089887.96746  23089883.53548
  -1405316.03249  -1095050.00947         0.00041  20748347.77447  20748346.54149
   1978503.29149   1541690.75147         0.00041  20727008.48947  20727005.73649
 96 10 10 01 05 30.0000000  0  7 18 22 04 25 19 29 14
 -12022789.61049  -9368402.79246         0.00041  21534502.43546  21534500.28449
  -2958214.69849  -2305098.90446         0.00041  21249487.85446  21249485.97849
  -4480577.73148  -3491359.27144         0.00041  24441975.98144  24441975.98148
  15166604.86448  11818132.52944         0.00041  25457607.89044  25457607.89048
 -11787797.07648  -9185288.62846         0.00041  23075644.13646  23075640.89848
  -1395757.46249  -1087601.77147         0.00041  20750166.54347  20750165.37849
   2035861.33649   1586385.31247         0.00041  20737923.29547  20737920.89349
 96 10 10 01 06 00.0000000  0  7 18 22 29 14 04 25 19
 -12085799.30949  -9417501.24846         0.00041  21522512.20046  21522509.88949
  -2924903.60449  -2279142.20146         0.00041  21255826.81646  21255825.08249
  -1385983.74549  -1079985.88847         0.00041  20752026.65047  20752025.11749
   2093725.08649   1631473.92747         0.00041  20748934.55547  20748931.62649
  -4469229.99248  -3482506.46644         0.00041  24444133.98844  24444133.61248
  15256471.12848  11888159.32144         0.00041  25474709.55644  25474709.55648
 -11862469.16348  -9243474.64046         0.00041  23061434.95146  23061431.85348
 96 10 10 01 06 30.0000000  0  8 18 22 29 14 04 25 28 19
 -12148618.63649  -9466451.36346         0.00041  21510558.13646  21510555.54349
  -2890973.95049  -2252703.50546         0.00041  21262283.19646  21262281.50349
  -1375962.39549  -1072177.04347         0.00041  20753933.62447  20753932.24349
   2152120.71049   1676976.99547         0.00041  20760046.54747  20760043.63749
  -4457407.45548  -3473304.51144         0.00041  24446384.15044  24446384.15048
  15346315.54848  11958167.95944         0.00041  25491806.42844  25491806.42848
        -0.50218        -0.26517  25375366.54718  25375367.77017         0.00011
 -11936919.06648  -9301487.52046         0.00041  23047267.19346  23047264.35248
 96 10 10 01 07 00.0000000  0  8 18 22 29 14 04 25 28 19
 -12211350.35649  -9515333.21246         0.00041  21498620.43346  21498618.03149
  -2856535.44049  -2225868.30646         0.00041  21268836.83946  21268835.02049
  -1365781.53149  -1064243.90547         0.00041  20755870.95547  20755869.63849
   2210943.29549   1722812.76547         0.00041  20771240.10047  20771237.50449
  -4445202.29348  -3463782.97644         0.00041  24448709.86744  24448708.23048
  15436018.87048  12028066.65244         0.00041  25508877.62544  25508877.62548
    -48547.89308    -37829.35707  25366127.12508  25366130.24407         0.00001
 -12011241.51448  -9359401.08346         0.00041  23033124.19546  23033121.14448
 96 10 10 01 07 30.0000000  0  8 18 22 29 14 04 25 28 19
 -12273971.98349  -9564129.27546         0.00041  21486704.02546  21486702.08349
  -2821559.38249  -2198614.23246         0.00041  21275492.74446  21275490.51749
  -1355403.51849  -1056157.14647         0.00041  20757845.60647  20757844.63749
   2270206.30749   1768991.72347         0.00041  20782517.53647  20782515.10249
  -4432573.80648  -3453942.65044         0.00041  24451110.01544  24451109.96748
  15525602.74948  12097871.28444         0.00041  25525924.87844  25525924.87848
    -96868.91808    -75482.04707  25356932.66208  25356935.35507         0.00001
 -12085407.54948  -9417192.76146         0.00041  23019011.06046  23019008.16448
 96 10 10 01 08 00.0000000  0  8 18 22 29 14 04 25 28 19
 -12336488.51549  -9612843.44746         0.00041  21474807.29146  21474805.12449
  -2786056.17949  -2170949.39346         0.00041  21282248.56446  21282246.74049
  -1344822.68949  -1047912.34447         0.00041  20759859.15047  20759858.04049
   2329898.40249   1815505.03047         0.00041  20793876.69347  20793874.28049
  -4419517.47148  -3443768.88345         0.00041  24453596.43145  24453592.95548
  15615051.05148  12167572.24844         0.00041  25542945.61944  25542945.61948
   -144964.45408   -112959.09107  25347780.33508  25347782.27907         0.00001
 -12159426.48448  -9474869.82746         0.00041  23004925.36946  23004922.87048
 96 10 10 01 08 30.0000000  0  7 18 22 04 28 19 29 14
 -12398877.99949  -9661458.61846         0.00041  21462934.85246  21462932.67649
  -2749989.96849  -2142845.85546         0.00041  21289111.81646  21289109.96149
  -4405982.34448  -3433221.96145         0.00041  24456171.36645  24456168.69348
   -192805.71908   -150237.98507  25338676.50108  25338678.25407         0.00001
 -12233273.56348  -9532412.97346         0.00041  22990873.41146  22990869.96948
  -1334003.56949  -1039481.86647         0.00041  20761918.04947  20761916.98749
   2390053.40449   1862379.04147         0.00041  20805323.80847  20805321.07249
 96 10 10 01 09 00.0000000  0  7 18 22 04 28 19 29 14
 -12461127.23949  -9709964.51446         0.00041  21451089.54046  21451087.08749
  -2713341.66849  -2114288.73846         0.00041  21296085.68546  21296083.84049
  -4391963.84048  -3422298.38945         0.00041  24458839.21245  24458837.66448
   -240379.65208   -187308.54707  25329623.79708  25329625.21707         0.00001
 -12306944.24348  -9589818.65346         0.00041  22976853.23146  22976849.49448
  -1322935.20649  -1030857.17047         0.00041  20764024.24047  20764023.22049
   2450686.99549   1909625.97547         0.00041  20816862.12947  20816859.23549
 96 10 10 01 09 30.0000000  0  7 18 22 29 14 04 28 19
 -12523230.59549  -9758356.73146         0.00041  21439271.72746  21439269.29149
  -2676117.86349  -2085283.17946         0.00041  21303169.19446  21303167.25749
  -1311611.47449  -1022033.48547         0.00041  20766179.20847  20766177.93749
   2511799.87449   1957246.38047         0.00041  20828491.51647  20828488.87849
  -4377479.33848  -3411011.77645         0.00041  24461597.98545  24461595.70448
   -287684.16208   -224169.16507  25320621.52608  25320623.78007         0.00001
 -12380428.45348  -9647079.04446         0.00041  22962869.60146  22962866.15048
 96 10 10 01 10 00.0000000  0  8 18 29 22 14 04 03 28 19
 -12585074.46049  -9806546.74446         0.00041  21427503.18446  21427500.64449
  -1299911.15949  -1012916.36147         0.00041  20768405.79447  20768404.57649
  -2638208.03349  -2055743.04846         0.00041  21310383.03746  21310381.19349
   2573512.69649   2005334.27647         0.00041  20840235.18447  20840232.51049
  -4362435.76648  -3399289.48945         0.00041  24464460.65445  24464458.17148
        -0.71558        -0.25054         0.00051  25375430.40254  25375425.59858
   -334603.38608   -260729.56607  25311691.78908  25311695.49807         0.00001
 -12453590.12948  -9704088.11046         0.00041  22948947.28046  22948943.85948
 96 10 10 01 10 30.0000000  0  8 18 29 22 14 04 03 28 19
 -12646664.47149  -9854538.95346         0.00041  21415782.67646  21415780.48049
  -1287842.98149  -1003512.58747         0.00041  20770702.33747  20770700.97449
  -2599624.89449  -2025678.25846         0.00041  21317725.31546  21317723.46649
   2635816.72049   2053882.85147         0.00041  20852091.08547  20852088.43149
  -4346856.68648  -3387149.92845         0.00041  24467425.67045  24467422.51548
    -70235.62148    -54728.70744         0.00041  25362067.21344  25362060.20348
   -381142.10108   -296993.44307  25302836.29208  25302839.49607         0.00001
 -12526432.62848  -9760848.45946         0.00041  22935086.40146  22935082.60548
 96 10 10 01 11 00.0000000  0  8 18 29 22 14 04 03 28 19
 -12708055.39849  -9902376.03146         0.00041  21404100.57246  21404098.56949
  -1275468.32649   -993870.00147         0.00041  20773056.89447  20773055.74149
  -2560456.19849  -1995157.19746         0.00041  21325178.79846  21325177.09249
   2698627.05249   2102825.95147         0.00041  20864043.52247  20864040.79349
  -4330833.68848  -3374664.49345         0.00041  24470472.08845  24470469.59148
   -140473.04248   -109459.14344         0.00041  25348701.27744  25348694.55748
   -427361.37808   -333008.42407  25294042.08608  25294043.19907         0.00001
 -12599019.65148  -9817409.73846         0.00041  22921273.59246  22921270.00548
 96 10 10 01 11 30.0000000  0  8 18 29 22 14 04 03 28 19
 -12769240.75749  -9950052.92546         0.00041  21392457.50546  21392455.35849
  -1262781.26949   -983983.98847         0.00041  20775471.22347  20775469.91049
  -2520718.16249  -1964192.48546         0.00041  21332741.00546  21332738.79149
   2761946.93649   2152166.10347         0.00041  20876092.86847  20876090.19649
  -4314363.70348  -3361830.75145         0.00041  24473606.03345  24473603.32148
   -210674.95648   -164161.90744         0.00041  25335339.90644  25335335.96448
   -473252.29808   -368767.55707  25285309.72108  25285310.48607         0.00001
 -12671349.03048  -9873770.25446         0.00041  22907509.40746  22907505.83948
 96 10 10 01 12 00.0000000  0  8 18 22 29 14 04 03 28 19
 -12830276.01149  -9997612.85646         0.00041  21380842.80646  21380840.46249
  -2480458.93149  -1932821.65646         0.00041  21340401.78546  21340400.00249
  -1249848.81249   -973906.75247         0.00041  20777932.17147  20777931.06749
   2825725.70449   2201863.82447         0.00041  20888229.73947  20888226.86649
  -4297495.08448  -3348686.37544         0.00041  24476817.43944  24476813.98548
   -280898.70248   -218881.67744         0.00041  25321977.32644  25321972.85948
   -518867.59108   -404311.92807  25276628.88108  25276630.23207         0.00001
 -12743492.15248  -9929985.63946         0.00041  22893780.13246  22893776.95848
 96 10 10 01 12 30.0000000  0  8 18 29 22 14 04 03 28 19
 -12891209.92149 -10045093.81946         0.00041  21369247.51746  21369245.18649
  -1236730.72749   -963684.86847         0.00041  20780428.31147  20780427.08449
  -2439727.51549  -1901082.89246         0.00041  21348152.83846  21348150.74949
   2889909.49149   2251877.14447         0.00041  20900443.57647  20900440.87149
  -4280267.02148  -3335261.95444         0.00041  24480097.30844  24480093.53548
   -351195.07548   -273658.07644         0.00041  25308601.70244  25308596.05848
   -564260.82108   -439683.22608  25267990.02508  25267992.76608         0.00001
 -12815517.24548  -9986109.05546         0.00041  22880074.88546  22880071.72948
 96 10 10 01 13 00.0000000  0  8 18 29 22 14 04 03 28 19
 -12951987.01249 -10092452.58346         0.00041  21357682.41646  21357680.12149
  -1223365.38249   -953270.31847         0.00041  20782971.61447  20782970.62149
  -2398462.40449  -1868928.25646         0.00041  21356005.34646  21356003.35549
   2954561.64549   2302255.42947         0.00041  20912746.32147  20912743.83449
  -4262614.76048  -3321506.96344         0.00041  24483455.97344  24483452.89648
   -421501.18048   -328442.02144         0.00041  25295220.76244  25295216.36048
   -609368.57108   -474832.07208  25259406.27408  25259409.06908         0.00001
 -12887356.72348 -10042087.83346         0.00041  22866404.40546  22866401.03748
 96 10 10 01 13 30.0000000  0  8 18 22 29 14 04 03 28 19
 -13012592.58949 -10139677.70146         0.00041  21346149.29546  21346147.09949
  -2356623.13849  -1836326.22746         0.00041  21363966.52946  21363965.15549
  -1209728.25449   -942643.98647         0.00041  20785566.77947  20785565.74149
   3019721.92249   2353029.65447         0.00041  20925145.91047  20925143.35149
  -4244491.17648  -3307384.70944         0.00041  24486907.69244  24486901.47448
   -491797.73848   -383218.49844         0.00041  25281842.47844  25281839.79048
   -654165.26008   -509738.55207  25250882.41608  25250884.39907         0.00001
 -12958989.36148 -10097905.44246         0.00041  22852773.17446  22852770.03748
 96 10 10 01 14 00.0000000  0  8 18 22 29 14 04 03 28 19
 -13072959.31349 -10186716.70246         0.00041  21334661.68446  21334659.67649
  -2314119.08449  -1803206.18346         0.00041  21372055.45246  21372053.29949
  -1195742.61349   -931746.08147         0.00041  20788228.20047  20788226.91949
   3085473.08949   2404264.31347         0.00041  20937657.68047  20937655.04749
  -4225802.26148  -3292821.95544         0.00041  24490458.01244  24490457.41748
   -562026.14348   -437941.88044         0.00041  25268481.42844  25268475.76548
   -698570.15808   -544339.73607  25242432.56008  25242433.97707         0.00001
 -13030328.84948 -10153494.62246         0.00041  22839198.15246  22839195.03448
 96 10 10 01 14 30.0000000  0  8 18 29 22 14 04 03 28 19
 -13133159.81149 -10233626.16746         0.00041  21323205.82146  21323203.88649
  -1181468.87849   -920623.69647         0.00041  20790944.52947  20790943.26649
  -2271034.47449  -1769633.74846         0.00041  21380254.24546  21380251.98749
   3151735.79749   2455897.57447         0.00041  20950267.17447  20950264.62849
  -4206619.55548  -3277874.42444         0.00041  24494111.55444  24494107.78548
   -632263.76448   -492672.44744         0.00041  25255115.36044  25255109.81048
   -742649.30708   -578687.09407  25234043.45208  25234046.43307         0.00001
 -13101430.83548 -10208898.74446         0.00041  22825667.86746  22825664.75548
 96 10 10 01 15 00.0000000  0  8 18 22 29 14 04 03 28 19
 -13193226.68149 -10280431.50746         0.00041  21311775.63346  21311773.47549
  -2227407.33749  -1735638.57846         0.00041  21388555.61646  21388554.03749
  -1166932.57849   -909296.71247         0.00041  20793710.62247  20793709.25649
   3218467.56249   2507896.33347         0.00041  20962966.35547  20962963.47149
  -4186974.78948  -3262566.81144         0.00041  24497852.10344  24497846.67348
   -702556.16548   -547445.70144         0.00041  25241736.75944  25241734.32248
   -786427.94608   -612800.26707  25225713.19208  25225715.19607         0.00001
 -13172324.73148 -10264140.70346         0.00041  22812177.11846  22812174.07948
 96 10 10 01 15 30.0000000  0  8 18 22 29 14 04 03 28 19
 -13253146.12849 -10327121.96746         0.00041  21300373.15146  21300371.00949
  -2183242.29749  -1701224.26546         0.00041  21396960.09546  21396958.43949
  -1152144.17949   -897773.28647         0.00041  20796524.69947  20796523.56749
   3285658.57949   2560252.94747         0.00041  20975752.38247  20975749.46249
  -4166865.19948  -3246897.02644         0.00041  24501675.48244  24501673.53048
   -772899.53948   -602258.65044         0.00041  25228351.55744  25228348.33548
   -829903.35808   -646677.18107  25217440.59008  25217442.51407         0.00001
 -13243005.54448 -10319216.62746         0.00041  22798726.83746  22798724.23148
 96 10 10 01 16 00.0000000  0  8 18 29 22 14 04 03 28 19
 -13312926.36449 -10373703.95546         0.00041  21288997.54446  21288995.22149
  -1137126.71149   -886071.36647         0.00041  20799382.49347  20799381.12249
  -2138569.09549  -1666413.97146         0.00041  21405461.51946  21405459.36649
   3353276.99949   2612942.60447         0.00041  20988619.48147  20988616.80249
  -4146329.93048  -3230895.53944         0.00041  24505581.90444  24505580.09948
   -843313.25548   -657126.31044         0.00041  25214951.00144  25214948.91748
   -873090.15208   -680329.20207  25209221.54708  25209223.71407         0.00001
 -13313482.76548 -10374133.90646         0.00041  22785315.82446  22785312.55248
 96 10 10 01 16 30.0000000  0  7 18 29 22 14 04 03 19
 -13372506.23749 -10420129.82146         0.00041  21277659.66546  21277657.74449
  -1121832.11349   -874153.50347         0.00041  20802293.00647  20802291.76449
  -2093339.39749  -1631170.04446         0.00041  21414068.08046  21414066.19149
   3421351.04149   2665987.29947         0.00041  21001573.40447  21001570.77949
  -4125345.80248  -3214544.27144         0.00041  24509575.02144  24509573.39748
   -913729.84448   -711996.55244         0.00041  25201551.73544  25201548.87148
 -13383723.89048 -10428867.23046         0.00041  22771949.18046  22771945.87948
 96 10 10 01 17 00.0000000  0  7 18 22 29 14 04 03 19
 -13431891.81749 -10466404.28946         0.00041  21266358.79946  21266356.88949
  -2047549.81849  -1595489.85346         0.00041  21422781.44646  21422779.71349
  -1106277.66149   -862033.15347         0.00041  20805252.66247  20805251.72549
   3489863.08249   2719373.28747         0.00041  21014610.66547  21014608.09849
  -4103926.20448  -3197853.70444         0.00041  24513653.36744  24513649.30148
   -984132.68548   -766855.88244         0.00041  25188153.39744  25188151.03348
 -13453760.71448 -10483441.34846         0.00041  22758621.01046  22758618.18648
 96 10 10 01 17 30.0000000  0  7 18 29 22 14 04 03 19
 -13491028.78249 -10512485.03046         0.00041  21255105.36746  21255103.02749
  -1090420.87249   -849677.21647         0.00041  20808270.24047  20808268.99449
  -2001154.70449  -1559337.80946         0.00041  21431610.25046  21431608.36849
   3558859.46349   2773136.68347         0.00041  21027740.55847  21027737.76349
  -4082047.75648  -3180805.57044         0.00041  24517816.43044  24517813.04948
  -1054456.06548   -821653.26044         0.00041  25174771.54444  25174769.19348
 -13523556.41348 -10537827.56946         0.00041  22745339.44346  22745336.16848
 96 10 10 01 18 00.0000000  0  8 18 29 22 14 04 03 16 19
 -13549873.45449 -10558338.02146         0.00041  21243907.53746  21243905.74849
  -1074192.61049   -837031.81947         0.00041  20811358.52647  20811357.42649
  -1954096.67549  -1522669.21546         0.00041  21440565.32546  21440563.35049
   3628393.09249   2827318.71447         0.00041  21040972.35847  21040969.72349
  -4059668.86348  -3163367.49844         0.00041  24522074.42144  24522071.23748
  -1124644.34148   -876345.38244         0.00041  25161418.16644  25161412.91648
        -0.50058        -0.07754         0.00051  25299107.54554  25299101.36158
 -13593085.37548 -10592005.94746         0.00041  22732108.40646  22732105.24348
 96 10 10 01 18 30.0000000  0  8 18 29 22 14 04 03 16 19
 -13608557.79549 -10604066.07446         0.00041  21232740.34546  21232738.25849
  -1057727.85949   -824202.15147         0.00041  20814491.57447  20814490.41849
  -1906500.34649  -1485581.17046         0.00041  21449622.54546  21449620.33549
   3698320.33349   2881807.45747         0.00041  21054279.18847  21054276.59949
  -4036914.79948  -3145637.07144         0.00041  24526404.38844  24526401.55148
  -1194827.76748   -931033.71144         0.00041  25148060.42944  25148057.58548
   -103560.23248    -80695.93244         0.00041  25279395.32444  25279393.52648
 -13662483.40948 -10646082.30646         0.00041  22718902.63646  22718898.85248
 96 10 10 01 19 00.0000000  0  8 18 29 22 14 04 03 16 19
 -13667115.43149 -10649695.39646         0.00041  21221597.34746  21221595.15049
  -1041060.69649   -811214.75047         0.00041  20817663.21647  20817662.11549
  -1858411.31749  -1448109.18346         0.00041  21458773.60746  21458771.49749
   3768618.46349   2936585.20047         0.00041  21067656.46647  21067653.46049
  -4013806.94148  -3127630.95444         0.00041  24530803.45644  24530800.17348
  -1265055.51948   -985756.55944         0.00041  25134695.74044  25134693.69948
   -207109.32948   -161383.51344         0.00041  25259693.54144  25259689.69448
 -13731766.90848 -10700069.41846         0.00041  22705717.67946  22705714.48448
 96 10 10 01 19 30.0000000  0  8 18 29 22 14 04 03 16 19
 -13725442.64849 -10695145.16846         0.00041  21210498.19346  21210496.05149
  -1024067.89949   -797973.61147         0.00041  20820896.84447  20820895.60649
  -1809736.52049  -1410180.77646         0.00041  21468035.93746  21468034.29049
   3839419.44649   2991754.77847         0.00041  21081129.54447  21081126.51949
  -3990236.71448  -3109264.57344         0.00041  24535287.02144  24535285.15748
  -1335219.23048  -1040429.54544         0.00041  25121345.71144  25121341.65948
   -310534.63248   -241974.65344         0.00041  25240012.53044  25240009.36748
 -13800792.91148 -10753855.88646         0.00041  22692582.33646  22692578.88048
 96 10 10 01 20 00.0000000  0  8 18 29 22 14 04 03 16 19
 -13783577.43949 -10740444.99546         0.00041  21199435.42746  21199433.51349
  -1006776.46149   -784499.77047         0.00041  20824187.46147  20824186.31949
  -1760500.62149  -1371815.14246         0.00041  21477405.35946  21477403.53849
   3910699.48149   3047297.64147         0.00041  21094693.57947  21094690.51049
  -3966214.14348  -3090545.71845         0.00041  24539856.52145  24539855.16848
  -1405358.09048  -1095083.16444         0.00041  25107997.03044  25107994.35348
   -413835.90848   -322469.15544         0.00041  25220353.93144  25220350.61148
 -13869565.16048 -10807444.63246         0.00041  22679495.46446  22679492.21748
 96 10 10 01 20 30.0000000  0  8 18 29 22 14 04 03 16 19
 -13841562.49649 -10785628.15446         0.00041  21188401.16646  21188398.96349
   -989237.64649   -770833.16647         0.00041  20827524.52747  20827523.65149
  -1710755.55049  -1333052.73446         0.00041  21486871.51446  21486869.13349
   3982418.08949   3103182.25147         0.00041  21108341.06547  21108338.32949
  -3941783.13748  -3071508.52644         0.00041  24544506.88744  24544503.20348
  -1475504.38748  -1149742.55644         0.00041  25094649.44344  25094647.06248
   -517026.56448   -402877.38244         0.00041  25200715.81944  25200712.62548
 -13938100.28848 -10860848.59746         0.00041  22666454.71846  22666451.25248
 96 10 10 01 21 00.0000000  0  8 18 29 22 14 04 03 16 19
 -13899414.01049 -10830707.24946         0.00041  21177392.44446  21177390.78549
   -971442.94549   -756967.16947         0.00041  20830911.08047  20830910.11449
  -1660525.72349  -1293912.60846         0.00041  21496429.71646  21496427.72749
   4054598.09449   3159426.39347         0.00041  21122076.49247  21122073.91849
  -3916967.55048  -3052171.72145         0.00041  24549230.40645  24549226.55848
  -1545657.06248  -1204406.95044         0.00041  25081299.85044  25081297.11148
   -620103.87048   -483197.36444         0.00041  25181101.71544  25181099.18848
 -14006413.29248 -10914079.47846         0.00041  22653454.84346  22653451.65248
 96 10 10 01 21 30.0000000  0  8 18 29 22 14 04 03 16 19
 -13957126.80449 -10875678.24846         0.00041  21166410.21046  21166407.97749
   -953382.87349   -742894.38847         0.00041  20834347.84247  20834346.86949
  -1609792.94849  -1254380.57646         0.00041  21506084.01246  21506082.33149
   4127239.42549   3216030.01547         0.00041  21135900.03447  21135897.13149
  -3891760.93748  -3032530.23344         0.00041  24554027.19844  24554024.37548
  -1615794.70048  -1259059.60644         0.00041  25067951.92644  25067949.68648
   -723043.73348   -563410.27644         0.00041  25161515.02044  25161512.05248
 -14074514.30748 -10967145.18546         0.00041  22640495.11846  22640491.95048
 96 10 10 01 22 00.0000000  0  8 18 29 22 14 04 03 16 19
 -14014685.16749 -10920528.91247         0.00041  21155457.47247  21155454.97049
   -935068.88749   -728623.75247         0.00041  20837832.54247  20837831.70649
  -1558545.80149  -1214447.72946         0.00041  21515835.80346  21515834.06249
   4200312.38649   3272969.96647         0.00041  21149805.11847  21149801.96049
  -3866157.36448  -3012579.41344         0.00041  24558899.70644  24558897.26948
  -1685928.84448  -1313709.57044         0.00041  25054605.26544  25054604.25648
   -825854.02348   -643522.15744         0.00041  25141952.18944  25141947.78848
 -14142436.82548 -11020071.79246         0.00041  22627570.53946  22627567.40148
 96 10 10 01 22 30.0000000  0  8 18 29 22 14 04 03 16 19
 -14072062.93849 -10965238.85347         0.00041  21144538.66147  21144536.13349
   -916489.34049   -714146.18547         0.00041  20841368.48647  20841367.39749
  -1506784.04749  -1174113.89446         0.00041  21525686.00146  21525683.80049
   4273826.75649   3330253.86647         0.00041  21163794.28347  21163791.48349
  -3840141.32148  -2992307.18345         0.00041  24563850.16545  24563846.74048
  -1756032.36148  -1368335.61744         0.00041  25041266.67044  25041263.64048
   -928533.91048   -723532.44944         0.00041  25122411.15044  25122407.47548
 -14210191.04748 -11072867.26546         0.00041  22614676.68146  22614674.90248
 96 10 10 01 23 00.0000000  0  8 18 29 22 14 04 03 16 19
 -14129218.80049 -11009775.87946         0.00041  21133662.04146  21133660.04549
   -897613.95149   -699438.09447         0.00041  20844960.32847  20844959.06349
  -1454476.06849  -1133354.42046         0.00041  21535639.99746  21535637.71849
   4347797.87349   3387893.67747         0.00041  21177870.49747  21177868.22549
  -3813667.83448  -2971678.48945         0.00041  24568886.28845  24568882.65448
  -1826080.31948  -1422918.41944         0.00041  25027936.37444  25027933.67748
  -1031068.24648   -803429.29944         0.00041  25102901.41744  25102895.62348
 -14277753.81448 -11125513.55246         0.00041  22601820.29246  22601817.85348
 96 10 10 01 23 30.0000000  0  8 18 29 22 14 04 03 16 19
 -14186104.83349 -11054102.65047         0.00041  21122836.80547  21122834.73449
   -878429.10549   -684488.86547         0.00041  20848610.92047  20848609.83849
  -1401578.64849  -1092135.64146         0.00041  21545705.86246  21545703.87949
   4422211.21049   3445878.08147         0.00041  21192030.92947  21192028.50549
  -3786693.78448  -2950659.75444         0.00041  24574020.01844  24574016.65848
  -1896040.90848  -1477433.09044         0.00041  25014623.56944  25014621.36848
  -1133427.76548   -883189.93544         0.00041  25083421.16344  25083417.32748
 -14345084.25148 -11177978.80346         0.00041  22589007.68046  22589004.65948
 96 10 10 01 24 00.0000000  0  8 18 29 22 14 04 03 16 19
 -14242723.59849 -11098221.16247         0.00041  21112062.91047  21112060.55549
   -858949.49449   -669309.95047         0.00041  20852318.02747  20852316.90049
  -1348112.61149  -1050473.79646         0.00041  21555879.60446  21555878.30849
   4497065.12749   3504205.79447         0.00041  21206275.52247  21206272.55549
  -3759244.24048  -2929270.53044         0.00041  24579243.64744  24579240.53048
  -1965920.99148  -1531885.04544         0.00041  25001325.85344  25001322.67348
  -1235633.84348   -962831.02644         0.00041  25063970.98044  25063968.12048
 -14412165.52448 -11230249.90646         0.00041  22576242.74746  22576239.57848
 96 10 10 01 24 30.0000000  0  8 18 29 22 14 04 03 16 19
 -14299111.20149 -11142159.54647         0.00041  21101332.52747  21101330.68349
   -839197.34849   -653918.67547         0.00041  20856076.34047  20856075.63349
  -1294114.86549  -1008397.63046         0.00041  21566155.50146  21566153.49349
   4572340.21849   3562861.69347         0.00041  21220599.93947  21220596.89749
  -3731365.06448  -2907546.52744         0.00041  24584548.90444  24584546.81148
  -2035729.07748  -1586280.85844         0.00041  24988041.24844  24988038.34248
  -1337709.40548  -1042370.41944         0.00041  25044547.47544  25044543.58748
 -14478998.58948 -11282327.58846         0.00041  22563524.79446  22563521.62148
 96 10 10 01 25 00.0000000  0  8 18 29 22 14 04 03 16 19
 -14355291.97549 -11185936.76247         0.00041  21090642.03747  21090640.26349
   -819189.98849   -638328.52347         0.00041  20859883.43947  20859883.00549
  -1239594.73849   -965914.40746         0.00041  21576530.39946  21576528.39449
   4648017.89549   3621831.28947         0.00041  21235000.99447  21234998.05149
  -3703099.86248  -2885521.69344         0.00041  24589929.47544  24589926.41948
  -2105484.73748  -1640635.93544         0.00041  24974765.75644  24974763.85148
  -1439668.72348  -1121819.21745         0.00041  25025147.26045  25025141.65648
 -14545595.41848 -11334221.18846         0.00041  22550851.58846  22550848.85248
 96 10 10 01 25 30.0000000  0  8 18 29 22 14 04 03 16 19
 -14411289.58249 -11229571.25447         0.00041  21079985.88147  21079983.91449
   -798930.01049   -622541.53347         0.00041  20863739.13747  20863738.19649
  -1184557.64649   -923028.35346         0.00041  21587003.50646  21587001.69149
   4724115.82049   3681128.35247         0.00041  21249481.97747  21249479.15549
  -3674475.92848  -2863217.34545         0.00041  24595376.25645  24595372.81248
  -2175187.76348  -1694949.86344         0.00041  24961502.39344  24961500.78248
  -1541503.48548  -1201170.94845         0.00041  25005765.72945  25005764.00548
 -14611967.44448 -11385939.61646         0.00041  22538221.53846  22538218.35448
 96 10 10 01 26 00.0000000  0  8 18 29 22 14 04 03 16 19
 -14467103.44649 -11273062.56647         0.00041  21069364.67747  21069362.63849
   -778378.72349   -606527.55047         0.00041  20867649.99647  20867649.05849
  -1128996.95049   -879734.30846         0.00041  21597576.43746  21597574.74549
   4800683.08549   3740791.12747         0.00041  21264052.19147  21264049.43949
  -3645476.76048  -2840620.60544         0.00041  24600893.43644  24600890.21848
  -2244812.24848  -1749202.67044         0.00041  24948254.05944  24948252.37948
  -1643187.48348  -1280405.23045         0.00041  24986417.34645  24986414.21048
 -14678093.93948 -11437466.73146         0.00041  22525637.58646  22525634.40148
 96 10 10 01 26 30.0000000  0  8 18 29 22 14 04 03 16 19
 -14522751.06049 -11316424.33647         0.00041  21058775.35947  21058773.48149
   -757532.46649   -590283.71447         0.00041  20871616.82247  20871615.95749
  -1072924.11249   -836041.18246         0.00041  21608246.70946  21608245.24249
   4877700.98649   3800805.05447         0.00041  21278708.25047  21278705.54749
  -3616101.15448  -2817730.54244         0.00041  24606479.59644  24606478.48248
  -2314374.68348  -1803407.12344         0.00041  24935017.56744  24935015.07448
  -1744725.97648  -1359526.11245         0.00041  24967093.86445  24967091.38848
 -14744009.34948 -11488829.35946         0.00041  22513094.37646  22513091.20448
 96 10 10 01 27 00.0000000  0  8 18 29 22 14 04 03 16 19
 -14578228.82349 -11359653.75647         0.00041  21048218.38447  21048216.31249
   -736385.85249   -573805.83847         0.00041  20875640.97047  20875640.30349
  -1016342.05749   -791951.27146         0.00041  21619013.56946  21619012.02849
   4955181.34449   3861179.34347         0.00041  21293452.01747  21293449.35449
  -3586328.13348  -2794530.79544         0.00041  24612146.32844  24612145.34848
  -2383880.14448  -1857567.19244         0.00041  24921791.35444  24921788.58148
  -1846109.30848  -1438526.09445         0.00041  24947802.20145  24947799.00048
 -14809723.95448 -11540035.51346         0.00041  22500589.27746  22500586.31948
 96 10 10 01 27 30.0000000  0  8 18 29 22 14 04 03 16 19
 -14633517.89349 -11402736.13247         0.00041  21037697.01147  21037695.13749
   -714923.96149   -557082.28647         0.00041  20879725.00247  20879724.23549
   -959249.41149   -747463.48746         0.00041  21629878.34846  21629876.31849
   5033127.73549   3921916.77847         0.00041  21308284.71747  21308282.14049
  -3556117.06948  -2770989.74744         0.00041  24617897.72344  24617895.56248
  -2453321.40848  -1911677.22944         0.00041  24908576.86544  24908573.77648
  -1947332.53748  -1517401.31345         0.00041  24928539.26445  24928536.74148
 -14875219.30248 -11591070.82746         0.00041  22488126.13446  22488123.08548
 96 10 10 01 28 00.0000000  0  8 18 29 22 14 04 03 16 19
 -14688590.23749 -11445649.63047         0.00041  21027217.25447  21027215.54149
   -693146.98149   -540113.21447         0.00041  20883868.96447  20883868.17849
   -901653.83949   -702583.81646         0.00041  21640838.42146  21640836.68249
   5111518.31849   3983000.33147         0.00041  21323201.94247  21323199.61049
  -3525457.74248  -2747099.35844         0.00041  24623733.21444  24623729.25048
  -2522701.41948  -1965739.53344         0.00041  24895373.01344  24895371.21448
  -2048405.15248  -1596159.17245         0.00041  24909305.52645  24909302.21048
 -14940489.06048 -11641930.34746         0.00041  22475706.06546  22475702.87848
 96 10 10 01 28 30.0000000  0  8 18 29 22 14 04 03 16 19
 -14743402.38049 -11488360.38747         0.00041  21016786.49447  21016784.85349
   -671054.24349   -522898.09747         0.00041  20888073.23147  20888072.56549
   -843540.04149   -657300.33646         0.00041  21651897.03646  21651895.41549
   5190359.28049   4044434.83147         0.00041  21338204.69847  21338202.44849
  -3494338.03648  -2722850.27344         0.00041  24629653.62444  24629650.18448
  -2592003.39948  -2019741.00344         0.00041  24882187.96044  24882183.95548
  -2149312.34248  -1674788.14645         0.00041  24890103.09345  24890100.00148
 -15005522.07848 -11692605.39646         0.00041  22463330.48246  22463327.40348
 96 10 10 01 29 00.0000000  0  8 18 29 22 14 04 03 16 19
 -14797945.40449 -11530861.43647         0.00041  21006407.20447  21006405.68149
   -648660.63949   -505448.53747         0.00041  20892334.73047  20892333.79249
   -784916.34549   -611619.53546         0.00041  21663053.13346  21663051.43849
   5269636.12349   4106208.97847         0.00041  21353291.01347  21353288.24349
  -3462772.59848  -2698253.81344         0.00041  24635661.27044  24635658.33148
  -2661216.68948  -2073673.37744         0.00041  24869016.12944  24869012.72148
  -2250055.29148  -1753289.11045         0.00041  24870933.99345  24870929.80548
 -15070310.97548 -11743090.22646         0.00041  22451000.87046  22450998.31048
 96 10 10 01 29 30.0000000  0  8 18 29 22 14 04 03 16 19
 -14852205.09749 -11573141.70847         0.00041  20996082.17347  20996080.13149
   -625956.54449   -487757.03947         0.00041  20896654.82147  20896653.89949
   -725767.95349   -565529.87546         0.00041  21674307.98246  21674306.40649
   5349335.71349   4168312.53646         0.00041  21368457.12446  21368454.37349
  -3430772.95848  -2673319.07044         0.00041  24641749.94944  24641747.47348
  -2730325.55148  -2127524.40044         0.00041  24855864.57944  24855860.78848
  -2350618.64848  -1831650.15145         0.00041  24851796.33545  24851793.23848
 -15134843.77348 -11793375.49046         0.00041  22438721.29946  22438718.58948
 96 10 10 01 30 00.0000000  0  7 22 14 19 18 29 03 16
   -666117.58349   -519049.07346         0.00041  21685659.26846  21685657.70849
   5429433.81749   4230726.62647         0.00041  21383699.24047  21383696.90449
 -15199143.93548 -11843479.48346         0.00041  22426485.35946  22426482.50048
 -14906199.04149 -11615214.90847         0.00041  20985807.78447  20985805.76149
   -602963.86149   -469840.66347         0.00041  20901030.46847  20901029.53049
  -2799332.85548  -2181296.28044         0.00041  24842732.44744  24842729.64148
  -2451004.37348  -1909872.76545         0.00041  24832693.76645  24832689.75448
 96 10 10 01 30 30.0000000  0  8 22 14 19 18 29 27 03 16
   -605978.12549   -472187.14746         0.00041  21697103.62546  21697101.62749
   5509919.28149   4293442.55147         0.00041  21399015.31947  21399012.94149
 -15263228.67848 -11893415.61746         0.00041  22414290.45846  22414287.61748
 -14959965.02249 -11657110.47347         0.00041  20975576.17047  20975574.23849
   -579688.53449   -451704.04847         0.00041  20905459.88647  20905458.47449
        -0.18657        -0.14554         0.00051  25647142.74654  25647142.74657
  -2868237.89048  -2234988.50544         0.00041  24829618.63144  24829618.08048
  -2551209.74348  -1987954.84145         0.00041  24813624.69245  24813621.39048
 96 10 10 01 31 00.0000000  0  8 22 14 19 18 29 27 03 16
   -545307.50249   -424911.33946         0.00041  21708648.59546  21708647.05349
   5590825.56349   4356486.38547         0.00041  21414411.65747  21414408.67549
 -15327063.75948 -11943157.20646         0.00041  22402142.64246  22402140.24648
 -15013484.11649 -11698813.65347         0.00041  20965392.02747  20965389.89349
   -556073.90649   -433303.04347         0.00041  20909953.10447  20909952.22649
    -82705.12147    -64445.54944         0.00041  25631405.99444  25631405.99447
  -2937002.01748  -2288570.91144         0.00041  24816534.10844  24816532.36248
  -2651185.98348  -2065858.37245         0.00041  24794602.68445  24794597.75748
 96 10 10 01 31 30.0000000  0  8 22 14 19 18 29 27 03 16
   -484137.67349   -377246.54146         0.00041  21720289.18846  21720287.55949
   5672123.25649   4419835.21647         0.00041  21429881.96247  21429879.29249
 -15390699.42348 -11992743.40446         0.00041  22390033.26946  22390030.69648
 -15066803.30249 -11740361.06547         0.00041  20955245.53247  20955243.47949
   -532143.18949   -414655.73147         0.00041  20914507.14647  20914506.26249
   -165309.81047   -128812.83944         0.00041  25615679.76144  25615679.76147
  -3005664.85848  -2342074.41944         0.00041  24803467.64144  24803466.24948
  -2750971.00248  -2143612.92445         0.00041  24775611.85745  24775608.63348
 96 10 10 01 32 00.0000000  0  7 22 14 19 18 29 03 16
   -422505.69449   -329221.61146         0.00041  21732017.33046  21732015.24849
   5753792.95249   4483473.92847         0.00041  21445422.80747  21445420.60449
 -15454166.29848 -12042198.08246         0.00041  22377955.91146  22377952.93148
 -15119960.92249 -11781782.58447         0.00041  20945129.98447  20945128.26049
   -507913.22849   -395775.24647         0.00041  20919117.94947  20919117.12549
  -3074255.98748  -2395522.01344         0.00041  24790416.83144  24790413.65748
  -2850595.40548  -2221242.28745         0.00041  24756654.77345  24756650.22648
 96 10 10 01 32 30.0000000  0  8 22 14 18 29 27 03 16 19
   -360412.16249   -280837.03146         0.00041  21743833.19146  21743831.30749
   5835831.24649   4547399.86047         0.00041  21461034.36547  21461032.16449
 -15172966.50649 -11823085.62847         0.00041  20935043.21647  20935041.28149
   -483382.92449   -376660.72347         0.00041  20923785.87747  20923784.97749
        -0.80558        -0.62754         0.00051  25584281.10454  25584281.10458
  -3142784.29848  -2448920.67344         0.00041  24777374.10644  24777373.00648
  -2950071.03148  -2298755.74344         0.00041  24737724.99644  24737721.56448
 -15517474.17248 -12091528.86546         0.00041  22365908.42346  22365905.78548
 96 10 10 01 33 00.0000000  0  8 22 14 18 29 27 03 16 19
   -297777.63149   -232030.90446         0.00041  21755751.78246  21755750.19649
   5918303.18349   4611663.69147         0.00041  21476728.21447  21476725.64949
 -15225726.60149 -11864197.38647         0.00041  20925003.35147  20925001.59449
   -458493.94549   -357266.71747         0.00041  20928522.15047  20928521.20649
    -82409.97348    -64215.56444         0.00041  25568598.73944  25568598.73948
  -3211186.55148  -2502221.09245         0.00041  24764358.45345  24764356.49448
  -3049338.78048  -2376107.22444         0.00041  24718835.68344  24718831.76248
 -15580551.32848 -12140679.87046         0.00041  22353905.76246  22353902.60048
 96 10 10 01 33 30.0000000  0  8 22 14 18 29 27 03 16 19
   -234658.06949   -182846.82446         0.00041  21767763.01646  21767761.11949
   6001166.05349   4676232.14046         0.00041  21492496.83046  21492493.76249
 -15278273.54449 -11905143.04947         0.00041  20915004.04247  20915002.26949
   -433308.74449   -337641.88947         0.00041  20933314.72947  20933313.77049
   -164775.49148   -128396.48644         0.00041  25552924.13944  25552924.13948
  -3279518.06248  -2555466.36745         0.00041  24751354.98545  24751353.74748
  -3148452.31348  -2453338.52745         0.00041  24699973.61445  24699969.89748
 -15643433.41648 -12189678.87446         0.00041  22341939.35146  22341936.58448
 96 10 10 01 34 00.0000000  0  8 22 14 18 29 27 03 16 19
   -171042.30649   -133276.10246         0.00041  21779869.17646  21779867.77549
   6084439.17549   4741120.26746         0.00041  21508342.90646  21508340.34049
 -15330567.98849 -11945891.96247         0.00041  20905052.61847  20905050.64249
   -407836.76149   -317793.59547         0.00041  20938161.69347  20938160.94549
   -247095.18448   -192541.10644         0.00041  25537260.21844  25537260.21848
  -3347756.14548  -2608638.84245         0.00041  24738371.05145  24738368.63948
  -3247386.57348  -2530430.13844         0.00041  24681147.57644  24681143.00248
 -15706084.43848 -12238497.82246         0.00041  22330017.29946  22330014.19348
 96 10 10 01 34 30.0000000  0  8 22 18 29 14 27 03 16 19
   -106929.50049    -83318.07146         0.00041  21792069.14546  21792067.33849
 -15382597.48049 -11986434.41547         0.00041  20895151.62647  20895150.01449
   -382107.74249   -297745.01647         0.00041  20943057.60647  20943057.05649
   6168115.14449   4806322.30346         0.00041  21524266.14546  21524263.52649
   -329558.43247   -256798.77844         0.00041  25521604.26944  25521604.26947
  -3415897.49648  -2661735.95345         0.00041  24725402.94545  24725401.19548
  -3346145.63948  -2607385.24544         0.00041  24662354.74844  24662350.67648
 -15768508.04048 -12287139.56846         0.00041  22318138.55646  22318135.24548
 96 10 10 01 35 00.0000000  0  8 22 14 18 29 27 03 16 19
    -42326.90849    -32978.38146         0.00041  21804362.74146  21804360.77549
   6252203.30849   4871845.53146         0.00041  21540267.52146  21540264.99149
 -15434353.39949 -12026763.69647         0.00041  20885303.30947  20885301.44449
   -356123.16549   -277497.29547         0.00041  20948002.50347  20948001.98149
   -412516.23847   -321441.22444         0.00041  25505954.96944  25505954.96947
  -3483932.43848  -2714750.17944         0.00041  24712456.69244  24712453.74548
  -3444711.56748  -2684189.85245         0.00041  24643598.21245  24643593.89448
 -15830690.27448 -12335593.23446         0.00041  22306305.55146  22306302.37948
 96 10 10 01 35 30.0000000  0  7 22 18 29 14 03 16 19
     22777.34149     17752.20646         0.00041  21816751.59346  21816749.99849
 -15485823.43549 -12066870.21447         0.00041  20875508.45847  20875506.50749
   -329851.86549   -257026.15947         0.00041  20953001.88447  20953001.18349
   6336734.83649   4937714.23246         0.00041  21556353.23346  21556350.36349
  -3551819.65348  -2767649.27744         0.00041  24699539.65144  24699535.89648
  -3543041.35348  -2760810.42145         0.00041  24624884.92845  24624881.71248
 -15892600.21648 -12383834.71946         0.00041  22294524.56046  22294521.29748
 96 10 10 01 36 00.0000000  0  8 22 18 29 14 27 03 16 19
     88364.42049     68859.02246         0.00041  21829232.31746  21829230.49749
 -15537039.05549 -12106778.48047         0.00041  20865762.39547  20865760.61349
   -303314.90049   -236348.01147         0.00041  20958051.80547  20958050.79149
   6421675.02949   5003901.37746         0.00041  21572517.13146  21572514.17649
        -0.65658         0.20654         0.00051  25474725.73654  25474725.73658
  -3619565.79448  -2820438.46544         0.00041  24686645.15444  24686645.06348
  -3641156.48748  -2837263.76045         0.00041  24606214.34545  24606211.16148
 -15954270.64048 -12431889.57146         0.00041  22282788.62846  22282785.76648
 96 10 10 01 36 30.0000000  0  8 22 18 29 14 27 03 16 19
    154441.50149    120347.65146         0.00041  21841806.28846  21841805.16649
 -15588016.68949 -12146501.30847         0.00041  20856061.93047  20856059.90049
   -276465.18149   -215426.15147         0.00041  20963160.85447  20963160.03249
   6507017.65149   5070402.10946         0.00041  21588757.21346  21588754.71449
    -81906.51548    -63822.49744         0.00041  25459141.63744  25459138.46248
  -3687148.95648  -2873100.67544         0.00041  24673785.22944  24673783.91648
  -3739045.10548  -2913540.58645         0.00041  24587586.90245  24587583.68348
 -16015696.68848 -12479753.99746         0.00041  22271099.65746  22271096.85448
 96 10 10 01 37 00.0000000  0  8 22 18 29 14 27 03 16 19
    220985.53549    172200.14946         0.00041  21854469.61346  21854467.51549
 -15638789.59249 -12186064.60247         0.00041  20846400.03647  20846398.01249
   -249297.92849   -194256.86747         0.00041  20968330.98947  20968329.83749
   6592732.03249   5137192.52146         0.00041  21605068.34946  21605065.61849
   -163705.83348   -127562.16944         0.00041  25443577.79844  25443573.19748
  -3754591.77148  -2925653.48844         0.00041  24660953.24844  24660949.26148
  -3836724.25648  -2989654.22245         0.00041  24568998.72245  24568996.38048
 -16076901.66348 -12527446.16046         0.00041  22259453.37846  22259450.19448
 96 10 10 01 37 30.0000000  0  8 22 18 29 14 27 03 16 19
    288023.22749    224437.31546         0.00041  21867226.73446  21867224.50249
 -15689332.62149 -12225448.77647         0.00041  20836782.11047  20836780.06049
   -221781.56849   -172815.55247         0.00041  20973567.03147  20973566.15949
   6678823.02349   5204276.38546         0.00041  21621450.47846  21621447.94649
   -245400.52248   -191220.31644         0.00041  25428029.52944  25428026.65348
  -3821871.72248  -2978079.39744         0.00041  24648148.46044  24648146.29548
  -3934182.53948  -3065595.72145         0.00041  24550453.70345  24550451.36448
 -16137873.67148 -12574956.78946         0.00041  22247850.67246  22247847.37648
 96 10 10 01 38 00.0000000  0  8 18 29 22 14 27 03 16 19
 -15739673.55349 -12264675.47247         0.00041  20827202.65247  20827200.65349
   -193943.19049   -151123.31347         0.00041  20978864.48247  20978863.64949
    355525.98349    277036.86246         0.00041  21880071.32646  21880069.41849
   6765239.61749   5271613.97046         0.00041  21637894.82646  21637892.10249
   -327029.15848   -254826.96044         0.00041  25412498.25944  25412492.94548
  -3889019.09548  -3030401.98244         0.00041  24635371.55844  24635369.26048
  -4031448.93448  -3141387.70145         0.00041  24531945.99645  24531942.85148
 -16198648.77348 -12622313.98646         0.00041  22236285.58746  22236282.49148
 96 10 10 01 38 30.0000000  0  8 18 29 22 14 27 03 16 19
 -15789851.08349 -12303774.83847         0.00041  20817653.85347  20817651.69949
   -165815.31149   -129205.49247         0.00041  20984216.78447  20984215.96949
    423441.79649    329958.27646         0.00041  21892995.55146  21892994.14449
   6851942.55849   5339174.68846         0.00041  21654394.23646  21654391.41949
   -408634.09848   -318415.11244         0.00041  25396967.72644  25396964.91148
  -3956085.28248  -3082661.31245         0.00041  24622609.74045  24622607.54248
  -4128552.38948  -3217052.70545         0.00041  24513467.86945  24513464.46748
 -16259270.53949 -12669551.70046         0.00041  22224749.89446  22224747.08349
 96 10 10 01 39 00.0000000  0  8 18 29 22 14 27 03 16 19
 -15839806.12049 -12342700.83047         0.00041  20808148.24247  20808146.11349
   -137391.85949   -107057.34947         0.00041  20989625.68547  20989625.02649
    491794.06149    383219.78146         0.00041  21906002.56846  21906000.85949
   6938965.31749   5406984.61746         0.00041  21670953.96646  21670951.51949
   -490216.74548   -381985.91044         0.00041  25381443.17044  25381440.31148
  -4023060.88348  -3134850.06345         0.00041  24609863.30745  24609862.21148
  -4225462.35648  -3292566.94945         0.00041  24495025.05445  24495022.34548
 -16319724.11049 -12716658.35446         0.00041  22213245.53346  22213243.19749
 96 10 10 01 39 30.0000000  0  8 18 29 22 14 27 03 16 19
 -15889449.89649 -12381384.28447         0.00041  20798700.60947  20798698.82249
   -108609.58949    -84629.61047         0.00041  20995102.64447  20995101.87749
    560644.88049    436869.77246         0.00041  21919103.89746  21919102.42249
   7026385.09549   5475103.90846         0.00041  21687589.77746  21687586.92349
   -571707.81748   -445485.34444         0.00041  25365938.27044  25365933.68548
  -4089866.73748  -3186906.55044         0.00041  24597151.00344  24597149.16648
  -4322112.04748  -3367878.36845         0.00041  24476634.45945  24476630.93448
 -16379927.72549 -12763570.23946         0.00041  22201789.67546  22201786.93249
 96 10 10 01 40 00.0000000  0  8 18 29 22 14 27 03 16 19
 -15938790.00049 -12419831.11547         0.00041  20789311.73047  20789310.08649
    -79481.49849    -61932.39747         0.00041  21000645.79247  21000644.84949
    629981.33449    490898.17346         0.00041  21932299.08046  21932297.08049
   7114206.91049   5543536.46846         0.00041  21704301.69946  21704298.58049
   -653092.94948   -508902.23744         0.00041  25350449.15344  25350445.93548
  -4156511.79448  -3238837.77444         0.00041  24584468.19144  24584466.81548
  -4418509.28248  -3442993.08345         0.00041  24458288.93745  24458286.01048
 -16439888.00649 -12810292.51146         0.00041  22190379.28546  22190376.71149
 96 10 10 01 40 30.0000000  0  8 18 29 22 14 27 03 16 19
 -15987845.39649 -12458056.09347         0.00041  20779977.11847  20779975.00249
    -50037.77749    -38989.23847         0.00041  21006248.80547  21006248.04549
    699771.39649    545280.05046         0.00041  21945579.45446  21945577.13749
   7202420.61249   5612274.39646         0.00041  21721088.25246  21721085.20049
   -734387.45448   -572248.52644         0.00041  25334980.23444  25334976.14448
  -4223025.55048  -3290666.56044         0.00041  24571811.55544  24571809.90248
  -4514692.63348  -3517941.09545         0.00041  24439986.81645  24439982.05648
 -16499637.51749 -12856850.54746         0.00041  22179009.08746  22179006.81949
 96 10 10 01 41 00.0000000  0  8 18 29 22 14 27 03 16 19
 -16036621.15349 -12496063.16347         0.00041  20770695.13047  20770693.08349
    -20291.74049    -15810.51747         0.00041  21011909.44047  21011908.50849
    770009.67449    600011.18246         0.00041  21958945.33446  21958943.61749
   7291017.69449   5681311.06346         0.00041  21737947.74846  21737944.80349
   -815599.54048   -635530.57944         0.00041  25319523.20044  25319522.46248
  -4289392.71748  -3342381.26344         0.00041  24559184.94544  24559180.54448
  -4610678.07648  -3592734.92145         0.00041  24421721.45445  24421716.69448
 -16559172.40549 -12903241.34446         0.00041  22167680.16346  22167677.61749
 96 10 10 01 41 30.0000000  0  8 18 29 22 14 27 03 16 19
 -16085139.43549 -12533869.60747         0.00041  20761462.55247  20761460.59549
      9757.14549      7604.19447         0.00041  21017627.24047  21017626.42549
    840694.46649    655090.23646         0.00041  21972396.56046  21972394.40249
   7380003.19249   5750650.39746         0.00041  21754880.68946  21754878.39049
   -896714.20348   -698736.70344         0.00041  25304090.65344  25304085.68148
  -4355589.92048  -3393963.45745         0.00041  24546587.62745  24546583.73848
  -4706460.45748  -3667370.50845         0.00041  24403494.77545  24403491.22848
 -16618470.75349 -12949447.83046         0.00041  22156396.14446  22156393.69449
 96 10 10 01 42 00.0000000  0  8 18 29 22 14 27 03 16 19
 -16133384.70049 -12571463.31447         0.00041  20752281.64047  20752279.70249
     40127.51849     31269.42347         0.00041  21023406.45547  21023405.84649
    911848.42449    710534.90246         0.00041  21985936.42246  21985934.63349
   7469399.08149   5820309.51846         0.00041  21771892.00446  21771889.89249
   -977712.37048   -761852.10144         0.00041  25288676.87044  25288672.66448
  -4421590.26448  -3445392.27845         0.00041  24534027.08845  24534024.51248
  -4801992.11048  -3741810.73745         0.00041  24385316.46045  24385312.91748
 -16677512.53449 -12995454.39046         0.00041  22145160.43546  22145157.97749
 96 10 10 01 42 30.0000000  0  7 29 22 19 18 27 03 16
     70678.06749     55075.04447         0.00041  21029220.29047  21029219.31649
    983331.62149    766236.08846         0.00041  21999538.62646  21999537.11949
 -16736425.72049 -13041360.74546         0.00041  22133949.65846  22133946.57649
 -16181493.03949 -12608950.32847         0.00041  20743126.83547  20743125.00749
  -1058747.29448   -824996.10244         0.00041  25273255.57844  25273251.38248
  -4487522.52348  -3496768.03745         0.00041  24521480.64545  24521477.58048
  -4897392.53048  -3816148.70444         0.00041  24367160.79244  24367158.43248
 96 10 10 01 43 00.0000000  0  7 29 22 18 27 03 16 19
    101508.22649     79098.53947         0.00041  21035087.29347  21035086.23449
   1055237.93149    822266.98146         0.00041  22013222.33846  22013220.24549
 -16229366.68449 -12646254.45947         0.00041  20734017.04747  20734015.44049
  -1139728.31248   -888098.11744         0.00041  25257846.21044  25257839.82448
  -4553286.45848  -3548012.64445         0.00041  24508966.20745  24508962.99448
  -4992550.65348  -3890297.87445         0.00041  24349052.91645  24349049.71548
 -16795101.11549 -13087081.81246         0.00041  22122784.05946  22122781.03649
 96 10 10 01 43 30.0000000  0  7 29 22 18 27 03 16 19
    132733.60149    103429.99747         0.00041  21041029.04747  21041028.04149
   1127690.62749    878723.64246         0.00041  22027009.96346  22027008.05149
 -16276886.67749 -12683283.02147         0.00041  20724974.02047  20724972.28349
  -1220537.40548   -951066.14844         0.00041  25242468.38244  25242464.48248
  -4618778.51048  -3599045.36944         0.00041  24496502.56844  24496500.00448
  -5087339.18448  -3964159.04645         0.00041  24331016.76745  24331012.79448
 -16853431.58849 -13132534.11146         0.00041  22111683.92346  22111681.12549
 96 10 10 01 44 00.0000000  0  7 29 22 18 27 03 16 19
    164273.02849    128006.16347         0.00041  21047030.76147  21047030.16149
   1200602.03349    935537.73046         0.00041  22040884.12446  22040882.69949
 -16324127.16149 -12720093.78247         0.00041  20715984.55847  20715983.07649
  -1301262.66448  -1013968.91344         0.00041  25227106.99844  25227103.32648
  -4684093.79448  -3649940.36744         0.00041  24484074.70344  24484070.93648
  -5181847.63348  -4037801.97945         0.00041  24313031.58045  24313027.90848
 -16911525.34449 -13177801.95046         0.00041  22100629.31846  22100626.23049
 96 10 10 01 44 30.0000000  0  7 29 22 18 27 03 16 19
    196104.50149    152809.90447         0.00041  21053088.05747  21053087.46049
   1273949.15749    992691.33646         0.00041  22054841.99246  22054840.32649
 -16371100.74549 -12756696.56947         0.00041  20707045.67047  20707043.67149
  -1381913.08948  -1076813.33844         0.00041  25211760.91944  25211756.53048
  -4749256.87148  -3700716.77244         0.00041  24471674.13444  24471670.94048
  -5276110.90048  -4111253.84245         0.00041  24295092.89845  24295089.81648
 -16969409.88349 -13222906.76346         0.00041  22089614.01646  22089610.84049
 96 10 10 01 45 00.0000000  0  7 29 22 18 27 03 16 19
    228215.79149    177831.68847         0.00041  21059198.48947  21059197.69849
   1347711.48449   1050168.48446         0.00041  22068878.24146  22068876.51449
 -16417820.38049 -12793101.47647         0.00041  20698155.31447  20698153.55749
  -1462503.80348  -1139611.32844         0.00041  25196425.35944  25196420.15948
  -4814293.42048  -3751394.59844         0.00041  24459297.08944  24459295.23948
  -5370155.91248  -4184535.62345         0.00041  24277197.00145  24277193.68648
 -17027109.69449 -13267867.64046         0.00041  22078633.76046  22078630.69649
 96 10 10 01 45 30.0000000  0  7 29 18 22 27 03 16 19
    260630.19749    203089.66147         0.00041  21065367.04447  21065365.94349
 -16464267.39749 -12829293.95747         0.00041  20689316.73247  20689314.84649
   1421904.73948   1107981.41746         0.00041  22082996.23846  22082994.29548
  -1543019.04848  -1202350.40544         0.00041  25181102.91844  25181097.61748
  -4879190.08948  -3801963.42044         0.00041  24446948.61744  24446945.42048
  -5463967.20648  -4257635.31345         0.00041  24259345.74245  24259341.96748
 -17084623.15849 -13312683.30646         0.00041  22067689.09146  22067686.29149
 96 10 10 01 46 00.0000000  0  7 29 18 22 27 03 16 19
    293387.19149    228614.58247         0.00041  21071600.27847  21071599.71049
 -16510408.66249 -12865248.18947         0.00041  20680536.33047  20680534.48749
   1496530.38849   1166131.27846         0.00041  22097197.60246  22097195.76049
  -1623433.44348  -1265010.93044         0.00041  25165800.92944  25165796.19648
  -4943907.53848  -3852392.57645         0.00041  24434632.46545  24434630.20548
  -5557514.57048  -4330529.33945         0.00041  24241544.85345  24241539.76448
 -17141916.39249 -13357327.36546         0.00041  22056786.95046  22056784.03149
 96 10 10 01 46 30.0000000  0  7 29 18 22 27 03 16 19
    326472.08549    254395.01847         0.00041  21077895.95347  21077895.16549
 -16556277.96549 -12900990.50547         0.00041  20671807.62047  20671805.68749
   1571560.95449   1224596.66346         0.00041  22111475.24946  22111473.55449
  -1703772.40948  -1327612.69044         0.00041  25150510.33844  25150507.11948
  -5008461.63348  -3902694.47145         0.00041  24422348.83845  24422345.88248
  -5650810.91448  -4403227.75945         0.00041  24223790.91845  24223786.01748
 -17199007.85249 -13401814.19746         0.00041  22045922.82946  22045919.96249
 96 10 10 01 47 00.0000000  0  7 29 18 22 27 03 16 19
    359921.71149    280459.65547         0.00041  21084261.60447  21084260.60449
 -16601869.65049 -12936516.49147         0.00041  20663132.01047  20663130.18149
   1647008.84749   1283387.23346         0.00041  22125832.52746  22125831.39849
  -1784030.20048  -1390151.20644         0.00041  25135237.99544  25135234.55648
  -5072819.53448  -3952843.45145         0.00041  24410101.01945  24410098.41848
  -5743831.57848  -4475711.37845         0.00041  24206088.39645  24206085.42948
 -17255874.12149 -13446125.56246         0.00041  22035101.57946  22035098.49149
 96 10 10 01 47 30.0000000  0  7 29 18 22 27 03 16 19
    393706.69149    306785.60647         0.00041  21090690.70247  21090689.86449
 -16647212.45349 -12971848.53747         0.00041  20654503.40747  20654501.30549
   1722845.36649   1342480.61846         0.00041  22140264.13646  22140262.17749
  -1864223.61448  -1452639.52944         0.00041  25119978.62244  25119974.70248
  -5136977.32848  -4002836.49344         0.00041  24397893.06444  24397890.15148
  -5836591.71348  -4547991.98745         0.00041  24188437.07145  24188434.50248
 -17312534.06249 -13490276.15146         0.00041  22024319.76146  22024316.81349
 96 10 10 01 48 00.0000000  0  7 29 18 22 27 03 16 19
    427838.17449    333381.56147         0.00041  21097185.43047  21097184.80249
 -16692292.99849 -13006976.22147         0.00041  20645924.88647  20645923.44849
   1799088.77648   1401891.08746         0.00041  22154773.35746  22154770.39548
  -1944325.25848  -1515056.35444         0.00041  25104735.37544  25104731.57548
  -5200903.20848  -4052648.82245         0.00041  24385728.11845  24385725.76248
  -5929066.72848  -4620050.41945         0.00041  24170841.93445  24170837.57548
 -17368944.99949 -13534232.70446         0.00041  22013584.61646  22013582.16549
 96 10 10 01 48 30.0000000  0  7 29 18 22 27 03 16 19
    462287.28649    360225.02547         0.00041  21103740.80047  21103740.20349
 -16737131.76449 -13041915.50247         0.00041  20637392.41147  20637390.55449
   1875746.60649   1461624.47146         0.00041  22169359.69946  22169358.04249
  -2024346.56548  -1577410.60044         0.00041  25089507.83244  25089505.04748
  -5264619.26048  -4102297.66744         0.00041  24373604.03044  24373600.80448
  -6021281.64748  -4691906.18445         0.00041  24153291.15845  24153289.08648
 -17425122.16649 -13578007.09846         0.00041  22002894.79346  22002891.95349
 96 10 10 01 49 00.0000000  0  7 29 18 22 27 03 16 19
    497058.19249    387319.23447         0.00041  21110357.78947  21110357.06349
 -16781682.80549 -13076630.58947         0.00041  20628914.42847  20628912.79349
   1952840.20948   1521697.40846         0.00041  22184030.28846  22184028.07848
  -2104269.78348  -1639688.38044         0.00041  25074298.86344  25074295.34348
  -5328107.88348  -4151769.32444         0.00041  24361521.15344  24361519.37248
  -6113229.17748  -4763553.58045         0.00041  24135794.77745  24135791.66648
 -17481042.56249 -13621581.42446         0.00041  21992253.62746  21992250.86249
 96 10 10 01 49 30.0000000  0  7 18 29 22 27 03 16 19
 -16825962.34849 -13111134.12647         0.00041  20620488.30847  20620486.68349
    532108.40149    414631.07547         0.00041  21117027.53747  21117026.35749
   2030339.74649   1582086.67146         0.00041  22198777.94046  22198776.90249
  -2184123.80348  -1701912.30444         0.00041  25059102.80744  25059100.28448
  -5391408.42448  -4201094.40745         0.00041  24349476.30645  24349473.18248
  -6204937.82648  -4835014.85745         0.00041  24118342.50045  24118341.30248
 -17536744.98649 -13664985.89246         0.00041  21981653.39346  21981651.00949
 96 10 10 01 50 00.0000000  0  7 18 29 22 27 03 16 19
 -16869942.11749 -13145404.07447         0.00041  20612119.39347  20612117.66049
    567460.32749    442178.02947         0.00041  21123754.67647  21123753.87149
   2108264.65048   1642807.37846         0.00041  22213606.32946  22213605.10748
  -2263895.40848  -1764071.96044         0.00041  25043920.14744  25043920.24348
  -5454522.67148  -4250274.29544         0.00041  24337466.24144  24337463.45848
  -6296396.34048  -4906281.21245         0.00041  24100940.26545  24100938.45348
 -17592225.49549 -13708217.43846         0.00041  21971096.06746  21971093.71049
 96 10 10 01 50 30.0000000  0  7 18 29 22 27 03 16 19
 -16913625.13149 -13179442.78147         0.00041  20603806.71447  20603805.04749
    603093.31649    469943.99247         0.00041  21130535.74947  21130534.76649
   2186592.03548   1703841.70846         0.00041  22228511.72646  22228510.09148
  -2343612.48248  -1826189.12744         0.00041  25028751.10544  25028750.05448
  -5517463.28548  -4299318.88045         0.00041  24325489.04645  24325485.99348
  -6387621.26148  -4977365.53045         0.00041  24083580.89645  24083577.31648
 -17647531.83449 -13751313.26246         0.00041  21960572.06046  21960569.56649
 96 10 10 01 51 00.0000000  0  7 18 29 22 27 03 16 19
 -16956994.07649 -13213236.75247         0.00041  20595553.92447  20595552.08749
    639031.66349    497947.89047         0.00041  21137374.48447  21137373.62449
   2265318.67348   1765187.14646         0.00041  22243493.60646  22243490.64448
  -2423264.75348  -1888255.79444         0.00041  25013595.89244  25013592.70648
  -5580204.88148  -4348208.40045         0.00041  24313548.30645  24313546.19848
  -6478581.39548  -5048243.55445         0.00041  24066269.77545  24066266.68648
 -17702652.40949 -13794264.33946         0.00041  21950082.92646  21950080.51649
 96 10 10 01 51 30.0000000  0  7 18 29 22 27 03 16 19
 -17000067.91649 -13246800.75947         0.00041  20587357.15847  20587355.59549
    675290.36949    526201.42247         0.00041  21144274.18347  21144273.33849
   2344448.56448   1826846.82146         0.00041  22258551.37146  22258548.65448
  -2502832.09848  -1950256.28444         0.00041  24998454.34044  24998451.33748
  -5642735.43548  -4396933.48145         0.00041  24301651.32145  24301647.65948
  -6569254.72548  -5118898.07845         0.00041  24049015.63845  24049012.82448
 -17757571.10349 -13837058.10446         0.00041  21939632.08246  21939629.52649
 96 10 10 01 52 00.0000000  0  7 18 29 22 27 03 16 19
 -17042823.82649 -13280117.04147         0.00041  20579220.93747  20579219.29749
    711904.71449    554732.08147         0.00041  21151241.66347  21151240.77049
   2424009.06949   1888842.01846         0.00041  22273690.93246  22273689.88749
  -2582272.36948  -2012157.73744         0.00041  24983338.38844  24983333.19648
  -5705022.11748  -4445468.51645         0.00041  24289797.05245  24289795.17248
  -6659617.54148  -5189310.63145         0.00041  24031820.90245  24031817.97748
 -17812247.87949 -13879663.36446         0.00041  21929227.32046  21929224.80749
 96 10 10 01 52 30.0000000  0  7 18 29 22 27 03 16 19
 -17085261.54749 -13313185.39247         0.00041  20571145.38847  20571143.93849
    748898.06749    583558.06347         0.00041  21158281.28047  21158280.23849
   2504012.84948   1951182.61846         0.00041  22288914.80646  22288912.70148
  -2661566.85248  -2073945.60544         0.00041  24968248.14844  24968244.94348
  -5767039.46448  -4493793.69845         0.00041  24277993.89845  24277993.07448
  -6749648.21148  -5259464.40245         0.00041  24014687.57445  24014683.83448
 -17866648.21149 -13922053.21146         0.00041  21918875.25946  21918873.16049
 96 10 10 01 53 00.0000000  0  7 18 29 22 27 03 16 19
 -17127444.50849 -13346055.22347         0.00041  20563118.21447  20563116.31549
    786227.63149    612646.02947         0.00041  21165385.00047  21165384.08249
   2584405.72348   2013826.43146         0.00041  22304213.30946  22304211.74848
  -2740749.45848  -2135646.32144         0.00041  24953182.06544  24953176.49048
  -5828846.04848  -4541954.63244         0.00041  24266233.63144  24266231.66748
  -6839396.27248  -5329397.91645         0.00041  23997609.01045  23997605.99648
 -17920791.71949 -13964242.93146         0.00041  21908572.12046  21908569.83749
 96 10 10 01 53 30.0000000  0  8 18 29 22 31 27 03 16 19
 -17169327.28449 -13378691.14147         0.00041  20555148.16647  20555146.63949
    823920.17949    642016.84647         0.00041  21172557.35647  21172556.80449
   2665230.21948   2076806.55446         0.00041  22319593.26146  22319592.28548
        -0.55758        -0.43454         0.00051  24898990.58054  24898990.58058
  -2819789.47448  -2197235.88444         0.00041  24938140.59044  24938135.51148
  -5890403.95848  -4589921.82445         0.00041  24254520.27545  24254517.49848
  -6928825.16648  -5399082.76545         0.00041  23980592.25845  23980589.43148
 -17974649.26349 -14006209.82546         0.00041  21898323.79646  21898320.94549
 96 10 10 01 54 00.0000000  0  8 18 29 22 31 27 03 16 19
 -17210931.15949 -13411109.74147         0.00041  20547230.88347  20547229.32749
    861929.98249    671634.86947         0.00041  21179790.48247  21179789.79249
   2746441.64548   2140088.20146         0.00041  22335047.45146  22335045.42348
    -86791.99748    -67630.12744         0.00041  24882475.25344  24882475.25348
  -2898759.22548  -2258770.71344         0.00041  24923112.15544  24923108.00848
  -5951743.69848  -4637718.98445         0.00041  24242848.04545  24242844.59248
  -7017968.79448  -5468545.32745         0.00041  23963630.43545  23963625.85848
 -18028278.67049 -14047998.95046         0.00041  21888118.63646  21888115.76849
 96 10 10 01 54 30.0000000  0  8 18 29 22 31 27 03 16 19
 -17252294.15049 -13443340.63747         0.00041  20539360.17047  20539358.54749
    900206.98249    701461.09047         0.00041  21187074.38447  21187073.47649
   2827992.75348   2203634.52546         0.00041  22350566.81746  22350564.66848
   -173744.29948   -135385.16844         0.00041  24865927.80244  24865927.80248
  -2977720.17448  -2320298.65544         0.00041  24908088.18344  24908081.87448
  -6012901.62748  -4685374.46545         0.00041  24231209.00945  24231207.45248
  -7106844.74248  -5537799.28245         0.00041  23946716.21045  23946712.27748
 -18081735.82249 -14089653.85146         0.00041  21877945.37546  21877942.87349
 96 10 10 01 55 00.0000000  0  8 18 29 22 31 27 03 16 19
 -17293361.47549 -13475341.14247         0.00041  20531545.21547  20531543.40749
    938778.43749    731516.76747         0.00041  21194414.09447  21194413.47849
   2909911.21248   2267467.09446         0.00041  22366155.01346  22366152.78948
   -260797.75648   -203219.03144         0.00041  24849362.17144  24849362.17148
  -3056640.34148  -2381794.84744         0.00041  24893069.12244  24893064.78348
  -6073841.88548  -4732860.36945         0.00041  24219611.41645  24219610.74948
  -7195414.41148  -5606814.57845         0.00041  23929861.44345  23929858.23048
 -18135004.94949 -14131162.23446         0.00041  21867808.46046  21867805.84349
 96 10 10 01 55 30.0000000  0  8 18 29 22 31 27 03 16 19
 -17334106.38049 -13507090.41447         0.00041  20523791.58047  20523790.07449
    977658.27149    761812.74047         0.00041  21201813.25847  21201812.37949
   2992206.67848   2331593.43646         0.00041  22381814.79146  22381814.00648
   -347937.78848   -271120.35444         0.00041  24832779.97244  24832779.97248
  -3135511.72248  -2443253.01244         0.00041  24878060.75044  24878055.95148
  -6134533.32548  -4780152.36945         0.00041  24208063.50945  24208061.12548
  -7283657.62648  -5675575.51845         0.00041  23913070.13345  23913066.42648
 -18188096.31749 -14172532.10846         0.00041  21857705.94546  21857702.89249
 96 10 10 01 56 00.0000000  0  8 18 29 22 31 27 03 16 19
 -17374559.36249 -13538612.21747         0.00041  20516093.72947  20516092.05649
   1016835.85949    792340.71947         0.00041  21209268.02247  21209267.11549
   3074841.75248   2395984.39946         0.00041  22397539.71346  22397538.81148
   -435175.74848   -339097.98544         0.00041  24816179.67744  24816179.67748
  -3214330.31648  -2504670.05545         0.00041  24863061.45545  24863056.74148
  -6194994.70148  -4827265.07144         0.00041  24196558.77744  24196555.40148
  -7371599.16948  -5744101.38145         0.00041  23896334.06945  23896331.34648
 -18241020.78049 -14213771.92246         0.00041  21847634.56746  21847631.81449
 96 10 10 01 56 30.0000000  0  8 18 29 22 31 27 03 16 19
 -17414675.58149 -13569871.60147         0.00041  20508459.78947  20508458.15649
   1056352.36749    823132.80347         0.00041  21216787.80147  21216787.31949
   3157846.61048   2460663.52046         0.00041  22413335.35546  22413333.21248
   -522451.03548   -407104.70344         0.00041  24799572.21544  24799572.21548
  -3293026.58248  -2565991.75244         0.00041  24848085.80044  24848081.67348
  -6255194.62648  -4874174.07444         0.00041  24185101.63944  24185100.08448
  -7459211.47548  -5812370.69145         0.00041  23879662.79745  23879660.10648
 -18293728.23249 -14254842.63746         0.00041  21837604.47846  21837601.54749
 96 10 10 01 57 00.0000000  0  8 18 29 22 31 27 03 16 19
 -17454437.75149 -13600855.10447         0.00041  20500893.28247  20500891.86149
   1096217.17549    854196.29347         0.00041  21224373.84247  21224373.09549
   3241226.07448   2525634.54346         0.00041  22429202.16346  22429200.25748
   -609751.65248   -475131.15844         0.00041  24782959.59844  24782959.59848
  -3371589.01848  -2627209.19144         0.00041  24833135.62244  24833131.46148
  -6315125.36748  -4920873.32445         0.00041  24173697.06645  24173696.21748
  -7546498.20848  -5880386.29645         0.00041  23863052.56445  23863050.56648
 -18346196.62249 -14295727.07446         0.00041  21827619.82546  21827616.85049
 96 10 10 01 57 30.0000000  0  8 18 29 22 31 27 03 16 19
 -17493950.09349 -13631643.93147         0.00041  20493374.47147  20493372.69149
   1136336.43649    885458.03747         0.00041  21232008.54347  21232007.45749
   3324891.91848   2590828.70246         0.00041  22445122.99246  22445121.01648
   -697176.10148   -543254.10444         0.00041  24766323.46944  24766323.46948
  -3450117.51348  -2688400.17044         0.00041  24818192.30744  24818188.71848
  -6374880.60848  -4967435.83445         0.00041  24162326.47745  24162325.13948
  -7633552.59648  -5948220.86645         0.00041  23846485.90145  23846483.50448
 -18398512.23049 -14336492.45546         0.00041  21817664.22646  21817661.54749
 96 10 10 01 58 00.0000000  0  8 18 29 22 31 27 03 16 19
 -17533172.55949 -13662206.88347         0.00041  20485910.55547  20485908.83549
   1176747.49449    916947.16447         0.00041  21239698.34047  21239697.57349
   3408886.65648   2656279.15646         0.00041  22461106.83346  22461105.04048
   -784685.64148   -611443.35744         0.00041  24749670.39644  24749670.39648
  -3528584.64848  -2749543.34345         0.00041  24803259.24945  24803257.17748
  -6434434.33448  -5013841.32445         0.00041  24150994.55245  24150992.10048
  -7720344.94548  -6015851.27345         0.00041  23829970.73245  23829966.37748
 -18450621.62349 -14377097.15246         0.00041  21807748.45246  21807745.49249
 96 10 10 01 58 30.0000000  0  7 18 29 22 27 03 16 19
 -17572022.12749 -13692479.26147         0.00041  20478517.66047  20478516.16049
   1217525.43849    948722.19447         0.00041  21247457.71547  21247457.30049
   3493299.26348   2722055.21546         0.00041  22477169.30446  22477168.79648
  -3606936.73648  -2810596.89244         0.00041  24788349.76544  24788346.57948
  -6493713.21448  -5060032.63545         0.00041  24139714.46345  24139711.27448
  -7806788.91248  -6083210.17745         0.00041  23813521.95445  23813517.22748
 -18502448.16649 -14417481.45146         0.00041  21797886.14546  21797883.04049
 96 10 10 01 59 00.0000000  0  7 18 29 22 27 03 16 19
 -17610601.03849 -13722540.74947         0.00041  20471176.80847  20471174.71649
   1258595.03249    980724.46947         0.00041  21255273.50847  21255272.74549
   3578051.11248   2788095.61746         0.00041  22493297.43246  22493296.24048
  -3685263.67948  -2871630.81145         0.00041  24773443.34845  24773441.15248
  -6552786.82448  -5106063.95144         0.00041  24128472.90644  24128469.03048
  -7892959.22648  -6150355.87145         0.00041  23797123.65245  23797119.92448
 -18554081.14049 -14457714.91546         0.00041  21788060.29146  21788057.19549
 96 10 10 01 59 30.0000000  0  7 18 29 22 27 03 16 19
 -17648805.90949 -13752310.77347         0.00041  20463906.41347  20463904.66749
   1300066.45049   1013039.84647         0.00041  21263165.39147  21263164.20749
   3663235.21648   2854472.84046         0.00041  22509508.03246  22509506.06848
  -3763443.59548  -2932550.18745         0.00041  24758568.48345  24758564.00148
  -6611528.62648  -5151836.75644         0.00041  24117293.69544  24117291.48748
  -7978738.34148  -6217196.71745         0.00041  23780799.28245  23780795.86148
 -18605419.61249 -14497718.89746         0.00041  21778291.01346  21778287.95949
 96 10 10 02 00 00.0000000  0  8 18 29 22 31 27 03 16 19
 -17686601.48949 -13781761.86447         0.00041  20456714.09447  20456712.39149
   1341967.87049   1045690.29647         0.00041  21271138.80547  21271138.15149
   3748860.31848   2921193.70246         0.00041  22525801.73746  22525799.34548
         0.09858         1.60754         0.00051  24682994.98354  24682994.98358
  -3841447.53448  -2993332.44845         0.00041  24743724.99445  24743721.28048
  -6669896.06248  -5197317.83545         0.00041  24106186.84545  24106185.36548
  -8064087.66248  -6283702.66845         0.00041  23764557.61745  23764554.49748
 -18656438.55549 -14537473.89446         0.00041  21768582.53046  21768579.47149
 96 10 10 02 00 30.0000000  0  8 18 29 22 31 27 03 16 19
 -17724110.89149 -13810989.96147         0.00041  20449576.44147  20449574.51849
   1384184.19049   1078586.13247         0.00041  21279172.25147  21279171.63649
   3834801.36248   2988160.75046         0.00041  22542155.74046  22542153.20748
    -87698.03948    -68334.61244         0.00041  24666306.20244  24666306.20248
  -3919386.76148  -3054064.24845         0.00041  24728893.20045  24728890.77948
  -6727993.92048  -5242588.88345         0.00041  24095132.84145  24095129.66848
  -8149111.96548  -6349955.36745         0.00041  23748379.67145  23748376.59648
 -18707267.62849 -14577080.94446         0.00041  21758909.94246  21758906.77749
 96 10 10 02 01 00.0000000  0  8 18 29 22 31 27 03 16 19
 -17761305.84849 -13839973.02747         0.00041  20442498.41647  20442496.80249
   1426744.61449   1111750.09247         0.00041  21287271.48547  21287270.27049
   3921072.06748   3055384.68046         0.00041  22558572.81046  22558570.07948
   -175450.66748   -136713.24644         0.00041  24649606.92844  24649606.92848
  -3997235.16348  -3114725.33044         0.00041  24714078.01444  24714075.37048
  -6785782.04148  -5287618.55445         0.00041  24084134.65445  24084132.55048
  -8233791.15148  -6415939.12545         0.00041  23732266.82045  23732262.98248
 -18757891.88649 -14616528.39846         0.00041  21749276.37646  21749273.14649
 96 10 10 02 01 30.0000000  0  8 18 29 22 31 27 03 16 19
 -17798163.94749 -13868693.61047         0.00041  20435484.65947  20435482.53749
   1469649.82349   1145182.71147         0.00041  21295435.93047  21295434.94149
   4007680.51848   3122871.78946         0.00041  22575053.64346  22575051.93748
   -263245.44547   -205126.32044         0.00041  24632898.30944  24632898.30947
  -4074995.78448  -3175317.98544         0.00041  24699281.64544  24699277.56948
  -6843262.35448  -5332408.37545         0.00041  24073196.85545  24073194.27748
  -8318120.47348  -6481650.28545         0.00041  23716218.38345  23716214.19148
 -18808302.92049 -14655809.70746         0.00041  21739683.02446  21739680.12649
 96 10 10 02 02 00.0000000  0  8 18 29 22 31 27 03 16 19
 -17834693.82849 -13897158.43947         0.00041  20428533.00647  20428531.43049
   1512897.57149   1178882.25147         0.00041  21303665.51647  21303664.92349
   4094649.64948   3190639.93946         0.00041  22591602.87446  22591601.91148
   -351077.19247   -273566.64344         0.00041  24616182.68344  24616182.68347
  -4152682.31248  -3235852.90945         0.00041  24684497.41045  24684493.03448
  -6900457.29348  -5376975.81745         0.00041  24062312.53545  24062310.31448
  -8402119.95948  -6547104.41945         0.00041  23700232.73645  23700229.87448
 -18858512.42149 -14694933.96846         0.00041  21730128.63446  21730125.58649
 96 10 10 02 02 30.0000000  0  8 18 29 22 31 27 03 16 19
 -17870924.09649 -13925389.81247         0.00041  20421638.63047  20421636.66049
   1556462.06749   1212828.60647         0.00041  21311955.50147  21311954.74249
   4181964.44248   3258677.43846         0.00041  22608218.77946  22608216.88448
   -438942.50347   -342033.11944         0.00041  24599463.10844  24599463.10847
  -4230307.17748  -3296339.80045         0.00041  24669726.47645  24669722.72548
  -6957394.13348  -5421342.13845         0.00041  24051475.63145  24051475.62248
  -8485815.87748  -6612322.00645         0.00041  23684306.26845  23684303.09748
 -18908541.13749 -14733917.36546         0.00041  21720608.54246  21720605.38449
 96 10 10 02 03 00.0000000  0  8 18 29 22 31 27 03 16 19
 -17906872.72349 -13953401.72247         0.00041  20414798.18747  20414796.45449
   1600307.58849   1246993.93947         0.00041  21320299.09547  21320298.31749
   4269592.85248   3326959.32846         0.00041  22624892.89346  22624891.89848
   -526877.27948   -410552.17444         0.00041  24582736.77644  24582731.44448
  -4307891.89448  -3356795.39945         0.00041  24654962.37845  24654959.57948
  -7014094.08648  -5465523.87045         0.00041  24040687.17645  24040686.13948
  -8569243.23848  -6677330.34645         0.00041  23668430.69845  23668426.26448
 -18958409.76749 -14772776.01646         0.00041  21711118.78246  21711115.47249
 96 10 10 02 03 30.0000000  0  8 18 29 22 31 27 03 16 19
 -17942534.01349 -13981189.73547         0.00041  20408011.57947  20408009.75149
   1644427.07249   1281372.75147         0.00041  21328694.98647  21328693.95549
   4357539.18148   3395488.92646         0.00041  22641628.69946  22641627.14448
   -614881.09448   -479126.58944         0.00041  24565986.10344  24565985.55848
  -4385418.73248  -3417205.87945         0.00041  24640208.91045  24640206.76248
  -7070557.16548  -5509521.06245         0.00041  24029942.78145  24029941.24348
  -8652384.11948  -6742115.44145         0.00041  23652609.01745  23652605.42448
 -19008105.38149 -14811499.85446         0.00041  21701661.94546  21701658.83649
 96 10 10 02 04 00.0000000  0  8 18 29 22 31 27 03 16 19
 -17977826.47549 -14008690.35347         0.00041  20401295.65147  20401294.04349
   1688898.01649   1316025.42247         0.00041  21337157.26547  21337156.62549
   4445865.98848   3464315.00646         0.00041  22658436.81046  22658434.90248
   -702877.12848   -547694.84544         0.00041  24549243.44244  24549240.71048
  -4462801.76048  -3477504.32745         0.00041  24625483.44445  24625481.25748
  -7126693.99548  -5553264.02445         0.00041  24019259.76245  24019258.82348
  -8735149.38948  -6806607.85145         0.00041  23636858.89245  23636856.13848
 -19057548.73249 -14850027.12046         0.00041  21692253.13746  21692250.07749
 96 10 10 02 04 30.0000000  0  8 18 29 22 31 27 03 16 19
 -18012727.55249 -14035885.99147         0.00041  20394654.41447  20394652.55449
   1733743.99949   1350970.34347         0.00041  21345691.10047  21345690.62949
   4534565.90048   3533431.82446         0.00041  22675316.85646  22675314.37448
   -790862.36748   -616254.73744         0.00041  24532499.60244  24532497.39248
  -4540026.38048  -3537679.33945         0.00041  24610789.27045  24610785.94248
  -7182482.67748  -5596735.69045         0.00041  24008645.62845  24008642.26248
  -8817512.42448  -6870786.84545         0.00041  23621186.44945  23621183.23148
 -19106701.25949 -14888327.77246         0.00041  21682899.97446  21682896.80949
 96 10 10 02 05 00.0000000  0  8 18 29 22 31 27 03 16 19
 -18047360.84849 -14062872.96447         0.00041  20388063.87847  20388062.05649
   1778853.40849   1386120.52447         0.00041  21354275.47047  21354274.45949
   4623514.07048   3602742.09846         0.00041  22692242.51146  22692240.97548
   -878991.51348   -684926.80344         0.00041  24515731.30344  24515726.85648
  -4617227.62748  -3597836.13345         0.00041  24596097.95545  24596094.19248
  -7238056.16248  -5640039.65045         0.00041  23998069.54145  23998067.39048
  -8899590.28148  -6934743.61545         0.00041  23605567.57945  23605565.30448
 -19155685.41449 -14926497.22546         0.00041  21673578.59046  21673575.56049
 96 10 10 02 05 30.0000000  0  8 18 29 22 31 27 03 16 19
 -18081707.33249 -14089636.44947         0.00041  20381527.85947  20381526.02749
   1824265.91349   1421506.87547         0.00041  21362917.29247  21362916.29649
   4712740.86448   3672269.46546         0.00041  22709221.47946  22709220.77348
   -967227.95348   -753682.44844         0.00041  24498938.41244  24498935.58948
  -4694386.98548  -3657960.29745         0.00041  24581414.03245  24581410.88148
  -7293389.76348  -5683156.72045         0.00041  23987540.31245  23987537.90648
  -8981337.72448  -6998442.90745         0.00041  23590012.50745  23590009.34948
 -19204469.45149 -14964510.73546         0.00041  21664295.33046  21664292.53849
 96 10 10 02 06 00.0000000  0  8 18 29 22 31 27 03 16 19
 -18115775.77849 -14116183.28447         0.00041  20375044.76047  20375042.99149
   1869997.75449   1457142.07247         0.00041  21371619.56247  21371618.66349
   4802236.02948   3742005.95746         0.00041  22726251.87246  22726250.62648
  -1055558.05448   -822511.13244         0.00041  24482126.48544  24482126.48548
  -4771516.31048  -3718061.04045         0.00041  24566737.29545  24566732.19948
  -7348488.25848  -5726090.58845         0.00041  23977052.87845  23977052.75148
  -9062757.41148  -7061886.81045         0.00041  23574517.76845  23574514.53848
 -19253051.77249 -15002367.06746         0.00041  21655050.49946  21655047.45249
 96 10 10 02 06 30.0000000  0  8 18 29 22 31 27 03 16 19
 -18149511.77749 -14142471.06947         0.00041  20368625.22147  20368623.30549
   1916103.16449   1493068.36447         0.00041  21380393.11747  21380392.36249
   4892060.22348   3811998.83946         0.00041  22743345.13846  22743343.45748
  -1143914.96148   -891360.58944         0.00041  24465311.73544  24465311.73548
  -4848560.38048  -3778095.34645         0.00041  24552076.21745  24552072.23148
  -7403292.79948  -5768795.39845         0.00041  23966625.23745  23966623.78248
  -9143794.39348  -7125032.50545         0.00041  23559097.24645  23559094.05748
 -19301374.33449 -15040020.98746         0.00041  21645855.02746  21645851.90449
 96 10 10 02 07 00.0000000  0  8 18 29 22 31 27 03 16 19
 -18182918.32249 -14168502.13447         0.00041  20362267.81047  20362266.07549
   1962538.99049   1529252.11147         0.00041  21389229.66647  21389228.89649
   4982190.78248   3882230.42946         0.00041  22760496.19946  22760494.45548
  -1232291.62848   -960227.24344         0.00041  24448494.94444  24448494.94448
  -4925537.06048  -3838077.15745         0.00041  24537428.19145  24537425.33948
  -7457813.54548  -5811279.05445         0.00041  23956251.31445  23956248.51548
  -9224458.20448  -7187887.40645         0.00041  23543747.47045  23543744.38848
 -19349473.33149 -15077500.69946         0.00041  21636702.09446  21636699.08549
 96 10 10 02 07 30.0000000  0  8 18 29 22 31 27 03 16 19
 -18215942.75149 -14194235.45047         0.00041  20355983.67647  20355981.98949
   2009315.85849   1565701.60747         0.00041  21398130.95947  21398130.34449
   5072653.96848   3952721.22146         0.00041  22777711.32346  22777708.72448
  -1320627.83648  -1029060.65244         0.00041  24431685.22444  24431685.22448
  -5002412.05148  -3897979.71145         0.00041  24522799.43445  24522796.98348
  -7512007.14848  -5853507.77845         0.00041  23945938.45545  23945936.55048
  -9304722.85648  -7250431.28245         0.00041  23528473.11645  23528469.54748
 -19397322.42549 -15114785.67946         0.00041  21627596.61746  21627593.78349
 96 10 10 02 08 00.0000000  0  8 18 29 22 31 27 03 16 19
 -18248524.18449 -14219623.57447         0.00041  20349783.52947  20349781.82449
   2056462.55949   1602439.29046         0.00041  21407102.44246  21407101.79249
   5163480.57248   4023495.19946         0.00041  22794995.35246  22794993.12448
  -1408882.01748  -1097830.14344         0.00041  24414891.82444  24414891.82448
  -5079142.38848  -3957769.55445         0.00041  24508198.15845  24508194.51148
  -7565831.85848  -5895449.07445         0.00041  23935695.32545  23935693.92648
  -9384560.96748  -7312642.79345         0.00041  23513280.72245  23513277.63148
 -19444898.17349 -15151857.66146         0.00041  21618543.30146  21618540.32449
 96 10 10 02 08 30.0000000  0  8 18 29 22 31 27 03 16 19
 -18280659.07849 -14244663.74247         0.00041  20343668.44747  20343666.91549
   2103958.74349   1639449.29646         0.00041  21416140.75946  21416140.03249
   5254665.75248   4094548.58346         0.00041  22812346.43146  22812345.05248
  -1497075.69848  -1166550.62844         0.00041  24398109.35944  24398109.35948
  -5155732.75248  -4017450.30945         0.00041  24493622.79845  24493619.59148
  -7619283.49048  -5937099.67145         0.00041  23925523.93745  23925522.07248
  -9463983.04648  -7374530.11745         0.00041  23498167.48545  23498165.18048
 -19492225.73049 -15188736.25046         0.00041  21609537.15546  21609533.98649
 96 10 10 02 09 00.0000000  0  8 18 29 22 31 27 03 16 19
 -18312379.50649 -14269380.95047         0.00041  20337632.28747  20337630.52649
   2151782.00849   1676714.17047         0.00041  21425241.37047  21425240.47149
   5346171.63448   4165851.86846         0.00041  22829758.93946  22829758.05248
  -1585236.09848  -1235247.03544         0.00041  24381332.41944  24381333.06848
  -5232210.23148  -4077043.12545         0.00041  24479071.14545  24479067.13648
  -7672392.03848  -5978482.93145         0.00041  23915417.37845  23915415.40348
  -9543013.58448  -7436112.34146         0.00041  23483128.90246  23483125.33448
 -19539348.82249 -15225455.51846         0.00041  21600569.84746  21600566.78849
 96 10 10 02 09 30.0000000  0  8 18 29 22 31 27 03 16 19
 -18343706.55149 -14293791.63047         0.00041  20331670.96247  20331669.37249
   2199967.25249   1714261.10146         0.00041  21434410.58946  21434409.93249
   5438002.48148   4237408.37246         0.00041  22847234.46246  22847233.09648
  -1673360.20248  -1303915.17744         0.00041  24364567.01944  24364563.37548
  -5308561.79948  -4136537.81645         0.00041  24464542.76945  24464538.72648
  -7725137.43048  -6019583.20445         0.00041  23905380.70245  23905378.95848
  -9621644.79148  -7497383.41146         0.00041  23468165.32646  23468162.52648
 -19586263.01549 -15262012.00846         0.00041  21591642.15046  21591639.29349
 96 10 10 02 10 00.0000000  0  8 18 29 22 31 27 03 16 19
 -18374878.73049 -14318081.63247         0.00041  20325739.31947  20325737.47349
   2248321.46849   1751939.70746         0.00041  21443612.33546  21443611.47449
   5529948.40048   4309054.55246         0.00041  22864731.87646  22864729.15848
  -1761658.80048  -1372719.26644         0.00041  24347764.28444  24347759.89748
  -5384982.32248  -4196086.24345         0.00041  24449998.84345  24449995.49548
  -7777712.21048  -6060550.54445         0.00041  23895376.00545  23895373.99248
  -9700068.59848  -7558492.87346         0.00041  23453242.54546  23453239.59248
 -19633167.21249 -15298560.71146         0.00041  21582716.64046  21582713.90549
 96 10 10 02 10 30.0000000  0  8 18 29 22 31 27 03 16 19
 -18405859.47549 -14342222.46647         0.00041  20319843.84847  20319842.31449
   2296905.10049   1789797.07446         0.00041  21452857.61546  21452856.52849
   5622072.34848   4380839.46146         0.00041  22882261.13046  22882260.02948
  -1850067.52848  -1441609.16544         0.00041  24330935.96144  24330935.96148
  -5461407.45548  -4255638.24945         0.00041  24435456.20245  24435452.17648
  -7830063.06048  -6101343.38845         0.00041  23885414.56345  23885412.19048
  -9778214.09748  -7619385.46945         0.00041  23438370.39645  23438367.28248
 -19679983.37049 -15335040.80746         0.00041  21573807.78346  21573804.80149
 96 10 10 02 11 00.0000000  0  8 18 29 22 31 27 03 16 19
 -18436655.90449 -14366219.67447         0.00041  20313983.11647  20313981.42649
   2345721.68749   1827835.96046         0.00041  21462146.98746  21462146.14249
   5714373.54848   4452762.45846         0.00041  22899825.88046  22899825.01048
  -1938579.12148  -1510579.08944         0.00041  24314092.91844  24314092.91848
  -5537841.67748  -4315197.35245         0.00041  24420908.50845  24420906.89848
  -7882197.69448  -6141967.73045         0.00041  23875493.65045  23875490.97748
  -9856071.96148  -7680053.89945         0.00041  23423554.34645  23423550.69748
 -19726691.36549 -15371436.62646         0.00041  21564919.66346  21564916.58849
 96 10 10 02 11 30.0000000  0  8 18 29 22 31 27 03 16 19
 -18466928.85049 -14389808.97747         0.00041  20308222.41647  20308220.92249
   2395101.50849   1866313.74346         0.00041  21471543.42946  21471542.88149
   5807190.76148   4525087.55646         0.00041  22917489.04846  22917486.56848
  -2026870.74248  -1579379.79944         0.00041  24297291.79944  24297291.79948
  -5613952.85648  -4374504.71145         0.00041  24406427.15045  24406423.71848
  -7933789.08948  -6182168.75445         0.00041  23865675.23045  23865673.24548
  -9933308.40648  -7740238.13646         0.00041  23408858.33646  23408855.23448
 -19772934.21549 -15407469.98946         0.00041  21556120.16346  21556117.21349
 96 10 10 02 12 00.0000000  0  8 18 29 22 31 27 03 16 19
 -18496863.43049 -14413134.61647         0.00041  20302526.24147  20302524.37649
   2444812.65149   1905049.69646         0.00041  21481003.37646  21481002.44549
   5900309.45448   4597647.58646         0.00041  22935209.75346  22935206.96948
  -2115165.37247  -1648180.80944         0.00041  24280489.46244  24280489.46247
  -5689969.12048  -4433738.10545         0.00041  24391960.77945  24391958.43948
  -7985067.44448  -6222125.88745         0.00041  23855917.61745  23855915.81048
 -10010147.22748  -7800112.54546         0.00041  23394235.55846  23394232.83448
 -19818923.05549 -15443305.42746         0.00041  21547368.59546  21547365.86749
 96 10 10 02 12 30.0000000  0  8 18 29 22 31 27 03 16 19
 -18526432.69249 -14436175.59447         0.00041  20296899.38247  20296897.70049
   2494851.86849   1944041.28046         0.00041  21490525.36546  21490524.52349
   5993707.54148   4670425.30646         0.00041  22952981.72946  22952980.76648
  -2203467.79747  -1716987.89444         0.00041  24263686.45844  24263686.45847
  -5765920.34748  -4492920.84045         0.00041  24377506.56545  24377504.28748
  -8036058.55848  -6261859.20845         0.00041  23846213.29545  23846212.29548
 -10086615.14648  -7859697.93146         0.00041  23379683.63346  23379680.60348
 -19864677.44449 -15478958.17546         0.00041  21538661.88546  21538658.85449
 96 10 10 02 13 00.0000000  0  7 18 29 22 27 03 16 19
 -18555558.79149 -14458871.24747         0.00041  20291356.63647  20291355.10249
   2545278.75349   1983334.94846         0.00041  21500121.24346  21500120.69149
   6087426.06948   4743452.71646         0.00041  22970815.48646  22970813.93548
  -5841766.52948  -4552021.62344         0.00041  24363077.33744  24363071.46348
  -8086693.86048  -6301315.29845         0.00041  23836577.29145  23836576.30648
 -10162671.76348  -7918962.82346         0.00041  23365210.56746  23365208.34748
 -19910160.89149 -15514399.80446         0.00041  21530006.66846  21530003.50549
 96 10 10 02 13 30.0000000  0  7 18 29 22 27 03 16 19
 -18584280.36049 -14481251.68547         0.00041  20285891.22047  20285889.57149
   2596045.71749   2022893.62546         0.00041  21509782.10246  21509781.35249
   6181411.24148   4816687.91846         0.00041  22988701.06846  22988698.58148
  -5917557.43648  -4611079.55145         0.00041  24348652.68045  24348649.02948
  -8137013.12848  -6340525.08145         0.00041  23827002.24245  23827000.79648
 -10238376.53548  -7977953.53446         0.00041  23350804.76746  23350801.64948
 -19955435.54549 -15549678.73346         0.00041  21521390.98646  21521387.92449
 96 10 10 02 14 00.0000000  0  7 18 29 22 27 03 16 19
 -18612556.34549 -14503284.91047         0.00041  20280510.38247  20280508.92449
   2647191.92449   2062747.80546         0.00041  21519514.94446  21519513.71249
   6275713.39648   4890170.12746         0.00041  23006645.82546  23006644.42348
  -5993250.73148  -4670061.27645         0.00041  24334247.86045  24334245.98848
  -8186964.48448  -6379448.14845         0.00041  23817497.43145  23817495.66448
 -10313674.16648  -8036626.98946         0.00041  23336476.52046  23336472.90848
 -20000476.36949 -15584775.45846         0.00041  21512819.87746  21512817.03849
 96 10 10 02 14 30.0000000  0  8 18 29 22 31 27 03 16 19
 -18640388.65149 -14524972.41347         0.00041  20275214.28147  20275212.59449
   2698747.99249   2102921.35546         0.00041  21529325.51646  21529324.86649
   6370351.74948   4963914.30446         0.00041  23024654.93846  23024653.00648
        -0.11958        -0.09354         0.00051  24196565.23754  24196565.23758
  -6068810.97548  -4728939.37845         0.00041  24319870.98445  24319867.26948
  -8236525.03648  -6418066.71845         0.00041  23808066.45345  23808065.34448
 -10388536.18548  -8094961.01246         0.00041  23322231.44446  23322228.26748
 -20045264.10349 -15619674.97246         0.00041  21504297.32646  21504294.38049
 96 10 10 02 15 00.0000000  0  8 18 29 22 31 27 03 16 19
 -18667894.06349 -14546405.19947         0.00041  20269979.90647  20269978.40749
   2750621.38849   2143342.17646         0.00041  21539196.93846  21539196.06649
   6465256.15548   5037865.79346         0.00041  23042714.06346  23042712.30448
    -88049.58148    -68609.62344         0.00041  24179810.61544  24179810.61548
  -6144311.83048  -4787771.16245         0.00041  24305502.20345  24305499.93148
  -8285769.30848  -6456438.86145         0.00041  23798695.52845  23798693.77948
 -10463036.26848  -8153013.00946         0.00041  23308053.30846  23308050.40248
 -20089879.04849 -15654439.84746         0.00041  21495807.16946  21495804.22349
 96 10 10 02 15 30.0000000  0  8 18 29 22 31 27 03 16 19
 -18695002.37349 -14567528.54747         0.00041  20264821.25547  20264819.73049
   2802887.71149   2184069.17246         0.00041  21549142.60446  21549141.73249
   6560515.36348   5112093.73746         0.00041  23060841.16946  23060839.94848
   -176002.23847   -137144.60144         0.00041  24163073.52944  24163073.52947
  -6219659.92148  -4846483.92845         0.00041  24291164.31845  24291161.46748
  -8334608.13648  -6494495.07345         0.00041  23789400.90945  23789399.38548
 -10537056.34248  -8210690.98746         0.00041  23293967.94346  23293964.89248
 -20134224.27749 -15688994.55046         0.00041  21487368.42946  21487365.34249
 96 10 10 02 16 00.0000000  0  7 18 29 22 27 03 16 19
 -18721811.50349 -14588418.77247         0.00041  20259720.08147  20259718.48249
   2855442.79049   2225021.18246         0.00041  21559143.60046  21559142.91049
   6656018.25748   5186511.58046         0.00041  23079015.66446  23079013.96748
  -6294943.85448  -4905146.70045         0.00041  24276839.34545  24276834.79148
  -8383128.61748  -6532303.19345         0.00041  23780167.71645  23780166.10948
 -10610692.03948  -8268069.44346         0.00041  23279955.88346  23279953.32848
 -20178398.01149 -15723415.62146         0.00041  21478962.51046  21478959.50049
 96 10 10 02 16 30.0000000  0  7 18 29 22 27 03 16 19
 -18748367.04049 -14609111.39247         0.00041  20254666.42647  20254664.93549
   2908226.43149   2266151.29246         0.00041  21569188.29046  21569187.09549
   6751681.06348   5261054.02446         0.00041  23097218.52746  23097218.05748
  -6370228.50948  -4963810.02645         0.00041  24262512.96845  24262508.81648
  -8431382.26948  -6569903.40045         0.00041  23770986.27045  23770984.70748
 -10684019.92748  -8325208.04646         0.00041  23266001.87446  23265998.84248
 -20222465.42849 -15757753.85246         0.00041  21470576.84746  21470574.07049
 96 10 10 02 17 00.0000000  0  7 18 29 22 27 03 16 19
 -18774627.02349 -14629573.70547         0.00041  20249669.51647  20249667.95749
   2961247.82949   2307466.65046         0.00041  21579277.73546  21579276.76949
   6847525.97548   5335738.36946         0.00041  23115457.55346  23115457.03848
  -6445494.35448  -5022458.69145         0.00041  24248190.10045  24248186.21348
  -8479327.56348  -6607263.33245         0.00041  23761862.15945  23761861.22548
 -10756996.80848  -8382073.13646         0.00041  23252114.79346  23252111.60348
 -20266405.05749 -15791992.50146         0.00041  21462215.40046  21462213.21549
 96 10 10 02 17 30.0000000  0  8 18 29 22 31 27 03 16 19
 -18800418.40949 -14649670.88747         0.00041  20244761.44047  20244759.89349
   3014644.96049   2349074.79346         0.00041  21589438.58946  21589438.01449
   6943683.13848   5410666.03246         0.00041  23133756.33846  23133754.42248
        -0.85957        -0.66954         0.00051  24096069.65154  24096069.65157
  -6520581.92448  -5080968.46745         0.00041  24233900.80345  24233896.91748
  -8526809.25748  -6644262.03145         0.00041  23752826.52745  23752825.52348
 -10829468.80748  -8438544.81346         0.00041  23238323.87846  23238320.59148
 -20310069.77649 -15826016.93546         0.00041  21453906.11746  21453903.92849
 96 10 10 02 18 00.0000000  0  8 18 29 22 31 27 03 16 19
 -18825752.08949 -14669411.40647         0.00041  20239940.55047  20239939.03749
   3068402.13449   2390963.49646         0.00041  21599668.10946  21599667.65149
   7040134.63848   5485823.04946         0.00041  23152110.63046  23152107.85048
    -88644.94647    -69073.98444         0.00041  24079344.07344  24079344.07347
  -6595507.82048  -5139352.25445         0.00041  24219641.61145  24219638.47448
  -8573852.96048  -6680919.44645         0.00041  23743874.45645  23743872.30548
 -10901472.59748  -8494651.64546         0.00041  23224621.44346  23224618.54348
 -20353483.34049 -15859845.66646         0.00041  21445644.79846  21445642.31549
 96 10 10 02 18 30.0000000  0  7 18 29 22 27 03 16 19
 -18850780.54749 -14688914.09147         0.00041  20235177.97147  20235176.16749
   3122373.39549   2433019.02346         0.00041  21609938.61346  21609937.86449
   7136735.32748   5561096.30446         0.00041  23170492.20746  23170490.68148
  -6670436.56848  -5197738.25645         0.00041  24205384.82745  24205380.09348
  -8620625.64448  -6717365.63445         0.00041  23734974.85045  23734972.10148
 -10973141.31848  -8550497.39046         0.00041  23210984.19146  23210981.00448
 -20396787.32649 -15893589.00946         0.00041  21437403.86646  21437401.62649
 96 10 10 02 19 00.0000000  0  8 18 29 22 31 27 03 16 19
 -18875483.77049 -14708163.35347         0.00041  20230476.77547  20230475.46449
   3176598.51649   2475272.35346         0.00041  21620257.73246  21620256.76049
   7233534.24748   5636524.03646         0.00041  23188912.23246  23188910.80748
        -1.21658        -0.82654         0.00051  24045886.32654  24045883.26958
  -6745328.28248  -5256095.41645         0.00041  24191132.07045  24191128.25948
  -8667099.34948  -6753578.88445         0.00041  23726130.32045  23726129.14548
 -11044430.98348  -8606047.77146         0.00041  23197417.53746  23197414.47548
 -20439927.76349 -15927204.90946         0.00041  21429194.84146  21429192.47349
 96 10 10 02 19 30.0000000  0  8 18 29 22 31 27 03 16 19
 -18899756.54149 -14727077.19247         0.00041  20225858.10147  20225856.40149
   3231191.04749   2517811.98146         0.00041  21630646.49646  21630645.30949
   7330633.16948   5712185.53446         0.00041  23207390.33546  23207388.45548
    -87786.94948    -68405.29844         0.00041  24029177.21744  24029177.21748
  -6820088.61848  -5314350.19645         0.00041  24176906.62245  24176903.44448
  -8713179.44148  -6789485.42545         0.00041  23717361.08645  23717360.13048
 -11115257.48048  -8661237.23046         0.00041  23183940.22746  23183937.38548
 -20482791.95249 -15960605.55546         0.00041  21421038.21646  21421035.45649
 96 10 10 02 20 00.0000000  0  8 18 29 22 31 27 03 16 19
 -18923641.52849 -14745688.86347         0.00041  20221313.02547  20221311.32649
   3286132.72849   2560623.66846         0.00041  21641101.11546  21641100.33149
   7427999.70248   5788055.56046         0.00041  23225918.83146  23225917.05848
   -175489.18548   -136744.82044         0.00041  24012488.04244  24012488.04248
  -6894781.02748  -5372552.06045         0.00041  24162692.53745  24162690.20348
  -8758909.16448  -6825118.94245         0.00041  23708660.25845  23708658.30648
 -11185665.80948  -8716100.85346         0.00041  23170542.24546  23170539.04948
 -20525424.40649 -15993825.63246         0.00041  21412925.37146  21412922.59849
 96 10 10 02 20 30.0000000  0  8 18 29 22 31 27 03 16 19
 -18947078.68549 -14763951.57747         0.00041  20216852.78447  20216851.46449
   3341500.67849   2603767.51846         0.00041  21651637.71746  21651636.74549
   7525690.88148   5864178.55946         0.00041  23244508.20546  23244507.35848
   -263048.45847   -204972.82444         0.00041  23995826.57144  23995826.57147
  -6969348.16148  -5430656.30445         0.00041  24148502.70545  24148500.27948
  -8804212.49548  -6860420.19045         0.00041  23700038.63745  23700036.84048
 -11255597.41648  -8770593.00346         0.00041  23157234.07646  23157230.39648
 -20567770.27649 -16026822.39546         0.00041  21404867.03846  21404864.47749
 96 10 10 02 21 00.0000000  0  8 18 29 22 31 27 03 16 19
 -18970063.51249 -14781861.82547         0.00041  20212478.95947  20212477.36649
   3397300.59449   2647247.96446         0.00041  21662256.05546  21662255.01949
   7623699.18448   5940548.66246         0.00041  23263159.44246  23263157.61748
   -350465.53947   -273090.03044         0.00041  23979191.33544  23979191.33547
  -7043768.33948  -5488646.03145         0.00041  24134340.41745  24134338.28748
  -8849056.28048  -6895363.38045         0.00041  23691504.50445  23691503.49048
 -11325056.45348  -8824716.92846         0.00041  23144017.47446  23144014.38148
 -20609833.65449 -16059599.03246         0.00041  21396862.61246  21396860.14749
 96 10 10 02 21 30.0000000  0  8 18 29 22 31 27 03 16 19
 -18992812.44149 -14799588.25447         0.00041  20208150.19047  20208148.62249
   3453302.12149   2690885.50946         0.00041  21672912.61046  21672911.76649
   7721761.99448   6016961.23945         0.00041  23281820.26945  23281818.39648
   -437980.05948   -341283.16344         0.00041  23962538.68644  23962538.68648
  -7118280.13048  -5546707.14145         0.00041  24120161.81045  24120159.00748
  -8893656.18348  -6930116.53845         0.00041  23683018.37845  23683015.82148
 -11394260.28148  -8878641.98146         0.00041  23130848.43946  23130845.29648
 -20651852.65149 -16092341.08646         0.00041  21388866.65146  21388864.12349
 96 10 10 02 22 00.0000000  0  8 18 29 22 31 27 03 16 19
 -19015186.46449 -14817022.55447         0.00041  20203892.29447  20203890.75749
   3509660.60349   2734801.20446         0.00041  21683636.88846  21683636.23849
   7820017.57048   6093524.01445         0.00041  23300517.15845  23300515.03448
   -525438.70948   -409432.29644         0.00041  23945894.81544  23945894.81548
  -7192727.58248  -5604718.12345         0.00041  24105995.06245  24105991.84448
  -8937848.46248  -6964552.03845         0.00041  23674607.91045  23674606.56248
 -11463046.35248  -8932241.50946         0.00041  23117757.02746  23117753.81048
 -20693678.99449 -16124933.01446         0.00041  21380907.81446  21380904.96949
 96 10 10 02 22 30.0000000  0  8 18 29 22 31 27 03 16 19
 -19037099.65549 -14834097.75947         0.00041  20199722.52347  20199720.88249
   3566455.90149   2779057.27546         0.00041  21694444.67246  21694444.18149
   7918561.31448   6170311.36145         0.00041  23319270.13945  23319267.24448
   -612729.69348   -477451.23244         0.00041  23929287.92044  23929284.36248
  -7266994.14348  -5662588.15245         0.00041  24091862.22045  24091858.70948
  -8981523.17048  -6998584.23145         0.00041  23666297.60445  23666295.96348
 -11531303.34848  -8985428.77846         0.00041  23104769.45746  23104765.97548
 -20735198.71149 -16157286.02046         0.00041  21373006.69446  21373004.21849
 96 10 10 02 23 00.0000000  0  8 18 29 22 31 27 03 16 19
 -19058617.24949 -14850864.71147         0.00041  20195627.88347  20195626.15649
   3623599.55749   2823584.79046         0.00041  21705319.50546  21705318.33149
   8017319.53848   6247265.81745         0.00041  23338062.92245  23338059.89348
   -699912.27348   -545385.66644         0.00041  23912695.76844  23912695.50548
  -7341140.34548  -5720364.39345         0.00041  24077753.31945  24077749.38948
  -9024762.38948  -7032277.10345         0.00041  23658068.36445  23658067.79648
 -11599085.23948  -9038245.82146         0.00041  23091870.93046  23091867.75648
 -20776460.32749 -16189437.90146         0.00041  21365155.03846  21365152.74849
 96 10 10 02 23 30.0000000  0  8 18 29 22 31 27 03 16 19
 -19079795.86349 -14867367.52047         0.00041  20191597.60647  20191596.17649
   3681027.08549   2868333.49146         0.00041  21716247.57746  21716246.43249
   8116248.62848   6324353.42345         0.00041  23356888.05845  23356884.83248
   -787039.73048   -613277.19044         0.00041  23896115.74144  23896115.52548
  -7415235.08448  -5778100.55245         0.00041  24063653.47545  24063650.66048
  -9067659.37448  -7065703.31845         0.00041  23649905.09045  23649904.44948
 -11666453.21748  -9090740.33546         0.00041  23079050.60946  23079047.30548
 -20817526.27849 -16221437.31646         0.00041  21357340.59246  21357338.33349
 96 10 10 02 24 00.0000000  0  8 18 29 22 31 27 03 16 19
 -19100609.76949 -14883586.14447         0.00041  20187636.87847  20187635.22649
   3738762.34449   2913321.98846         0.00041  21727233.92646  21727232.84749
   8215409.70048   6401621.78845         0.00041  23375757.30545  23375756.04148
   -874079.17148   -681100.12744         0.00041  23879555.06244  23879551.69448
  -7489228.36048  -5835757.60945         0.00041  24049572.62845  24049570.41948
  -9110192.30248  -7098845.83045         0.00041  23641812.39045  23641810.70848
 -11733388.88948  -9142897.99646         0.00041  23066313.25646  23066310.23848
 -20858374.84249 -16253267.34746         0.00041  21349567.33846  21349565.12449
 96 10 10 02 24 30.0000000  0  8 18 29 22 31 27 03 16 19
 -19120933.12149 -14899422.51647         0.00041  20183769.34947  20183768.17449
   3796916.45749   2958636.88046         0.00041  21738300.24346  21738299.58349
   8314914.10148   6479157.67645         0.00041  23394693.05845  23394692.56948
   -960918.38648   -748766.97144         0.00041  23863026.89144  23863026.34948
  -7563004.32148  -5893245.35545         0.00041  24035533.87545  24035530.75748
  -9152263.15748  -7131628.28245         0.00041  23633807.80045  23633804.76448
 -11799780.72648  -9194631.89246         0.00041  23053679.43246  23053676.32648
 -20898894.39249 -16284841.00046         0.00041  21341856.52446  21341854.20949
 96 10 10 02 25 00.0000000  0  8 18 29 22 31 27 03 16 19
 -19140751.94849 -14914865.75247         0.00041  20179997.88747  20179996.50749
   3855490.23049   3004278.78646         0.00041  21749446.55746  21749446.00349
   8414744.36948   6556947.48645         0.00041  23413690.67945  23413688.40648
  -1047568.54348   -816286.55044         0.00041  23846538.02044  23846537.22048
  -7636574.02248  -5950572.37445         0.00041  24021534.33445  24021531.54548
  -9193884.24948  -7164060.27845         0.00041  23625886.75745  23625885.06548
 -11865636.94648  -9245948.42346         0.00041  23041147.64346  23041144.45848
 -20939112.10749 -16316179.45846         0.00041  21334203.17546  21334200.89249
 96 10 10 02 25 30.0000000  0  8 18 29 22 31 27 03 16 19
 -19160182.97149 -14930006.80147         0.00041  20176300.55647  20176298.86549
   3914378.68449   3050165.89146         0.00041  21760652.55746  21760651.94649
   8514784.27648   6634900.67045         0.00041  23432727.12845  23432725.39148
  -1134151.02148   -883753.39644         0.00041  23830062.10144  23830061.38648
  -7710078.91648  -6007848.89645         0.00041  24007546.89045  24007543.44648
  -9235155.86848  -7196219.96445         0.00041  23618031.38745  23618030.90348
 -11931073.22948  -9296937.72246         0.00041  23028695.55846  23028692.56448
 -20979167.94649 -16347391.77646         0.00041  21326580.88246  21326578.33049
 96 10 10 02 26 00.0000000  0  8 18 29 22 31 27 03 16 19
 -19179232.46449 -14944850.55547         0.00041  20172675.21147  20172673.85849
   3973581.91949   3096298.26046         0.00041  21771918.81946  21771917.58749
   8615020.69348   6713006.95545         0.00041  23451800.19945  23451800.74748
  -1220671.81248   -951172.11944         0.00041  23813599.12744  23813596.98348
  -7783535.26748  -6065087.60045         0.00041  23993568.66645  23993565.50748
  -9276052.20848  -7228087.22645         0.00041  23610250.97245  23610248.20548
 -11996079.51948  -9347591.96546         0.00041  23016324.52346  23016321.40148
 -21019064.22849 -16378479.77246         0.00041  21318988.84146  21318986.12749
 96 10 10 02 26 30.0000000  0  8 18 29 22 31 27 03 16 19
 -19197901.09049 -14959397.52947         0.00041  20169123.05547  20169121.47949
   4033100.38049   3142676.26146         0.00041  21783244.87646  21783243.56249
   8715445.85348   6791260.32545         0.00041  23470910.11245  23470910.12548
  -1307120.35748  -1018534.59044         0.00041  23797148.99244  23797146.20348
  -7856959.47748  -6122301.25745         0.00041  23979595.90945  23979593.44348
  -9316566.78048  -7259657.00145         0.00041  23602540.63245  23602539.11948
 -12060636.57748  -9397896.16246         0.00041  23004039.61346  23004036.46248
 -21058803.39549 -16409445.33846         0.00041  21311426.27746  21311424.07049
 96 10 10 02 27 00.0000000  0  8 18 29 22 31 27 03 16 19
 -19216413.95049 -14973823.13047         0.00041  20165599.98047  20165598.40749
   4092690.50549   3189110.11746         0.00041  21794584.17546  21794583.37249
   8815847.44648   6869495.32445         0.00041  23490016.42345  23490014.26048
  -1393716.28448  -1086011.88744         0.00041  23780670.32544  23780667.63048
  -7930575.25048  -6179664.17045         0.00041  23965587.64745  23965584.67848
  -9356921.45748  -7291102.21245         0.00041  23594862.22745  23594859.56948
 -12124964.89648  -9448022.12946         0.00041  22991799.06946  22991796.45948
 -21098628.48649 -16440477.84946         0.00041  21303847.76946  21303845.92449
 96 10 10 02 27 30.0000000  0  8 18 29 22 31 27 03 16 19
 -19234634.88249 -14988021.25147         0.00041  20162132.76847  20162131.46349
   4152491.65749   3235708.41346         0.00041  21805963.81646  21805963.41549
   8916374.85548   6947828.38945         0.00041  23509146.50945  23509145.10648
  -1480306.72048  -1153484.88944         0.00041  23764193.69344  23764190.15948
  -8004232.70148  -6237059.54045         0.00041  23951571.43445  23951568.21448
  -9396971.76548  -7322310.65044         0.00041  23587240.20944  23587238.23548
 -12188927.84648  -9497863.38446         0.00041  22979627.55846  22979624.72848
 -21138386.37449 -16471457.99246         0.00041  21296282.22246  21296280.04149
 96 10 10 02 28 00.0000000  0  8 18 29 22 31 27 03 16 19
 -19252460.43049 -15001911.28548         0.00041  20158740.77948  20158739.06749
   4212588.52549   3282537.13946         0.00041  21817399.95346  21817399.48949
   9017102.21548   7026317.22745         0.00041  23528315.52145  23528313.29948
  -1566793.14348  -1220876.84044         0.00041  23747736.99944  23747732.67648
  -8077808.99048  -6294391.71645         0.00041  23937570.22545  23937566.76148
  -9436634.70948  -7353218.87046         0.00041  23579693.28646  23579690.93548
 -12252447.12748  -9547358.91546         0.00041  22967539.33846  22967536.16848
 -21177975.58849 -16502306.70746         0.00041  21288748.62546  21288746.10349
 96 10 10 02 28 30.0000000  0  8 18 29 22 31 27 03 16 19
 -19269818.25849 -15015436.85947         0.00041  20155437.23047  20155435.86349
   4273044.57449   3329645.74546         0.00041  21828904.33346  21828903.63949
   9118081.53948   7105002.43245         0.00041  23547529.55445  23547528.24548
  -1653108.57948  -1288135.56844         0.00041  23731307.22144  23731306.71948
  -8151220.49648  -6351595.46845         0.00041  23923599.84245  23923596.58248
  -9475858.30548  -7383781.03145         0.00041  23572228.72445  23572226.93948
 -12315472.45348  -9596469.54246         0.00041  22955546.14046  22955542.96548
 -21217317.71649 -16532962.88546         0.00041  21281262.10846  21281259.45149
 96 10 10 02 29 00.0000000  0  8 18 29 22 31 27 03 16 19
 -19286697.50949 -15028589.51748         0.00041  20152225.65848  20152223.89649
   4333871.59149   3377043.41046         0.00041  21840479.57246  21840478.62449
   9219295.18548   7183870.21745         0.00041  23566788.64745  23566787.88048
  -1739254.43048  -1355262.21844         0.00041  23714915.86144  23714913.31148
  -8224457.06248  -6408662.88845         0.00041  23909663.53345  23909660.48748
  -9514630.47448  -7413993.13445         0.00041  23564850.48445  23564848.23748
 -12378014.40548  -9645203.52646         0.00041  22943645.85846  22943642.64648
 -21256382.33949 -16563402.83346         0.00041  21273827.94246  21273825.57649
 96 10 10 02 29 30.0000000  0  8 18 29 22 31 27 03 16 19
 -19303124.82149 -15041390.01647         0.00041  20149099.46047  20149097.85449
   4395075.02449   3424734.38346         0.00041  21852126.22746  21852125.00549
   9320705.24848   7262891.04345         0.00041  23586087.92045  23586086.03648
  -1825250.44948  -1422272.09644         0.00041  23698554.69044  23698549.29148
  -8297556.41348  -6465623.39745         0.00041  23895752.61945  23895750.28448
  -9552946.93048  -7443850.10845         0.00041  23557558.18645  23557556.84948
 -12440096.94748  -9693579.52946         0.00041  22931831.00246  22931828.05248
 -21295165.35449 -16593623.35246         0.00041  21266447.93746  21266445.29949
 96 10 10 02 30 00.0000000  0  8 18 29 22 31 27 03 16 19
 -19319128.28749 -15053860.24247         0.00041  20146054.00147  20146052.63549
   4456634.66649   3472702.91946         0.00041  21863840.56746  21863839.83449
   9422287.44448   7342045.99445         0.00041  23605418.20645  23605417.59748
  -1911124.58448  -1489186.99344         0.00041  23682208.88144  23682208.61148
  -8370557.01548  -6522506.96645         0.00041  23881861.93245  23881858.60848
  -9590822.28048  -7473363.33445         0.00041  23550351.32845  23550349.61348
 -12501726.08048  -9741602.22246         0.00041  22920103.48246  22920100.36448
 -21333688.83549 -16623641.63246         0.00041  21259117.26646  21259114.56549
 96 10 10 02 30 30.0000000  0  8 18 29 22 31 27 03 16 19
 -19334709.06749 -15066001.10948         0.00041  20143089.22548  20143087.70449
   4518550.69549   3520949.16746         0.00041  21875622.85146  21875622.13649
   9524054.76548   7421345.21245         0.00041  23624785.94745  23624783.91648
  -1996865.69148  -1555998.22544         0.00041  23665896.03644  23665892.99848
  -8443468.23748  -6579320.88945         0.00041  23867986.51445  23867984.28548
  -9628248.61148  -7502526.71045         0.00041  23543229.41445  23543228.02248
 -12562889.47948  -9789262.00646         0.00041  22908465.04646  22908462.29548
 -21371952.88849 -16653457.75747         0.00041  21251835.94447  21251833.58749
 96 10 10 02 31 00.0000000  0  8 18 29 22 31 27 03 16 19
 -19349847.31549 -15077797.14247         0.00041  20140208.31647  20140206.99749
   4580839.87849   3569486.18646         0.00041  21887476.01046  21887475.26149
   9626032.44948   7500808.33845         0.00041  23644191.74845  23644189.43248
  -2082442.82048  -1622681.64844         0.00041  23649607.90744  23649607.37348
  -8516283.62248  -6636060.13245         0.00041  23854130.73645  23854127.77948
  -9665195.86548  -7531316.76245         0.00041  23536198.28045  23536197.07948
 -12623556.81148  -9836535.23946         0.00041  22896919.88846  22896916.74048
 -21409960.83549 -16683074.31847         0.00041  21244603.36947  21244601.17449
 96 10 10 02 31 30.0000000  0  8 18 29 22 31 27 03 16 19
 -19364554.63649 -15089257.38648         0.00041  20137409.57848  20137408.16049
   4643476.42249   3618293.87246         0.00041  21899395.55646  21899394.18149
   9728216.83948   7580432.55745         0.00041  23663636.64545  23663633.45448
  -2167864.70048  -1689244.07944         0.00041  23633350.88644  23633351.13848
  -8589018.86548  -6692736.91345         0.00041  23840289.74645  23840287.28948
  -9701685.48948  -7559750.19745         0.00041  23529253.41345  23529252.49448
 -12683728.11848  -9883421.96946         0.00041  22885469.62546  22885466.44548
 -21447753.58549 -16712523.19747         0.00041  21237411.37247  21237409.31149
 96 10 10 02 32 00.0000000  0  8 18 29 22 31 27 03 16 19
 -19378818.08549 -15100371.75847         0.00041  20134695.25447  20134694.09749
   4706437.45549   3667354.40946         0.00041  21911376.38146  21911375.36749
   9830598.03348   7660210.09745         0.00041  23683117.02845  23683115.83848
  -2253123.98948  -1755679.82844         0.00041  23617129.45344  23617127.13848
  -8661658.65048  -6749339.32045         0.00041  23826467.02445  23826464.70548
  -9737737.62548  -7587842.74645         0.00041  23522394.00645  23522392.50848
 -12743393.38648  -9929914.37446         0.00041  22874115.92946  22874113.18348
 -21485340.20849 -16741811.46047         0.00041  21230258.84147  21230256.89149
 96 10 10 02 32 30.0000000  0  8 18 29 22 31 27 03 16 19
 -19392620.05649 -15111126.53247         0.00041  20132069.07047  20132067.50049
   4769731.50649   3716674.44946         0.00041  21923420.59146  21923420.02649
   9933173.67048   7740139.16545         0.00041  23702636.14045  23702635.94148
  -2338204.15548  -1821975.99744         0.00041  23600940.47844  23600937.89648
  -8734185.83948  -6805853.98945         0.00041  23812664.93745  23812662.31948
  -9773334.71948  -7615580.71945         0.00041  23515620.58445  23515618.80348
 -12802537.56148  -9976000.73246         0.00041  22862860.92646  22862857.74748
 -21522709.26749 -16770930.18947         0.00041  21223148.16647  21223145.82949
 96 10 10 02 33 00.0000000  0  8 18 29 22 31 27 03 16 19
 -19405978.73749 -15121535.89248         0.00041  20129527.12948  20129525.57749
   4833353.23049   3766249.81646         0.00041  21935527.72446  21935527.20749
  10035933.39948   7820211.67745         0.00041  23722192.77945  23722190.28348
  -2423114.76648  -1888140.05644         0.00041  23584779.82144  23584780.05248
  -8806608.88448  -6862287.49545         0.00041  23798883.49145  23798880.27648
  -9808474.50748  -7642962.35445         0.00041  23508933.36045  23508931.49848
 -12861150.67648 -10021673.27446         0.00041  22851707.08746  22851703.99548
 -21559866.88749 -16799884.16347         0.00041  21216077.33147  21216074.85449
 96 10 10 02 33 30.0000000  0  8 18 29 22 31 27 03 16 19
 -19418932.03049 -15131629.36047         0.00041  20127061.74547  20127060.48549
   4897257.29649   3816045.18146         0.00041  21947688.10346  21947687.49749
  10138820.67548   7900383.57545         0.00041  23741770.66245  23741767.95148
  -2507896.77348  -1954203.91744         0.00041  23568648.11444  23568646.59848
  -8878965.61748  -6918669.33545         0.00041  23785113.21545  23785111.55848
  -9843199.31448  -7670020.61645         0.00041  23502325.39345  23502324.05648
 -12919267.15148 -10066958.84046         0.00041  22840647.79446  22840645.16448
 -21596845.15949 -16828698.38647         0.00041  21209040.56647  21209038.15049
 96 10 10 02 34 00.0000000  0  8 18 29 22 31 27 03 16 19
 -19431475.88849 -15141403.79248         0.00041  20124675.02848  20124673.76249
   4961456.70649   3866070.67446         0.00041  21959904.97346  21959903.91649
  10241830.31248   7980650.83345         0.00041  23761372.11645  23761369.59348
  -2592536.51048  -2020156.93144         0.00041  23552542.70244  23552539.24448
  -8951243.70448  -6974989.87845         0.00041  23771360.63345  23771357.64048
  -9877496.19748  -7696745.44046         0.00041  23495798.23446  23495797.62948
 -12976887.64248 -10111857.91446         0.00041  22829683.67546  22829680.38148
 -21633625.34449 -16857358.25447         0.00041  21202041.27747  21202039.10149
 96 10 10 02 34 30.0000000  0  8 18 29 22 31 27 03 16 19
 -19443600.70649 -15150851.69748         0.00041  20122367.67848  20122366.19349
   5025987.62149   3916354.48246         0.00041  21972184.90746  21972183.81549
  10344997.99448   8061041.24745         0.00041  23781005.28445  23781002.48648
  -2677009.99248  -2085980.38544         0.00041  23536465.91944  23536464.41048
  -9023416.95848  -7031228.74245         0.00041  23757626.16845  23757623.02848
  -9911348.50548  -7723123.82545         0.00041  23489356.59545  23489354.85548
 -13034012.67948 -10156370.92046         0.00041  22818812.56446  22818809.33948
 -21670192.67849 -16885852.25847         0.00041  21195082.39747  21195080.21849
 96 10 10 02 35 00.0000000  0  7 18 29 22 31 27 03 16
 -19455314.35249 -15159979.20748         0.00041  20120138.62648  20120137.36349
   5090852.61649   3966898.62446         0.00041  21984528.48146  21984527.60749
  10448322.30748   8141553.68445         0.00041  23800665.19645  23800664.60248
  -2761325.06748  -2151680.41445         0.00041  23520421.15945  23520420.30748
  -9095491.10648  -7087390.38446         0.00041  23743910.79546  23743907.80148
  -9944772.66848  -7749168.58045         0.00041  23482996.68145  23482994.74748
 -13090663.03448 -10200514.04246         0.00041  22808032.27046  22808029.28548
 96 10 10 02 35 30.0000000  0  7 18 29 22 31 27 03 16
 -19466595.98249 -15168770.08248         0.00041  20117991.97148  20117990.35049
   5156072.47949   4017719.29246         0.00041  21996939.07946  21996938.39849
  10551814.97148   8222197.31945         0.00041  23820359.69745  23820359.02048
  -2845463.41648  -2217242.74645         0.00041  23504411.39045  23504408.99648
  -9167451.83048  -7143463.63845         0.00041  23730216.84945  23730214.50048
  -9977758.30448  -7774871.66046         0.00041  23476720.24846  23476718.54148
 -13146847.88448 -10244294.42946         0.00041  22797341.02746  22797338.21648
 96 10 10 02 36 00.0000000  0  8 18 29 22 31 27 03 16 19
 -19477448.20449 -15177226.35348         0.00041  20115926.62748  20115925.45349
   5221673.92449   4068837.28446         0.00041  22009422.79346  22009421.93049
  10655508.61048   8302997.56545         0.00041  23840093.57345  23840091.72848
  -2929417.81648  -2282661.73145         0.00041  23488436.13045  23488432.93548
  -9239288.39348  -7199440.14445         0.00041  23716547.52745  23716544.51548
 -10010293.77148  -7800223.96046         0.00041  23470528.06846  23470527.13648
 -13202567.92748 -10287712.63946         0.00041  22786737.95246  22786734.60948
        -0.73559         0.59457         0.00051  21174445.77757  21174443.44559
 96 10 10 02 36 30.0000000  0  8 18 29 22 31 27 03 16 19
 -19487907.11449 -15185376.14648         0.00041  20113936.57848  20113934.94349
   5287628.58949   4120230.51946         0.00041  22021973.26446  22021972.62849
  10759375.57748   8383932.86145         0.00041  23859858.47245  23859857.38148
  -3013227.31548  -2347967.81945         0.00041  23472486.54845  23472484.23048
  -9311051.59548  -7255359.47846         0.00041  23702891.54146  23702888.67448
 -10042411.66748  -7825250.85446         0.00041  23464416.26246  23464414.35948
 -13257848.77648 -10330788.61046         0.00041  22776217.30046  22776214.63348
    -35747.35149    -27853.89947         0.00041  21167643.42547  21167641.31549
 96 10 10 02 37 00.0000000  0  8 18 29 22 31 27 03 16 19
 -19498054.68549 -15193283.34248         0.00041  20112005.35048  20112004.12349
   5353837.01849   4171821.50746         0.00041  22034572.72346  22034571.83849
  10863312.42648   8464922.59745         0.00041  23879635.35345  23879635.67748
  -3096978.12948  -2413228.17845         0.00041  23456547.83645  23456547.32848
  -9382841.98848  -7311300.00046         0.00041  23689230.53146  23689228.12848
 -10074181.67548  -7850006.65245         0.00041  23458369.67645  23458368.79748
 -13312752.54548 -10373570.76046         0.00041  22765770.79646  22765767.76748
    -71401.14149    -55636.05647         0.00041  21160858.50047  21160856.68249
 96 10 10 02 37 30.0000000  0  8 18 29 22 31 27 03 16 19
 -19507819.14149 -15200892.00248         0.00041  20110147.40048  20110145.85749
   5420351.89949   4223651.28146         0.00041  22047229.91946  22047229.06049
  10967383.55948   8546016.99545         0.00041  23899439.21245  23899439.19248
  -3180589.72048  -2478380.03545         0.00041  23440639.17645  23440636.54948
  -9454600.23948  -7367215.47846         0.00041  23675575.99446  23675573.09448
 -10105536.56348  -7874439.02145         0.00041  23452403.45345  23452402.50948
 -13367200.39348 -10415997.64346         0.00041  22755409.19246  22755405.93548
   -106896.22249    -83294.53647         0.00041  21154104.01547  21154102.31149
 96 10 10 02 38 00.0000000  0  8 18 29 22 31 27 03 16 19
 -19517127.13749 -15208144.98348         0.00041  20108376.01148  20108374.64649
   5487228.21549   4275762.67946         0.00041  22059956.03646  22059955.20949
  11071646.37248   8627260.75145         0.00041  23919281.50345  23919279.51648
  -3263992.71048  -2543369.34145         0.00041  23424766.98645  23424765.15148
  -9526266.07248  -7423058.94445         0.00041  23661937.55045  23661934.93948
 -10136411.86348  -7898497.68846         0.00041  23446528.66246  23446527.03448
 -13421104.14648 -10458000.55946         0.00041  22745151.08146  22745148.04848
   -142180.22849   -110788.54547         0.00041  21147389.83347  21147387.88949
 96 10 10 02 38 30.0000000  0  8 18 29 22 31 27 03 16 19
 -19525917.63549 -15214994.71448         0.00041  20106703.33148  20106701.85549
   5554492.82249   4328176.64546         0.00041  22072756.19246  22072755.36749
  11176126.35748   8708673.74445         0.00041  23939164.30645  23939161.18348
  -3347131.39448  -2608152.71045         0.00041  23408945.52545  23408944.21548
  -9597788.16248  -7478790.40245         0.00041  23648327.16045  23648324.27948
 -10166760.13248  -7922145.64346         0.00041  23440754.12046  23440752.02748
 -13474399.39748 -10499529.31346         0.00041  22735010.28146  22735007.36348
   -177206.38449   -138081.63647         0.00041  21140724.43347  21140722.23849
 96 10 10 02 39 00.0000000  0  8 18 29 22 31 27 03 16 19
 -19534178.64449 -15221431.86048         0.00041  20105131.49948  20105130.06949
   5622134.49149   4380884.43046         0.00041  22085627.76946  22085627.15549
  11280825.40048   8790257.39545         0.00041  23959087.44445  23959084.31248
  -3429989.89248  -2672717.73945         0.00041  23393179.54645  23393177.02748
  -9669150.43048  -7534397.32046         0.00041  23634746.40546  23634743.28448
 -10196570.69048  -7945374.61246         0.00041  23435079.97346  23435079.57348
 -13527078.79548 -10540578.18446         0.00041  22724985.70246  22724982.49148
   -211953.03649   -165156.93547         0.00041  21134112.59247  21134109.91649
 96 10 10 02 39 30.0000000  0  8 18 29 22 31 27 03 16 19
 -19542240.01749 -15227713.44448         0.00041  20103597.40248  20103595.87349
   5689819.39649   4433625.90946         0.00041  22098508.17246  22098507.36649
  11385412.35648   8871753.74745         0.00041  23978989.70245  23978986.66348
  -3512902.45448  -2737324.88545         0.00041  23377400.42745  23377399.09548
  -9740686.12448  -7590139.37346         0.00041  23621133.42346  23621130.17548
 -10226177.96648  -7968445.20145         0.00041  23429446.24745  23429444.88448
 -13579483.12048 -10581412.71546         0.00041  22715012.80446  22715010.00048
   -246749.18449   -192270.80547         0.00041  21127491.14347  21127488.63449
 96 10 10 02 40 00.0000000  0  7 18 29 31 27 03 16 19
 -19550333.99049 -15234020.43448         0.00041  20102056.88548  20102055.60749
   5757323.34449   4486226.38546         0.00041  22111353.36446  22111352.62349
  -3596105.59548  -2802158.44545         0.00041  23361568.59045  23361566.20448
  -9812610.18648  -7646184.05446         0.00041  23607446.77846  23607443.30348
 -10255809.57748  -7991534.73846         0.00041  23423808.37646  23423805.96048
 -13631844.58648 -10622213.85246         0.00041  22705049.24546  22705046.23848
   -281818.66949   -219597.66447         0.00041  21120817.42447  21120815.27349
 96 10 10 02 40 30.0000000  0  7 18 29 31 27 03 16 19
 -19558203.18749 -15240152.27348         0.00041  20100559.59148  20100558.05549
   5824909.79149   4538891.13946         0.00041  22124215.15246  22124214.23449
  -3679328.89548  -2867007.72245         0.00041  23345731.19645  23345729.12048
  -9884657.45248  -7702324.73546         0.00041  23593736.69646  23593733.26048
 -10285192.81148  -8014430.72246         0.00041  23418216.26146  23418214.75448
 -13683916.71948 -10662789.53346         0.00041  22695140.27446  22695137.20548
   -316888.42249   -246924.72247         0.00041  21114143.75147  21114141.72749
 96 10 10 02 41 00.0000000  0  8 18 29 02 31 27 03 16 19
 -19565203.89449 -15245607.36848         0.00041  20099227.26048  20099226.14849
   5893221.97649   4592121.39146         0.00041  22137214.28946  22137213.30049
        -0.33258        -0.25954         0.00051  25487935.55954  25487935.55958
  -3761923.00948  -2931366.70745         0.00041  23330014.57045  23330011.62048
  -9956191.91748  -7758065.82346         0.00041  23580124.65046  23580120.55848
 -10313678.24248  -8036627.13246         0.00041  23412795.83346  23412794.80848
 -13735076.33148 -10702654.14246         0.00041  22685404.52346  22685401.36848
   -351320.43249   -273754.84447         0.00041  21107591.77047  21107589.48449
 96 10 10 02 41 30.0000000  0  8 18 29 02 31 27 03 16 19
 -19571882.11249 -15250811.17348         0.00041  20097956.55848  20097955.09549
   5961721.74349   4645497.81246         0.00041  22150249.32846  22150248.34549
    -98995.30748    -77139.20044         0.00041  25469097.90844  25469097.90848
  -3844440.11548  -2995665.70145         0.00041  23314310.80145  23314309.14148
 -10027759.57448  -7813832.78446         0.00041  23566505.10746  23566501.48748
 -10341815.33248  -8058552.12945         0.00041  23407441.06345  23407439.69348
 -13785878.25048 -10742240.04246         0.00041  22675736.84646  22675734.11248
   -385667.98349   -300519.15147         0.00041  21101055.68447  21101053.27849
 96 10 10 02 42 00.0000000  0  8 19 18 29 02 31 27 03 16
   -419687.48349   -327027.83347         0.00041  21094582.02947  21094579.46449
 -19577984.04549 -15255565.92448         0.00041  20096795.30248  20096794.15049
   6030670.09049   4699223.77846         0.00041  22163369.93746  22163368.93349
   -197751.94448   -154092.42444         0.00041  25450305.30544  25450305.30548
  -3926625.69748  -3059706.38345         0.00041  23298671.76445  23298670.02048
 -10099102.23748  -7869424.42546         0.00041  23552929.33446  23552925.99248
 -10369349.95948  -8080007.64945         0.00041  23402201.14745  23402200.25148
 -13836072.01548 -10781352.06246         0.00041  22666185.38646  22666182.88048
 96 10 10 02 42 30.0000000  0  8 19 18 29 02 31 27 03 16
   -454006.92349   -353770.23147         0.00041  21088051.12247  21088048.76149
 -19584136.41449 -15260359.97448         0.00041  20095624.74248  20095623.17749
   6099431.05749   4752803.75146         0.00041  22176454.55046  22176453.64549
   -296925.53648   -231370.54744         0.00041  25431432.95844  25431432.95848
  -4009114.00948  -3123982.93845         0.00041  23282975.37345  23282973.34648
 -10170858.12848  -7925338.07746         0.00041  23539275.06846  23539271.85248
 -10396911.99348  -8101484.52846         0.00041  23396956.15946  23396955.50848
 -13886287.76448 -10820481.21246         0.00041  22656629.89846  22656626.96148
 96 10 10 02 43 00.0000000  0  8 19 18 29 02 31 27 03 16
   -488820.22849   -380897.46147         0.00041  21081426.44547  21081424.28049
 -19590524.65349 -15265337.82048         0.00041  20094408.87448  20094407.63149
   6167824.14949   4806097.07246         0.00041  22189469.11146  22189468.52649
   -396734.88648   -309144.06744         0.00041  25412438.14344  25412438.14348
  -4092112.39248  -3188656.94745         0.00041  23267180.01445  23267179.22248
 -10243224.83848  -7981727.66846         0.00041  23525503.95446  23525500.82248
 -10424705.91648  -8123142.10046         0.00041  23391666.91446  23391666.63948
 -13936694.44048 -10859759.13146         0.00041  22647037.70646  22647034.51448
 96 10 10 02 43 30.0000000  0  8 19 18 29 02 31 27 03 16
   -524035.30649   -408337.76547         0.00041  21074725.19647  21074723.01549
 -19597071.45349 -15270439.21648         0.00041  20093162.98448  20093161.70549
   6235945.38849   4859178.56146         0.00041  22202432.04946  22202431.53749
   -497118.71248   -387365.23044         0.00041  25393335.53744  25393335.53748
  -4175538.49848  -3253664.26046         0.00041  23251305.13746  23251303.33148
 -10316116.90548  -8038526.63346         0.00041  23511632.20446  23511629.70948
 -10452647.79148  -8144914.97245         0.00041  23386350.62445  23386348.83748
 -13987184.34448 -10899101.89846         0.00041  22637430.54946  22637426.99248
 96 10 10 02 44 00.0000000  0  8 19 18 29 02 31 27 03 16
   -558500.26149   -435193.55747         0.00041  21068166.80547  21068164.28349
 -19602638.42349 -15274777.11148         0.00041  20092104.04548  20092102.49449
   6304936.52249   4912937.87346         0.00041  22215561.18446  22215560.02249
   -596939.65248   -465147.78144         0.00041  25374341.45544  25374341.45548
  -4258226.21948  -3318096.21246         0.00041  23235570.36046  23235568.33548
 -10388385.08748  -8094839.46146         0.00041  23497879.56846  23497876.29148
 -10479590.97848  -8165909.63646         0.00041  23381224.41446  23381222.29348
 -14036596.90048 -10937605.17946         0.00041  22628027.30646  22628024.04448
 96 10 10 02 44 30.0000000  0  8 19 18 29 02 31 27 03 16
   -592806.52049   -461925.68747         0.00041  21061638.19047  21061635.85549
 -19607834.31649 -15278825.85848         0.00041  20091114.83148  20091113.41349
   6374188.30749   4966900.28946         0.00041  22228738.84746  22228738.02249
   -696784.04048   -542948.60344         0.00041  25355341.91144  25355341.91148
  -4340759.53248  -3382407.86446         0.00041  23219864.17946  23219862.48848
 -10460635.86548  -8151138.74146         0.00041  23484130.89746  23484127.98248
 -10506126.24848  -8186586.44646         0.00041  23376173.76246  23376172.24448
 -14085521.82548 -10975728.48946         0.00041  22618717.08246  22618714.05648
 96 10 10 02 45 00.0000000  0  8 19 18 29 02 31 27 03 16
   -626780.90849   -488399.21847         0.00041  21055173.10047  21055170.99349
 -19612482.31749 -15282447.67448         0.00041  20090230.70948  20090229.28749
   6443878.06749   5021203.99446         0.00041  22242000.59546  22241999.47149
   -796451.83648   -620610.92644         0.00041  25336376.49644  25336376.49648
  -4422930.28648  -3446436.98346         0.00041  23204227.20646  23204226.44548
 -10532695.11048  -8207288.74746         0.00041  23470419.19346  23470416.03248
 -10532053.06348  -8206789.13645         0.00041  23371239.43345  23371238.54748
 -14133776.96748 -11013329.89346         0.00041  22609534.40846  22609531.55348
 96 10 10 02 45 30.0000000  0  8 19 18 29 02 31 27 03 16
   -660515.84049   -514686.15547         0.00041  21048753.48247  21048751.48149
 -19616661.13849 -15285703.89548         0.00041  20089435.32248  20089434.00749
   6513910.00649   5075774.33246         0.00041  22255327.25346  22255326.36849
   -895996.15948   -698177.89244         0.00041  25317433.99544  25317433.99548
  -4504796.08148  -3510228.47346         0.00041  23188649.19946  23188647.47348
 -10604632.67248  -8263343.95246         0.00041  23456730.59346  23456726.65748
 -10557437.97148  -8226569.55546         0.00041  23366408.55146  23366408.21448
 -14181472.15648 -11050494.96346         0.00041  22600458.11346  22600454.86748
 96 10 10 02 46 00.0000000  0  8 19 18 29 02 31 27 03 16
   -693395.40649   -540306.57847         0.00041  21042496.61647  21042494.35249
 -19619724.19749 -15288090.69348         0.00041  20088852.46648  20088851.34449
   6584896.54649   5131088.50746         0.00041  22268836.14846  22268834.98249
   -994766.67348   -775141.86344         0.00041  25298642.52344  25298638.48948
  -4585727.66948  -3573291.99945         0.00041  23173248.46445  23173246.75048
 -10675820.86848  -8318815.23246         0.00041  23443184.28746  23443179.81348
 -10581655.68948  -8245440.47846         0.00041  23361800.61146  23361800.03548
 -14227995.18348 -11086746.65946         0.00041  22591605.40246  22591602.22348
 96 10 10 02 46 30.0000000  0  8 19 18 29 02 31 27 03 16
   -725578.98749   -565384.67947         0.00041  21036372.20947  21036369.88949
 -19621817.96049 -15289722.19448         0.00041  20088454.02848  20088452.69249
   6656687.50749   5187029.49746         0.00041  22282497.19946  22282496.12649
  -1092913.58648   -851619.97044         0.00041  25279967.62444  25279961.21548
  -4665890.45048  -3635756.45045         0.00041  23157994.11945  23157991.91848
 -10746421.93948  -8373829.01546         0.00041  23429748.61646  23429745.13248
 -10604861.15648  -8263522.63446         0.00041  23357385.08346  23357383.94248
 -14273508.61948 -11122211.66446         0.00041  22582944.15246  22582941.36748
 96 10 10 02 47 00.0000000  0  8 19 18 29 02 31 27 03 16
   -757502.15149   -590259.86047         0.00041  21030297.60647  21030295.43249
 -19623357.78549 -15290922.05548         0.00041  20088160.86348  20088159.74949
   6728858.73649   5243266.80146         0.00041  22296231.15946  22296229.90649
  -1190864.11848   -927944.98644         0.00041  25261324.79644  25261321.80148
  -4745714.89448  -3697957.27445         0.00041  23142803.81345  23142801.61848
 -10816861.82548  -8428717.19346         0.00041  23416343.60146  23416341.06048
 -10627503.07948  -8281165.65946         0.00041  23353076.15746  23353074.58448
 -14318444.11548 -11157226.33946         0.00041  22574393.45946  22574390.54448
 96 10 10 02 47 30.0000000  0  8 19 18 29 02 31 27 03 16
   -789193.69349   -614954.55447         0.00041  21024267.10547  21024264.89149
 -19624376.56949 -15291715.90848         0.00041  20087967.08248  20087965.78749
   6801387.23549   5299782.50046         0.00041  22310032.61746  22310031.47649
  -1288662.47848  -1004151.44244         0.00041  25242715.36844  25242710.66948
  -4825253.52648  -3759935.37645         0.00041  23127668.89245  23127666.95748
 -10887162.43148  -8483496.82946         0.00041  23402965.33546  23402963.08848
 -10649634.16548  -8298410.65246         0.00041  23348865.76446  23348863.77948
 -14362827.71848 -11191810.95546         0.00041  22565947.28846  22565944.22148
 96 10 10 02 48 00.0000000  0  8 19 18 29 02 31 27 03 16
   -820736.57749   -639533.41047         0.00041  21018264.55347  21018262.23149
 -19624985.16749 -15292190.13748         0.00041  20087851.25948  20087849.96249
   6874176.71949   5356501.57446         0.00041  22323883.43346  22323882.75049
  -1386436.48548  -1080338.96644         0.00041  25224111.10244  25224104.30548
  -4904615.65248  -3821775.94645         0.00041  23112566.31545  23112564.43348
 -10957431.93548  -8538252.25946         0.00041  23389593.72046  23389590.62848
 -10671360.06148  -8315339.89846         0.00041  23344730.59046  23344729.05748
 -14406736.61048 -11226025.66646         0.00041  22557591.26146  22557588.15348
 96 10 10 02 48 30.0000000  0  8 19 18 29 02 31 27 03 16
   -852013.55649   -663905.06447         0.00041  21012312.79247  21012310.56849
 -19625081.85249 -15292265.47548         0.00041  20087832.84448  20087831.51349
   6947340.57349   5413512.36246         0.00041  22337806.53946  22337805.46249
  -1484074.68548  -1156420.61744         0.00041  25205529.84644  25205524.13948
  -4983683.70748  -3883387.35945         0.00041  23097519.62045  23097517.85448
 -11027568.63748  -8592904.19946         0.00041  23376247.45046  23376244.38348
 -10692554.87448  -8331855.28646         0.00041  23340697.31046  23340696.70848
 -14450051.91248 -11259777.84446         0.00041  22549348.94446  22549345.97648
 96 10 10 02 49 00.0000000  0  8 19 18 29 02 31 27 03 16
   -882739.17349   -687847.08147         0.00041  21006465.78447  21006463.78449
 -19624378.67649 -15291717.54548         0.00041  20087966.63448  20087965.23649
   7021159.03948   5471033.24246         0.00041  22351854.12346  22351852.67948
  -1581286.86548  -1232170.28144         0.00041  25187027.58844  25187025.95648
  -5062173.61548  -3944548.27945         0.00041  23082584.07445  23082582.13748
 -11097280.14648  -8647224.82246         0.00041  23362982.00946  23362979.21348
 -10712917.63648  -8347722.35246         0.00041  23336822.38846  23336820.79648
 -14492491.43548 -11292847.59746         0.00041  22541273.38146  22541270.70848
 96 10 10 02 49 30.0000000  0  8 19 18 29 02 31 27 03 16
   -913253.10049   -711624.14647         0.00041  21000658.99447  21000656.94449
 -19623220.69749 -15290815.21848         0.00041  20088187.12448  20088185.80149
   7095280.06749   5528789.88046         0.00041  22365958.55446  22365957.60149
  -1678418.85648  -1307857.50044         0.00041  25168545.64344  25168543.00748
  -5140427.96648  -4005525.64745         0.00041  23067692.79645  23067690.72848
 -11166902.74348  -8701476.15546         0.00041  23349732.97846  23349730.24148
 -10732773.66748  -8363194.56846         0.00041  23333043.53846  23333042.48448
 -14534402.49448 -11325505.55946         0.00041  22533297.42146  22533294.67548
 96 10 10 02 50 00.0000000  0  8 19 18 29 02 31 27 03 16
   -943362.01349   -735085.61847         0.00041  20994929.27647  20994927.02249
 -19621412.59549 -15289406.30548         0.00041  20088531.31748  20088529.93449
   7169891.53549   5586928.67646         0.00041  22380156.53446  22380155.53449
  -1775257.35448  -1383316.03544         0.00041  25150118.54444  25150115.02348
  -5218232.33848  -4066152.38945         0.00041  23052887.00245  23052884.75448
 -11236243.51548  -8755507.88246         0.00041  23336537.72946  23336534.60348
 -10751923.41248  -8378116.41546         0.00041  23329400.59046  23329398.84348
 -14575599.26548 -11357606.93546         0.00041  22525457.81246  22525454.43448
 96 10 10 02 50 30.0000000  0  8 19 18 29 02 31 27 03 16
   -972823.09149   -758042.28347         0.00041  20989323.21847  20989320.78249
 -19618692.10749 -15287286.44248         0.00041  20089048.74248  20089047.56849
   7245255.69249   5645653.97846         0.00041  22394498.23846  22394497.00749
  -1871520.63148  -1458326.30444         0.00041  25131801.11444  25131795.72448
  -5295321.88048  -4126222.12645         0.00041  23038216.54945  23038215.38448
 -11305026.79748  -8809105.20646         0.00041  23323448.88446  23323445.48848
 -10770100.55148  -8392280.40646         0.00041  23325941.08146  23325939.71248
 -14615824.69748 -11388951.42246         0.00041  22517803.65346  22517801.08548
 96 10 10 02 51 00.0000000  0  8 18 29 02 31 27 03 16 19
 -19615299.50149 -15284642.85048         0.00041  20089694.40348  20089693.19249
   7321136.60549   5704781.95246         0.00041  22408937.77546  22408936.46649
  -1967463.05448  -1533086.60744         0.00041  25113544.18944  25113538.22348
  -5371932.25048  -4185918.48746         0.00041  23023638.09946  23023637.08448
 -11373478.68348  -8862444.30546         0.00041  23310423.08946  23310419.58048
 -10787564.21548  -8405888.44446         0.00041  23322617.61846  23322615.94248
 -14655311.17548 -11419720.09146         0.00041  22510289.67146  22510286.82648
  -1001887.71349   -780690.02447         0.00041  20983792.75947  20983790.22749
 96 10 10 02 51 30.0000000  0  8 18 29 02 31 27 03 16 19
 -19611431.49449 -15281628.81848         0.00041  20090430.46848  20090429.28349
   7397354.92249   5764172.84346         0.00041  22423441.37446  22423440.27749
  -2063273.92548  -1607744.37344         0.00041  25095310.33144  25095306.47948
  -5448229.57648  -4245370.91846         0.00041  23009119.93546  23009118.06148
 -11441792.61448  -8915675.90146         0.00041  23297422.76746  23297419.35548
 -10804511.10948  -8419093.78946         0.00041  23319392.57346  23319391.41148
 -14694226.25948 -11450043.53246         0.00041  22502883.90046  22502880.88348
  -1030742.35749   -803174.13947         0.00041  20978301.78547  20978299.66649
 96 10 10 02 52 00.0000000  0  8 18 29 02 31 27 03 16 19
 -19606699.92749 -15277941.88048         0.00041  20091330.66648  20091329.56349
   7474317.33648   5824143.54646         0.00041  22438087.02146  22438085.98448
  -2158569.62248  -1682000.70644         0.00041  25077177.24944  25077172.51948
  -5523821.48248  -4304273.65746         0.00041  22994735.46446  22994733.17548
 -11509591.22848  -8968505.95146         0.00041  23284520.94446  23284517.32148
 -10820554.70448  -8431595.25446         0.00041  23316340.37946  23316338.30948
 -14732165.55248 -11479606.61146         0.00041  22495665.39546  22495662.25548
  -1058994.52349   -825188.78947         0.00041  20972925.47947  20972923.50949
 96 10 10 02 52 30.0000000  0  8 18 29 02 31 27 03 16 19
 -19601342.24949 -15273767.06348         0.00041  20092350.54548  20092349.08349
   7551783.50848   5884506.78846         0.00041  22452828.08746  22452826.88548
  -2253614.63648  -1756061.71644         0.00041  25059090.12744  25059085.89648
  -5598957.59248  -4362821.23046         0.00041  22980436.31346  22980435.46848
 -11577128.24948  -9021132.16846         0.00041  23271668.72446  23271665.50048
 -10835941.20148  -8443584.71545         0.00041  23313411.19945  23313409.85048
 -14769363.45948 -11508591.97846         0.00041  22488586.65846  22488583.77148
  -1086898.68149   -846932.27247         0.00041  20967615.49847  20967613.53449
 96 10 10 02 53 00.0000000  0  8 18 29 02 31 27 03 16 19
 -19595129.36349 -15268925.85248         0.00041  20093532.56248  20093531.26249
   7629984.59148   5945442.67446         0.00041  22467709.15346  22467708.58548
  -2348185.03048  -1829752.91144         0.00041  25041093.46244  25041090.60448
  -5673406.28248  -4420833.15746         0.00041  22966269.90246  22966268.45148
 -11644200.69548  -9073396.36946         0.00041  23258905.87046  23258902.83248
 -10850446.89348  -8454887.83046         0.00041  23310652.44746  23310650.78148
 -14805597.46748 -11536826.26046         0.00041  22481690.26946  22481687.00048
  -1114213.41349   -868216.46347         0.00041  20962417.38247  20962415.46249
 96 10 10 02 53 30.0000000  0  8 18 29 02 31 27 03 16 19
 -19587923.70449 -15263311.04848         0.00041  20094903.96648  20094902.48349
   7709053.60148   6007054.88446         0.00041  22482755.65846  22482754.91748
  -2442134.31648  -1902960.08344         0.00041  25023216.88544  25023212.90248
  -5747036.75948  -4478207.52846         0.00041  22952257.35146  22952256.86048
 -11710681.17048  -9125199.30146         0.00041  23246255.23146  23246252.15748
 -10863928.69148  -8465393.10646         0.00041  23308086.42546  23308084.29548
 -14840738.42248 -11564208.81946         0.00041  22475004.04446  22475001.19548
  -1140794.86149   -888929.27247         0.00041  20957359.05547  20957356.96249
 96 10 10 02 54 00.0000000  0  8 18 29 02 31 27 03 16 19
 -19580402.94449 -15257450.71248         0.00041  20096335.02748  20096333.73049
   7788278.52848   6068788.59146         0.00041  22497831.70146  22497830.74548
  -2536155.23648  -1976223.08944         0.00041  25005324.60244  25005321.56448
  -5820559.96948  -4535498.31445         0.00041  22938266.54445  22938265.50248
 -11777262.22148  -9177080.60546         0.00041  23233585.22546  23233582.07148
 -10877072.20148  -8475634.77845         0.00041  23305584.66345  23305583.11348
 -14875492.93148 -11591290.25046         0.00041  22468390.28446  22468387.84448
  -1167342.57549   -909615.78547         0.00041  20952307.23847  20952304.98649
 96 10 10 02 54 30.0000000  0  8 18 29 02 31 27 03 16 19
 -19573023.06749 -15251700.16048         0.00041  20097739.23748  20097738.06049
   7867184.01348   6130273.37946         0.00041  22512847.60646  22512845.95448
  -2630683.97048  -2049881.82944         0.00041  24987336.19044  24987333.20148
  -5894427.56848  -4593057.45546         0.00041  22924210.56046  22924209.07748
 -11844387.07248  -9229385.64446         0.00041  23220812.13246  23220808.81948
 -10890321.50248  -8485958.88746         0.00041  23303062.41746  23303062.55648
 -14910311.91948 -11618421.92046         0.00041  22461764.32946  22461761.20848
  -1194310.49849   -930629.73247         0.00041  20947175.44447  20947173.25449
 96 10 10 02 55 00.0000000  0  8 18 29 02 31 27 03 16 19
 -19565802.24749 -15246073.54448         0.00041  20099113.52048  20099112.15249
   7945744.81049   6191489.57946         0.00041  22527796.84646  22527795.48049
  -2725721.07048  -2123936.65344         0.00041  24969250.53644  24969248.48648
  -5968645.98848  -4650889.96346         0.00041  22910087.10746  22910085.89548
 -11912060.50448  -9282118.16346         0.00041  23207934.53646  23207931.56948
 -10903682.25648  -8496369.85246         0.00041  23300521.81846  23300519.73848
 -14945206.04149 -11645612.14146         0.00041  22455124.35346  22455121.95549
  -1221684.84749   -951960.37547         0.00041  20941966.19947  20941964.30549
 96 10 10 02 55 30.0000000  0  8 18 29 02 31 27 03 16 19
 -19558569.96449 -15240437.99948         0.00041  20100489.72448  20100488.23849
   8024101.21249   6252546.50546         0.00041  22542707.77946  22542706.67849
  -2821117.06948  -2198271.16544         0.00041  24951098.58044  24951095.41248
  -6043050.96348  -4708867.83346         0.00041  22895928.45046  22895926.97548
 -11980109.74748  -9335143.50146         0.00041  23194984.74546  23194982.33348
 -10916994.61848  -8506743.07946         0.00041  23297988.37946  23297986.33748
 -14980014.99648 -11672735.99446         0.00041  22448500.56646  22448497.52148
  -1249303.30249   -973481.23447         0.00041  20936710.47647  20936708.84649
 96 10 10 02 56 00.0000000  0  8 18 29 02 31 27 03 16 19
 -19550908.80649 -15234468.26348         0.00041  20101947.20348  20101946.21749
   8102655.68449   6313757.77446         0.00041  22557655.89846  22557655.06449
  -2916460.86148  -2272564.99344         0.00041  24932954.39844  24932951.44848
  -6117223.11248  -4766664.27946         0.00041  22881813.50246  22881812.21448
 -12048120.54448  -9388138.89146         0.00041  23182042.10946  23182039.73248
 -10929835.19348  -8516748.71446         0.00041  23295543.85646  23295543.36748
 -15014327.20348 -11699472.77146         0.00041  22441970.43546  22441967.29248
  -1276751.69049   -994869.58147         0.00041  20931487.18347  20931485.57949
 96 10 10 02 56 30.0000000  0  8 18 29 02 31 27 03 16 19
 -19542884.87449 -15228215.84448         0.00041  20103474.23048  20103472.98049
   8181365.13449   6375089.80146         0.00041  22572633.99746  22572632.74549
  -3011805.74948  -2346859.65445         0.00041  24914810.38045  24914807.22448
  -6191207.66148  -4824314.54846         0.00041  22867735.38846  22867733.38348
 -12116142.71848  -9441143.13246         0.00041  23169097.73746  23169095.22848
 -10942260.51148  -8526430.76746         0.00041  23293179.00446  23293177.88248
 -15048206.61048 -11725872.29846         0.00041  22435524.11046  22435521.47948
  -1304080.39649  -1016164.66747         0.00041  20926286.84247  20926284.64749
 96 10 10 02 57 00.0000000  0  8 18 29 02 31 27 03 16 19
 -19534449.25049 -15221642.62748         0.00041  20105079.52748  20105078.33249
   8260277.63248   6436580.05046         0.00041  22587650.15746  22587649.00948
  -3107125.34048  -2421134.60044         0.00041  24896672.50944  24896667.70948
  -6264974.73348  -4881795.35746         0.00041  22853697.51246  22853696.22748
 -12184149.21348  -9494135.17346         0.00041  23156156.84746  23156154.39648
 -10954239.47748  -8535764.98846         0.00041  23290900.46246  23290899.13548
 -15081631.66948 -11751917.79846         0.00041  22429163.11146  22429160.57548
  -1331262.44949  -1037345.47347         0.00041  20921114.33647  20921111.86949
 96 10 10 02 57 30.0000000  0  8 18 29 02 31 27 03 16 19
 -19525520.32649 -15214685.02448         0.00041  20106778.75448  20106777.49249
   8339482.60148   6498298.18946         0.00041  22602722.31246  22602721.20348
  -3202339.78848  -2495327.58844         0.00041  24878552.97744  24878549.21848
  -6338455.63248  -4939053.16046         0.00041  22839714.20546  22839713.54348
 -12252068.98048  -9547059.63446         0.00041  23143232.86346  23143229.80048
 -10965688.77048  -8544686.45646         0.00041  23288722.16846  23288720.30448
 -15114523.90848 -11777548.11146         0.00041  22422903.86746  22422900.54348
  -1358256.27649  -1058379.62047         0.00041  20915977.78447  20915975.49049
 96 10 10 02 58 00.0000000  0  8 18 29 02 31 27 03 16 19
 -19516185.23049 -15207410.92248         0.00041  20108555.28648  20108554.00549
   8418923.46948   6560200.14446         0.00041  22617839.78346  22617838.74448
  -3297492.02748  -2569472.12345         0.00041  24860448.42545  24860442.34948
  -6411712.59148  -4996136.46846         0.00041  22825774.21846  22825772.84448
 -12319978.98948  -9599976.48346         0.00041  23130308.96646  23130306.78748
 -10976676.11448  -8553248.02846         0.00041  23286630.73646  23286628.96648
 -15146941.10348 -11802808.25346         0.00041  22416735.47446  22416732.98648
  -1385152.07849  -1079337.37747         0.00041  20910859.61247  20910857.68749
 96 10 10 02 58 30.0000000  0  8 18 29 02 31 27 03 16 19
 -19506513.78549 -15199874.73048         0.00041  20110395.77548  20110394.28049
   8498563.46948   6622257.26746         0.00041  22632994.89046  22632993.68048
  -3392632.63948  -2643607.57544         0.00041  24842341.40944  24842337.70348
  -6484787.57148  -5053077.96546         0.00041  22811868.63246  22811867.22448
 -12387939.98148  -9652933.06146         0.00041  23117376.03846  23117374.00048
 -10987271.07148  -8561503.82246         0.00041  23284614.95646  23284613.58248
 -15178930.28049 -11827734.88046         0.00041  22410648.37646  22410646.05649
  -1412014.36749  -1100269.01347         0.00041  20905747.56847  20905745.88049
 96 10 10 02 59 00.0000000  0  8 18 29 02 31 27 03 16 19
 -19496423.95749 -15192012.52548         0.00041  20112315.56848  20112314.37149
   8578476.02949   6684526.78346         0.00041  22648201.46746  22648200.49649
  -3487679.55948  -2717670.05245         0.00041  24824254.57845  24824250.82848
  -6557586.80348  -5109804.60646         0.00041  22798014.80946  22798014.09348
 -12455882.45348  -9705875.20746         0.00041  23104447.59746  23104444.86348
 -10997404.86248  -8569400.26046         0.00041  23282685.64346  23282684.12648
 -15210395.26248 -11852253.03646         0.00041  22404660.77546  22404657.57048
  -1438767.46649  -1121115.56547         0.00041  20900656.47047  20900654.78949
 96 10 10 02 59 30.0000000  0  8 18 29 02 31 27 03 16 19
 -19485912.34949 -15183821.65748         0.00041  20114316.08648  20114314.68849
   8658671.72349   6747016.92946         0.00041  22663462.24346  22663461.39349
  -3582606.98348  -2791639.37545         0.00041  24806191.29045  24806186.51148
  -6630065.60048  -5166281.54646         0.00041  22784222.99346  22784221.80348
 -12523782.80348  -9758784.53646         0.00041  23091526.73146  23091524.23048
 -11007061.14548  -8576924.62646         0.00041  23280847.85746  23280847.00648
 -15241315.79848 -11876346.95046         0.00041  22398776.60346  22398773.47148
  -1465383.07249  -1141854.98547         0.00041  20895591.86947  20895590.06349
 96 10 10 03 00 00.0000000  0  8 18 29 02 31 27 03 16 19
 -19474943.23749 -15175274.29848         0.00041  20116403.23748  20116402.01549
   8739173.20949   6809745.35846         0.00041  22678781.34846  22678780.08949
  -3677385.37248  -2865492.60244         0.00041  24788154.01144  24788150.01648
  -6702171.27048  -5222467.73246         0.00041  22770501.42246  22770499.81948
 -12591593.49848  -9811624.00246         0.00041  23078622.97246  23078619.90548
 -11016215.07948  -8584057.54946         0.00041  23279107.16146  23279105.41148
 -15271677.14148 -11900005.14446         0.00041  22392998.78246  22392996.25848
  -1491797.42849  -1162437.58847         0.00041  20890565.41247  20890563.35649
 96 10 10 03 00 30.0000000  0  8 18 29 02 31 27 03 16 19
 -19463546.31049 -15166393.57348         0.00041  20118571.90948  20118570.85649
   8819929.10849   6872672.03846         0.00041  22694148.15546  22694147.51749
  -3772078.86448  -2939279.63244         0.00041  24770135.65944  24770130.39448
  -6773954.71548  -5278402.84446         0.00041  22756841.85646  22756839.99948
 -12659337.75948  -9864411.70146         0.00041  23065731.35346  23065728.21148
 -11024909.21848  -8590832.17246         0.00041  23277452.28646  23277451.02848
 -15301531.13648 -11923267.99346         0.00041  22387317.89146  22387314.80248
  -1518030.40949  -1182878.85947         0.00041  20885573.65747  20885571.27549
 96 10 10 03 01 00.0000000  0  8 18 29 02 31 27 03 16 19
 -19451643.65449 -15157118.77648         0.00041  20120837.05948  20120835.84149
   8900984.48849   6935832.07246         0.00041  22709572.93446  22709571.90749
  -3866624.28748  -3012951.29645         0.00041  24752143.12645  24752139.34148
  -6845360.19248  -5334043.43346         0.00041  22743253.95446  22743252.02848
 -12726940.73748  -9917089.30346         0.00041  23052866.78446  23052864.12248
 -11033073.63248  -8597194.04846         0.00041  23275898.22646  23275897.06248
 -15330822.00648 -11946092.04046         0.00041  22381744.28246  22381741.16948
  -1544009.70349  -1203122.45247         0.00041  20880629.86147  20880627.61349
 96 10 10 03 01 30.0000000  0  8 18 29 02 31 27 03 16 19
 -19439265.49549 -15147473.45548         0.00041  20123192.47648  20123191.12049
   8982303.07149   6999197.20946         0.00041  22725046.97446  22725046.16149
  -3961053.50048  -3086532.39745         0.00041  24734174.18145  24734169.63248
  -6916434.68648  -5389426.13646         0.00041  22729728.32946  22729727.34748
 -12794437.11648  -9969683.85346         0.00041  23040022.26946  23040020.45948
 -11040738.21348  -8603166.42646         0.00041  23274439.01746  23274438.24448
 -15359590.27348 -11968508.86946         0.00041  22376269.67646  22376266.69448
  -1569778.38649  -1223201.93747         0.00041  20875726.04047  20875724.20549
 96 10 10 03 02 00.0000000  0  8 18 29 02 31 27 03 16 19
 -19426409.77949 -15137456.01048         0.00041  20125638.98448  20125637.69049
   9063886.99348   7062769.10146         0.00041  22740572.27946  22740571.07348
  -4055370.40148  -3160026.00345         0.00041  24716228.35945  24716221.85548
  -6987204.19348  -5444571.18546         0.00041  22716261.19646  22716260.16648
 -12861838.94948 -10022204.72446         0.00041  23027196.26446  23027194.52048
 -11047909.28348  -8608754.24646         0.00041  23273075.97246  23273074.15948
 -15387824.57648 -11990509.61246         0.00041  22370896.71846  22370893.63848
  -1595357.24049  -1243133.49847         0.00041  20870858.46647  20870856.62249
 96 10 10 03 02 30.0000000  0  8 18 29 02 31 27 03 16 19
 -19413076.46149 -15127066.40848         0.00041  20128176.35148  20128175.01049
   9145736.66848   7126548.06246         0.00041  22756147.49446  22756146.40548
  -4149577.10748  -3233433.74645         0.00041  24698299.82545  24698295.59148
  -7057687.65848  -5499493.34646         0.00041  22702848.68146  22702847.72048
 -12929172.83748 -10074672.65946         0.00041  23014384.11646  23014380.97348
 -11054586.28548  -8613957.10046         0.00041  23271804.86346  23271803.75348
 -15415511.78649 -12012084.06146         0.00041  22365627.99346  22365625.28449
  -1620766.61749  -1262932.99747         0.00041  20866023.41747  20866021.37949
 96 10 10 03 03 00.0000000  0  8 18 29 02 31 27 03 16 19
 -19399236.91549 -15116282.34848         0.00041  20130809.58948  20130808.46949
   9227887.71748   7190561.85446         0.00041  22771780.04946  22771779.26748
  -4243645.69348  -3306733.87645         0.00041  24680397.64945  24680395.26648
  -7127856.16648  -5554170.07846         0.00041  22689495.82346  22689494.84848
 -12996441.39248 -10127089.68646         0.00041  23001583.27346  23001580.39848
 -11060741.61148  -8618753.44446         0.00041  23270633.71346  23270631.81448
 -15442625.63049 -12033211.72146         0.00041  22360468.54046  22360466.10349
  -1645998.49249  -1282594.19047         0.00041  20861221.63947  20861219.68749
 96 10 10 03 03 30.0000000  0  8 18 29 02 31 27 03 16 19
 -19384895.01349 -15105106.83548         0.00041  20133538.69448  20133537.72349
   9310351.11048   7254819.02646         0.00041  22787472.62846  22787471.60448
  -4337574.30748  -3379924.91545         0.00041  24662524.27645  24662521.32348
  -7197704.66248  -5608597.43346         0.00041  22676204.93546  22676203.52148
 -13063661.03748 -10179468.59646         0.00041  22988790.92646  22988789.04848
 -11066360.94848  -8623132.12046         0.00041  23269563.95146  23269562.14648
 -15469163.06348 -12053890.24146         0.00041  22355418.72546  22355415.06148
  -1671045.33849  -1302111.20947         0.00041  20856455.18147  20856453.19749
 96 10 10 03 04 00.0000000  0  8 18 29 02 31 27 03 16 19
 -19369998.45949 -15093499.13148         0.00041  20136373.61848  20136372.23249
   9393188.24048   7319367.42146         0.00041  22803235.92446  22803235.00848
  -4431318.16548  -3452972.00045         0.00041  24644686.56745  24644682.62548
  -7267154.48648  -5662714.12946         0.00041  22662988.58446  22662987.54048
 -13130766.08848 -10231758.21246         0.00041  22976021.49146  22976019.40248
 -11071368.92348  -8627034.42045         0.00041  23268611.36945  23268609.93648
 -15495065.09749 -12074073.63746         0.00041  22350489.64646  22350486.92349
  -1695832.68949  -1321426.01147         0.00041  20851738.55747  20851736.45749
 96 10 10 03 04 30.0000000  0  8 18 29 02 31 27 03 16 19
 -19354553.49449 -15081464.09348         0.00041  20139312.42048  20139311.44049
   9476390.12048   7384200.04546         0.00041  22819068.76846  22819067.79348
  -4524867.97948  -3525867.86745         0.00041  24626884.82445  24626880.72448
  -7336175.37848  -5716496.60446         0.00041  22649854.61846  22649853.10848
 -13197750.30348 -10283953.66846         0.00041  22963274.84846  22963272.31948
 -11075743.06448  -8630442.83445         0.00041  23267778.89345  23267777.58648
 -15520334.27049 -12093763.90346         0.00041  22345681.54246  22345678.68249
  -1720341.99649  -1340524.16147         0.00041  20847074.83047  20847072.86849
 96 10 10 03 05 00.0000000  0  8 18 29 02 31 27 03 16 19
 -19338707.16449 -15069116.29648         0.00041  20142328.26848  20142327.13849
   9559815.50648   7449206.82846         0.00041  22834944.49346  22834943.28448
  -4618340.54648  -3598703.55745         0.00041  24609096.33445  24609093.52748
  -7404879.20848  -5770032.03646         0.00041  22636779.94446  22636779.26048
 -13264735.29948 -10336149.73446         0.00041  22950527.75246  22950524.97548
 -11079610.86248  -8633456.68446         0.00041  23267042.35246  23267041.32148
 -15545103.06048 -12113064.28846         0.00041  22340967.00646  22340964.15048
  -1744709.56949  -1359511.88147         0.00041  20842437.83147  20842436.10649
 96 10 10 03 05 30.0000000  0  8 18 29 02 31 27 03 16 19
 -19322437.02549 -15056438.26948         0.00041  20145424.44848  20145422.90549
   9643478.71448   7514398.93846         0.00041  22850865.05946  22850863.76148
  -4711690.29348  -3671443.55645         0.00041  24591330.81945  24591329.18848
  -7473225.02848  -5823288.50546         0.00041  22623774.75046  22623773.27748
 -13331658.60148 -10388297.72746         0.00041  22937792.52046  22937789.78248
 -11082940.39948  -8636051.11946         0.00041  23266408.55246  23266407.92948
 -15569331.15748 -12131943.26646         0.00041  22336356.91546  22336354.06648
  -1768907.05949  -1378367.05447         0.00041  20837833.00347  20837831.37949
 96 10 10 03 06 00.0000000  0  8 18 29 02 31 27 03 16 19
 -19305699.48549 -15043396.03048         0.00041  20148609.05148  20148607.99149
   9727416.86248   7579805.28446         0.00041  22866837.46246  22866836.75448
  -4804867.18948  -3744048.86745         0.00041  24573601.64745  24573597.24148
  -7541165.52248  -5876229.12046         0.00041  22610845.90546  22610844.54348
 -13398442.91048 -10440337.41446         0.00041  22925084.11946  22925081.35048
 -11085693.51048  -8638196.38046         0.00041  23265885.11446  23265883.46648
 -15592967.31249 -12150361.05246         0.00041  22331860.14946  22331857.34749
  -1792896.89449  -1397060.43247         0.00041  20833267.74547  20833265.89449
 96 10 10 03 06 30.0000000  0  8 18 29 02 31 27 03 16 19
 -19288486.55849 -15029983.35548         0.00041  20151884.63948  20151883.42849
   9811636.22348   7645430.75446         0.00041  22882864.43846  22882863.04448
  -4897855.26048  -3816507.02745         0.00041  24555907.58645  24555901.12748
  -7608713.86948  -5928864.16546         0.00041  22597991.53446  22597990.52848
 -13465079.00048 -10492261.61146         0.00041  22912403.19746  22912400.89848
 -11087895.48548  -8639912.18346         0.00041  23265466.27846  23265464.69148
 -15616012.32948 -12168318.21246         0.00041  22327473.66746  22327470.54348
  -1816683.78949  -1415595.67947         0.00041  20828741.19847  20828739.04349
 96 10 10 03 07 00.0000000  0  8 18 29 02 31 27 03 16 19
 -19270833.93849 -15016228.06948         0.00041  20155244.02948  20155242.78649
   9896099.12648   7711245.98746         0.00041  22898937.22646  22898935.75748
  -4990705.84048  -3888858.06544         0.00041  24538237.95044  24538231.30148
  -7675928.72948  -5981239.35246         0.00041  22585200.66246  22585199.92848
 -13531595.20548 -10544092.38146         0.00041  22899746.32546  22899743.38348
 -11089612.66348  -8641250.22045         0.00041  23265138.90345  23265137.49848
 -15638518.31548 -12185855.34146         0.00041  22323190.98446  22323188.08448
  -1840317.48649  -1434011.54947         0.00041  20824244.21347  20824241.84149
 96 10 10 03 07 30.0000000  0  8 18 29 02 31 27 03 16 19
 -19252751.40449 -15002137.78148         0.00041  20158684.82548  20158683.82349
   9980789.88348   7777238.77846         0.00041  22915053.17046  22915051.81048
  -5083450.86848  -3961126.84644         0.00041  24520588.61344  24520582.72348
  -7742836.51849  -6033375.26846         0.00041  22572469.01446  22572468.38449
 -13598007.83048 -10595842.43846         0.00041  22887107.89846  22887105.21948
 -11090854.23348  -8642217.66745         0.00041  23264901.80845  23264901.41348
 -15660499.29649 -12202983.37246         0.00041  22319008.93546  22319006.52849
  -1863800.43349  -1452309.94347         0.00041  20819775.69747  20819773.62049
 96 10 10 03 08 00.0000000  0  8 18 29 02 31 27 03 16 19
 -19234250.46849 -14987721.46248         0.00041  20162205.64148  20162204.46349
  10065694.12948   7843397.92446         0.00041  22931209.73146  22931208.53648
  -5176112.09448  -4033330.34745         0.00041  24502955.32245  24502950.55648
  -7809456.38748  -6085286.85846         0.00041  22559791.92346  22559790.49048
 -13664377.22748 -10647558.79046         0.00041  22874477.65446  22874475.48548
 -11091645.58548  -8642834.28246         0.00041  23264752.41146  23264751.27848
 -15681991.76549 -12219730.74846         0.00041  22314918.69546  22314915.64649
  -1887143.71949  -1470499.50847         0.00041  20815333.53347  20815331.68249
 96 10 10 03 08 30.0000000  0  8 18 29 02 31 27 03 16 19
 -19215268.18449 -14972930.07748         0.00041  20165817.97048  20165816.42749
  10150862.15448   7909762.61546         0.00041  22947416.46046  22947415.64448
  -5268627.87648  -4105420.50045         0.00041  24485351.67445  24485345.17648
  -7875725.13248  -6136924.79046         0.00041  22547181.27546  22547179.88548
 -13730690.28548 -10699231.29746         0.00041  22861859.25846  22861856.38348
 -11091934.05048  -8643059.05045         0.00041  23264697.03945  23264695.48848
 -15702943.90348 -12236057.09246         0.00041  22310930.52346  22310927.67948
  -1910299.41949  -1488542.90047         0.00041  20810926.75447  20810924.93349
 96 10 10 03 09 00.0000000  0  8 18 29 02 31 27 03 16 19
 -19195791.46749 -14957753.41648         0.00041  20169523.93148  20169522.88049
  10236287.94648   7976328.17046         0.00041  22963672.86946  22963671.96448
  -5360985.04348  -4177387.08045         0.00041  24467774.92945  24467770.18048
  -7941625.35348  -6188275.58746         0.00041  22534641.18846  22534639.61248
 -13796962.83448 -10750872.19946         0.00041  22849247.19846  22849245.03148
 -11091691.63748  -8642870.14545         0.00041  23264742.75845  23264742.06748
 -15723341.64349 -12251951.43046         0.00041  22307049.92946  22307047.52349
  -1933263.96049  -1506437.33647         0.00041  20806556.59647  20806554.57349
 96 10 10 03 09 30.0000000  0  8 18 29 02 31 27 03 16 19
 -19175828.75849 -14942198.05348         0.00041  20173322.84448  20173321.87749
  10321946.99548   8043075.47046         0.00041  22979973.29846  22979972.03848
  -5453203.83548  -4249245.82244         0.00041  24450228.44744  24450221.64348
  -8007162.80048  -6239343.69546         0.00041  22522169.36846  22522168.08848
 -13863236.21948 -10802513.76146         0.00041  22836636.05146  22836633.65748
 -11090939.07948  -8642283.72746         0.00041  23264887.14646  23264885.32748
 -15743196.72949 -12267422.91446         0.00041  22303272.60546  22303269.48649
  -1956063.79049  -1524203.43147         0.00041  20802218.12947  20802216.10249
 96 10 10 03 10 00.0000000  0  8 18 29 02 31 27 03 16 19
 -19155331.30949 -14926226.02048         0.00041  20177223.31348  20177222.24649
  10407892.83248   8110046.23446         0.00041  22996328.35846  22996327.08848
  -5545230.42948  -4320954.79944         0.00041  24432717.93344  24432709.24548
  -8072279.31348  -6290083.78946         0.00041  22509777.51346  22509776.57348
 -13929461.24948 -10854117.64246         0.00041  22824033.98246  22824031.37248
 -11089653.19348  -8641281.70246         0.00041  23265131.71246  23265129.79048
 -15762460.98648 -12282434.01946         0.00041  22299605.55246  22299602.04848
  -1978656.22649  -1541807.92147         0.00041  20797919.14147  20797917.30349
 96 10 10 03 10 30.0000000  0  8 18 29 02 31 27 03 16 19
 -19134287.45849 -14909828.21348         0.00041  20181227.61548  20181226.82849
  10494138.25248   8177250.44246         0.00041  23012740.48646  23012738.89148
  -5637069.30648  -4392517.50344         0.00041  24415239.61544  24415232.66648
  -8136964.52748  -6340487.81346         0.00041  22497469.22946  22497467.96848
 -13995593.25448 -10905649.04146         0.00041  22811449.30646  22811446.52548
 -11087817.83748  -8639851.54346         0.00041  23265479.56646  23265479.21448
 -15781102.51548 -12296959.88346         0.00041  22296058.30846  22296055.15848
  -2001026.33249  -1559239.16247         0.00041  20793662.38047  20793660.42649
 96 10 10 03 11 00.0000000  0  8 18 29 02 31 27 03 16 19
 -19112741.90949 -14893039.47448         0.00041  20185328.00248  20185326.60449
  10580639.19648   8244653.76546         0.00041  23029200.63646  23029199.52348
  -5728778.50548  -4463979.14645         0.00041  24397786.31245  24397782.64848
  -8201257.04148  -6390585.84846         0.00041  22485234.14246  22485233.10248
 -14061655.29248 -10957125.91646         0.00041  22798878.19546  22798875.99748
 -11085474.59448  -8638025.62346         0.00041  23265926.81746  23265924.88248
 -15799163.25349 -12311033.17546         0.00041  22292622.32246  22292619.47749
  -2023209.03549  -1576524.37647         0.00041  20789440.81047  20789438.81749
 96 10 10 03 11 30.0000000  0  8 18 29 02 31 27 03 16 19
 -19090667.22449 -14875838.42448         0.00041  20189528.76548  20189527.44749
  10667443.84449   8312293.74446         0.00041  23045719.24346  23045718.10049
  -5820323.87548  -4535313.13244         0.00041  24380366.12344  24380362.86548
  -8265114.63249  -6440344.98646         0.00041  22473082.64746  22473081.69649
 -14127586.40448 -11008500.77446         0.00041  22786332.31346  22786330.28248
 -11082576.09248  -8635767.02246         0.00041  23266477.59146  23266477.13648
 -15816603.05048 -12324622.62346         0.00041  22289303.10946  22289300.01148
  -2045150.03649  -1593621.25247         0.00041  20785265.76147  20785263.72749
 96 10 10 03 12 00.0000000  0  8 18 29 02 31 27 03 16 19
 -19068081.09049 -14858238.84148         0.00041  20193826.63548  20193825.38349
  10754538.84949   8380159.97246         0.00041  23062292.80246  23062291.64949
  -5911709.26548  -4606522.45145         0.00041  24362976.00445  24362972.90948
  -8328556.50648  -6489780.19046         0.00041  22461010.36246  22461009.02148
 -14193383.42748 -11059771.14346         0.00041  22773811.54746  22773809.29948
 -11079112.04048  -8633067.77246         0.00041  23267136.30646  23267136.39448
 -15833433.71848 -12337737.42546         0.00041  22286099.62446  22286096.21248
  -2066844.68649  -1610526.16547         0.00041  20781137.17047  20781135.34249
 96 10 10 03 12 30.0000000  0  8 18 29 02 31 27 03 16 19
 -19044994.01549 -14840248.91048         0.00041  20198219.84648  20198218.64249
  10841907.88849   8448239.74146         0.00041  23078918.14946  23078917.26049
  -6002935.82748  -4677608.01145         0.00041  24345615.53545  24345613.51348
  -8391593.31048  -6538899.74446         0.00041  22449015.10746  22449013.26448
 -14259062.05148 -11110949.25246         0.00041  22761312.52446  22761310.44948
 -11075062.35048  -8629912.15446         0.00041  23267907.37346  23267905.96748
 -15849677.02049 -12350394.54346         0.00041  22283008.91946  22283006.49049
  -2088314.82649  -1627256.12547         0.00041  20777051.61947  20777049.78549
 96 10 10 03 13 00.0000000  0  8 18 29 02 31 27 03 16 19
 -19021385.96149 -14821853.02548         0.00041  20202712.26948  20202711.13749
  10929566.96449   8516545.52646         0.00041  23095599.26546  23095598.22149
  -6093962.83348  -4748538.09344         0.00041  24328292.51944  24328292.05648
  -8454204.21048  -6587687.42246         0.00041  22437099.95146  22437098.85148
 -14324609.82348 -11162025.40646         0.00041  22748839.47346  22748836.57948
 -11070398.51648  -8626277.96546         0.00041  23268796.10246  23268794.26948
 -15865333.38949 -12362594.30646         0.00041  22280030.35346  22280027.48349
  -2109551.83449  -1643804.42547         0.00041  20773010.34847  20773008.40949
 96 10 10 03 13 30.0000000  0  8 18 29 02 31 27 03 16 19
 -18997302.20149 -14803086.46248         0.00041  20207295.20548  20207294.13449
  11017484.73648   8585052.88946         0.00041  23112330.03646  23112328.41848
  -6184823.27848  -4819338.38845         0.00041  24311002.67045  24311001.71348
  -8516435.33648  -6636179.18546         0.00041  22425257.22746  22425256.61948
 -14390052.57748 -11213019.73046         0.00041  22736385.96446  22736383.41948
 -11065165.00548  -8622199.90545         0.00041  23269790.78645  23269789.79148
 -15880444.61649 -12374369.28446         0.00041  22277154.30146  22277151.26849
  -2130594.81549  -1660201.54947         0.00041  20769006.16947  20769004.09849
 96 10 10 03 14 00.0000000  0  8 18 29 02 31 27 03 16 19
 -18972735.18249 -14783943.32848         0.00041  20211970.24848  20211969.18849
  11105662.54648   8653762.86546         0.00041  23129108.99246  23129108.02848
  -6275522.57048  -4890013.11045         0.00041  24293742.36845  24293741.09648
  -8578282.54348  -6684371.79346         0.00041  22413488.49046  22413487.44548
 -14455402.42648 -11263941.65346         0.00041  22723950.33746  22723947.30948
 -11059376.20748  -8617689.13346         0.00041  23270892.76746  23270891.82048
 -15895014.24648 -12385722.23246         0.00041  22274381.28346  22274378.10248
  -2151465.34949  -1676464.29947         0.00041  20765034.53547  20765032.59749
 96 10 10 03 14 30.0000000  0  8 18 29 02 31 27 03 16 19
 -18947666.38549 -14764409.20248         0.00041  20216740.71148  20216739.44549
  11194125.78048   8722695.26146         0.00041  23145943.54546  23145942.43148
  -6366046.87948  -4960551.49544         0.00041  24276517.04044  24276514.27548
  -8639710.37548  -6732237.62246         0.00041  22401798.87946  22401797.85148
 -14520638.99948 -11314775.31546         0.00041  22711536.08246  22711532.93348
 -11053027.12048  -8612741.77846         0.00041  23272101.43946  23272100.03348
 -15909016.86449 -12396633.35346         0.00041  22271716.86446  22271714.48849
  -2172152.06449  -1692583.80647         0.00041  20761097.95147  20761096.17849
 96 10 10 03 15 00.0000000  0  8 18 29 02 31 27 03 16 19
 -18922127.31549 -14744508.62948         0.00041  20221600.59948  20221599.39449
  11282850.02748   8791831.03646         0.00041  23162827.05946  23162826.21048
  -6456424.39248  -5030975.46845         0.00041  24259319.77145  24259315.01248
  -8700729.47248  -6779784.94046         0.00041  22390188.13346  22390186.56948
 -14585775.10148 -11365530.68746         0.00041  22699141.59546  22699138.77948
 -11046157.88248  -8607389.10745         0.00041  23273407.42445  23273406.40148
 -15922459.19149 -12407107.90146         0.00041  22269159.14846  22269156.95049
  -2192661.56849  -1708565.22947         0.00041  20757195.15247  20757193.25749
 96 10 10 03 15 30.0000000  0  8 18 29 02 31 27 03 16 19
 -18896105.83349 -14724232.15248         0.00041  20226552.46548  20226551.38749
  11371857.70148   8861187.65246         0.00041  23179764.91046  23179763.28448
  -6546638.18848  -5101271.86344         0.00041  24242151.01544  24242147.21548
  -8761301.28549  -6826983.72746         0.00041  22378661.14746  22378660.43949
 -14650791.20048 -11416192.54546         0.00041  22686769.18546  22686767.40248
 -11038752.73848  -8601618.85946         0.00041  23274817.27146  23274816.15248
 -15935293.01548 -12417108.27646         0.00041  22266717.23446  22266713.82448
  -2212963.26149  -1724384.72447         0.00041  20753331.85147  20753329.65649
 96 10 10 03 16 00.0000000  0  8 18 29 02 31 27 03 16 19
 -18869696.48349 -14703653.43848         0.00041  20231577.86548  20231576.67849
  11461040.99548   8930681.11346         0.00041  23196735.87946  23196734.53448
  -6636767.46248  -5171502.40845         0.00041  24225000.11145  24224996.97948
  -8821513.28449  -6873902.14746         0.00041  22367203.23446  22367202.20649
 -14715806.81448 -11466854.02546         0.00041  22674397.01846  22674395.22648
 -11030897.55648  -8595497.91346         0.00041  23276313.21746  23276310.68348
 -15947616.16848 -12426710.72146         0.00041  22264371.37346  22264368.19248
  -2233154.25249  -1740117.96347         0.00041  20749489.75147  20749487.69049
 96 10 10 03 16 30.0000000  0  8 18 29 02 31 27 03 16 19
 -18842853.20149 -14682736.59548         0.00041  20236685.94648  20236684.75849
  11550434.47448   9000338.36845         0.00041  23213746.27845  23213745.66848
  -6726742.91348  -5241613.07845         0.00041  24207880.32345  24207876.44248
  -8881316.21448  -6920501.81246         0.00041  22355823.06646  22355821.89848
 -14780770.28648 -11517474.88046         0.00041  22662035.30846  22662033.01748
 -11022539.10848  -8588984.81045         0.00041  23277901.94745  23277901.52048
 -15959382.90149 -12435879.60546         0.00041  22262132.82646  22262130.27949
  -2253172.13649  -1755716.31047         0.00041  20745680.47647  20745678.72049
 96 10 10 03 17 00.0000000  0  8 18 29 02 31 27 03 16 19
 -18815493.80949 -14661417.58948         0.00041  20241892.34348  20241891.20549
  11640110.37848   9070215.69345         0.00041  23230811.56045  23230810.43048
  -6816477.83948  -5311536.34544         0.00041  24190802.10644  24190800.63648
  -8940641.87448  -6966729.57546         0.00041  22344534.35346  22344532.63648
 -14845614.18548 -11568002.56146         0.00041  22649695.71446  22649693.41148
 -11013598.16148  -8582017.84346         0.00041  23279603.72346  23279602.94548
 -15970526.69949 -12444563.08646         0.00041  22260012.63746  22260009.74949
  -2272934.35249  -1771115.42847         0.00041  20741919.69547  20741918.17249
 96 10 10 03 17 30.0000000  0  8 18 29 02 31 27 03 16 19
 -18787698.02049 -14639758.53448         0.00041  20247181.79548  20247180.51749
  11729981.07048   9140244.79445         0.00041  23247913.10145  23247912.30348
  -6906069.42148  -5381347.92845         0.00041  24173753.00145  24173750.94048
  -8999594.25648  -7012666.46946         0.00041  22333315.78246  22333314.50548
 -14910450.03548 -11618523.97746         0.00041  22637357.78146  22637355.64448
 -11004173.77648  -8574674.14146         0.00041  23281397.87946  23281395.91148
 -15981155.87148 -12452845.55146         0.00041  22257989.15546  22257985.95748
  -2292544.83449  -1786396.31147         0.00041  20738187.75547  20738185.88849
 96 10 10 03 18 00.0000000  0  8 18 29 02 31 27 03 16 19
 -18759451.78749 -14617748.48448         0.00041  20252556.67148  20252555.56049
  11820055.04048   9210432.30645         0.00041  23265053.55745  23265052.59848
  -6995508.65048  -5451040.76944         0.00041  24156733.86144  24156730.93048
  -9058183.30349  -7058320.24046         0.00041  22322166.48646  22322165.33949
 -14975273.11748 -11669035.43546         0.00041  22625022.19646  22625019.98848
 -10994261.51248  -8566950.29046         0.00041  23283282.84246  23283282.90748
 -15991287.14449 -12460740.04946         0.00041  22256061.30846  22256058.28249
  -2312002.95749  -1801558.47647         0.00041  20734485.23047  20734482.97249
 96 10 10 03 18 30.0000000  0  8 18 29 02 31 27 03 16 19
 -18730690.36549 -14595336.98748         0.00041  20258029.87848  20258028.69349
  11910410.26348   9280838.97445         0.00041  23282247.80745  23282246.24748
  -7084757.17148  -5520585.01245         0.00041  24139750.99845  24139747.33048
  -9116331.73249  -7103630.68346         0.00041  22311100.91046  22311099.90349
 -15040013.76648 -11719482.66346         0.00041  22612702.36046  22612700.31648
 -10983798.69648  -8558797.45246         0.00041  23285274.57046  23285273.02548
 -16000852.10249 -12468193.26346         0.00041  22254241.22346  22254239.13549
  -2331236.89949  -1816545.95947         0.00041  20730825.19947  20730823.15949
 96 10 10 03 19 00.0000000  0  8 18 29 02 31 27 03 16 19
 -18701380.79549 -14572498.36548         0.00041  20263607.39148  20263606.19249
  12001088.29148   9351497.17145         0.00041  23299503.95145  23299501.66748
  -7173795.49448  -5589965.45545         0.00041  24122805.03545  24122803.60948
  -9174001.95348  -7148568.49646         0.00041  22300126.36746  22300125.53048
 -15104642.81648 -11769842.92946         0.00041  22600404.01046  22600401.85148
 -10972755.48648  -8550192.31946         0.00041  23287376.60846  23287374.48348
 -16009814.74149 -12475177.13746         0.00041  22252536.07146  22252533.17049
  -2350231.13649  -1831346.65647         0.00041  20727210.69347  20727208.82049
 96 10 10 03 19 30.0000000  0  8 18 29 02 31 27 03 16 19
 -18671546.46049 -14549250.83248         0.00041  20269284.28048  20269283.47249
  12092068.87348   9422391.11745         0.00041  23316816.86345  23316815.17948
  -7262636.40148  -5659192.08545         0.00041  24105901.96845  24105898.01448
  -9231203.37548  -7193141.00246         0.00041  22289241.36446  22289240.88348
 -15169165.96548 -11820120.67146         0.00041  22588125.51446  22588123.67248
 -10961135.30548  -8541137.62246         0.00041  23289585.76146  23289585.72648
 -16018183.03049 -12481697.87746         0.00041  22250943.36346  22250940.22449
  -2369011.15549  -1845980.42847         0.00041  20723636.78547  20723634.89649
 96 10 10 03 20 00.0000000  0  8 18 29 02 31 27 03 16 19
 -18641232.36549 -14525629.45948         0.00041  20275053.06948  20275051.91249
  12183301.63648   9493481.57545         0.00041  23334177.46145  23334176.88048
  -7351311.30148  -5728289.35745         0.00041  24089027.00245  24089024.21448
  -9287960.88949  -7237367.61546         0.00041  22278441.09546  22278439.94949
 -15233612.91548 -11870339.04646         0.00041  22575861.91246  22575859.15048
 -10948970.47148  -8531658.52446         0.00041  23291901.65246  23291900.95748
 -16025994.68949 -12487784.89046         0.00041  22249457.04946  22249453.90249
  -2387617.34549  -1860478.75047         0.00041  20720096.06647  20720094.20649
 96 10 10 03 20 30.0000000  0  8 18 29 02 31 27 03 16 19
 -18610413.36249 -14501614.66148         0.00041  20280917.94348  20280916.57949
  12274795.23248   9564775.28545         0.00041  23351588.11445  23351587.10348
  -7439790.65748  -5797234.25745         0.00041  24072189.93345  24072187.59748
  -9344237.78849  -7281219.73146         0.00041  22267732.07146  22267731.08649
 -15297952.34148 -11920473.62946         0.00041  22563617.98246  22563615.56248
 -10936241.53648  -8521739.86946         0.00041  23294324.76246  23294323.72448
 -16033210.76849 -12493407.80846         0.00041  22248083.88946  22248080.97049
  -2406022.37049  -1874820.31847         0.00041  20716593.73547  20716591.99849
 96 10 10 03 21 00.0000000  0  8 18 29 02 31 27 03 16 19
 -18579112.07749 -14477224.05348         0.00041  20286874.31748  20286873.23749
  12366514.34748   9636244.71544         0.00041  23369042.42744  23369040.49548
  -7528071.64148  -5866024.57945         0.00041  24055390.28545  24055387.90248
  -9400066.65549  -7324722.73546         0.00041  22257107.66646  22257107.00949
 -15362186.07448 -11970525.86346         0.00041  22551394.86646  22551392.60948
 -10922976.74948  -8511403.65246         0.00041  23296848.19346  23296847.39948
 -16039845.74849 -12498577.92646         0.00041  22246821.09246  22246818.56549
  -2424255.36349  -1889027.83547         0.00041  20713123.91647  20713122.30049
 96 10 10 03 21 30.0000000  0  8 18 29 02 31 27 03 16 19
 -18547327.58249 -14452456.91248         0.00041  20292922.59248  20292921.62249
  12458442.24948   9707876.82144         0.00041  23386534.89844  23386534.63548
  -7616154.06948  -5934660.19945         0.00041  24038628.02545  24038626.09748
  -9455442.84549  -7367872.98446         0.00041  22246570.87646  22246569.34249
 -15426316.68648 -12020497.73746         0.00041  22539191.45946  22539189.24548
 -10909176.42548  -8500650.14246         0.00041  23299475.37346  23299473.13148
 -16045898.68649 -12503294.50446         0.00041  22245669.19546  22245666.23649
  -2442289.95549  -1903080.75647         0.00041  20709692.01347  20709690.21249
 96 10 10 03 22 00.0000000  0  8 18 29 02 31 27 03 16 19
 -18515088.86249 -14427335.83548         0.00041  20299057.80548  20299056.44149
  12550545.66848   9779645.73444         0.00041  23404061.21444  23404060.87848
  -7704072.21848  -6003167.80145         0.00041  24021898.61345  24021896.08448
  -9510398.83349  -7410695.79646         0.00041  22236112.89146  22236111.38749
 -15490375.88148 -12070413.96446         0.00041  22527001.16346  22526998.98748
 -10894886.08348  -8489514.79846         0.00041  23302194.29646  23302193.23748
 -16051393.95149 -12507576.52946         0.00041  22244623.79746  22244620.87349
  -2460144.71349  -1916993.54747         0.00041  20706294.84047  20706292.64949
 96 10 10 03 22 30.0000000  0  8 18 29 02 31 27 03 16 19
 -18482417.16649 -14401877.38048         0.00041  20305274.67648  20305273.47749
  12642806.90448   9851537.59044         0.00041  23421618.19444  23421617.30948
  -7791855.12848  -6071570.02845         0.00041  24005194.24545  24005191.08048
  -9564961.96949  -7453212.49246         0.00041  22225729.46646  22225728.41349
 -15554375.14148 -12120283.49446         0.00041  22514822.41846  22514820.49048
 -10880118.74748  -8478007.77346         0.00041  23305004.87946  23305003.05748
 -16056344.05049 -12511433.75246         0.00041  22243682.08346  22243679.05049
  -2477833.03549  -1930776.64947         0.00041  20702928.86347  20702926.89549
 96 10 10 03 23 00.0000000  0  8 18 29 02 31 27 03 16 19
 -18449268.50349 -14376047.25648         0.00041  20311582.46148  20311581.57549
  12735273.77448   9923589.70344         0.00041  23439211.51644  23439213.27648
  -7879461.14348  -6139834.41345         0.00041  23988523.34145  23988519.88048
  -9619081.73349  -7495383.71546         0.00041  22215430.61146  22215430.12549
 -15618284.06248 -12170082.62846         0.00041  22502660.62846  22502659.10548
 -10864821.08248  -8466087.51546         0.00041  23307914.72146  23307914.36948
 -16060713.29149 -12514838.36046         0.00041  22242850.32246  22242847.31449
  -2495321.41249  -1944403.94647         0.00041  20699600.67847  20699599.03949
 96 10 10 03 23 30.0000000  0  8 18 29 02 31 27 03 16 19
 -18415571.91449 -14349790.17648         0.00041  20317994.93448  20317993.68549
  12828013.15848   9995854.11344         0.00041  23456862.42144  23456860.83148
  -7966840.07648  -6207921.86445         0.00041  23971895.60545  23971892.56648
  -9672688.63949  -7537155.31346         0.00041  22205229.63846  22205229.00849
 -15682059.25048 -12219777.54746         0.00041  22490524.79146  22490522.81948
 -10848922.58948  -8453699.07046         0.00041  23310940.61446  23310938.78548
 -16064451.12749 -12517750.97146         0.00041  22242138.61846  22242135.89549
  -2512559.40149  -1957836.13847         0.00041  20696320.18347  20696318.56549
 96 10 10 03 24 00.0000000  0  8 18 29 02 31 27 03 16 19
 -18381355.58449 -14323128.10948         0.00041  20324506.04248  20324504.78849
  12921021.58848  10068328.22444         0.00041  23474559.23644  23474559.43048
  -8054022.18248  -6275855.93045         0.00041  23955306.29045  23955302.09748
  -9725808.31949  -7578547.25646         0.00041  22195121.39946  22195120.37849
 -15745709.24548 -12269374.91746         0.00041  22478412.54546  22478410.66948
 -10832434.25948  -8440851.01145         0.00041  23314077.80345  23314076.82848
 -16067586.89449 -12520194.42346         0.00041  22241541.90246  22241539.47849
  -2529592.51849  -1971108.68847         0.00041  20693079.02447  20693077.40849
 96 10 10 03 24 30.0000000  0  8 18 29 02 31 27 03 16 19
 -18346650.18149 -14296084.94248         0.00041  20331110.26948  20331109.17649
  13014277.48648  10140995.14444         0.00041  23492306.74844  23492305.88048
  -8141033.89648  -6343657.22045         0.00041  23938748.47545  23938743.76348
  -9778454.03849  -7619569.87146         0.00041  22185103.62346  22185102.34249
 -15809269.08248 -12318902.03746         0.00041  22466317.80846  22466315.99048
 -10815373.82948  -8427557.15446         0.00041  23317324.82646  23317323.71448
 -16070173.00949 -12522209.58346         0.00041  22241050.20346  22241047.13449
  -2546461.33749  -1984253.21447         0.00041  20689869.19347  20689867.50849
 96 10 10 03 25 00.0000000  0  8 18 29 02 31 27 03 16 19
 -18311442.12349 -14268650.09148         0.00041  20337810.28548  20337809.14549
  13107799.31348  10213869.28044         0.00041  23510103.49344  23510102.41748
  -8227846.55648  -6411303.40745         0.00041  23922228.47745  23922223.46048
  -9830601.12249  -7660203.94046         0.00041  22175180.03646  22175178.91649
 -15872730.26649 -12368352.28746         0.00041  22454242.14446  22454240.01149
 -10797738.69348  -8413815.48346         0.00041  23320680.56546  23320679.36748
 -16072209.56149 -12523796.51546         0.00041  22240662.69446  22240659.68849
  -2563153.34849  -1997259.96947         0.00041  20686692.85347  20686690.83549
 96 10 10 03 25 30.0000000  0  8 18 29 02 31 27 03 16 19
 -18275765.65149 -14240850.24948         0.00041  20344599.46548  20344598.09049
  13201562.46548  10286931.47344         0.00041  23527945.89844  23527945.44048
  -8314489.32248  -6478817.19645         0.00041  23905742.02445  23905736.34848
  -9882283.66149  -7700476.02246         0.00041  22165345.05246  22165344.00649
 -15936103.79949 -12417734.23446         0.00041  22442182.45846  22442180.38049
 -10779547.09148  -8399640.19446         0.00041  23324142.41146  23324141.09548
 -16073715.95349 -12524970.32646         0.00041  22240375.87946  22240373.02149
  -2579673.21249  -2010132.58447         0.00041  20683549.17347  20683547.03249
 96 10 10 03 26 00.0000000  0  8 18 29 02 31 27 03 16 19
 -18239639.95649 -14212700.36848         0.00041  20351473.84548  20351472.54249
  13295546.84148  10360166.04545         0.00041  23545830.89345  23545829.67448
  -8400960.56248  -6546197.35645         0.00041  23889285.28445  23889281.01748
  -9933521.47249  -7740401.57246         0.00041  22155594.49146  22155593.79249
 -15999393.12248 -12467050.56346         0.00041  22430138.14546  22430135.97648
 -10760820.18548  -8385047.79346         0.00041  23327705.41646  23327704.10548
 -16074708.17949 -12525743.49246         0.00041  22240186.88146  22240183.88849
  -2596013.16449  -2022865.00547         0.00041  20680439.45047  20680437.90249
 96 10 10 03 26 30.0000000  0  8 18 29 02 31 27 03 16 19
 -18203029.76249 -14184172.95048         0.00041  20358440.34348  20358439.18549
  13389760.61848  10433579.36044         0.00041  23563759.11944  23563757.70448
  -8487208.97948  -6613403.87745         0.00041  23872872.73945  23872868.37248
  -9984285.69149  -7779958.09146         0.00041  22145934.44946  22145933.50049
 -16062580.28548 -12516287.29146         0.00041  22418113.28046  22418110.46648
 -10741551.55048  -8370033.27446         0.00041  23331372.77146  23331371.59048
 -16075156.70649 -12526093.00246         0.00041  22240101.83546  22240098.87749
  -2612140.32849  -2035431.61347         0.00041  20677370.71847  20677369.05949
 96 10 10 03 27 00.0000000  0  8 18 29 02 31 27 03 16 19
 -18165945.40049 -14155276.04248         0.00041  20365497.02448  20365496.04849
  13484169.25348  10507144.52644         0.00041  23581724.82144  23581723.51448
  -8573265.40048  -6680460.78545         0.00041  23856496.86245  23856492.45148
 -10034607.75549  -7819170.06846         0.00041  22136358.55646  22136357.73149
 -16125683.01248 -12565458.23146         0.00041  22406105.25946  22406102.71948
 -10721768.06948  -8354617.56846         0.00041  23335137.12246  23335135.96548
 -16075050.12049 -12526009.95146         0.00041  22240122.21446  22240119.50849
  -2628072.11749  -2047845.99147         0.00041  20674338.81547  20674337.03549
 96 10 10 03 27 30.0000000  0  8 18 29 02 31 27 03 16 19
 -18128347.33549 -14125978.85148         0.00041  20372651.97048  20372650.77449
  13578796.74348  10580880.22944         0.00041  23599729.05844  23599730.70048
  -8659113.05148  -6747355.01245         0.00041  23840159.79545  23840156.48148
 -10084461.49549  -7858017.10746         0.00041  22126872.08946  22126870.88049
 -16188678.48648 -12614545.58846         0.00041  22394117.99646  22394115.81548
 -10701436.58448  -8338774.83646         0.00041  23339006.23346  23339005.51548
 -16074343.09849 -12525459.02646         0.00041  22240256.47046  22240253.42649
  -2643779.92049  -2060085.83447         0.00041  20671350.04947  20671348.24649
 96 10 10 03 28 00.0000000  0  8 18 29 02 31 27 03 16 19
 -18090209.29449 -14096260.90748         0.00041  20379909.32048  20379908.28749
  13673671.60148  10654808.68344         0.00041  23617784.35844  23617784.25148
  -8744736.42648  -6814074.49445         0.00041  23823868.48745  23823863.11648
 -10133806.78449  -7896467.96346         0.00041  22117481.56546  22117480.81249
 -16251555.18048 -12663540.38946         0.00041  22382152.92346  22382151.03548
 -10680553.03048  -8322501.93346         0.00041  23342980.81446  23342978.81548
 -16073016.62849 -12524425.42046         0.00041  22240508.81046  22240505.64549
  -2659256.13249  -2072145.21647         0.00041  20668405.12047  20668403.34249
 96 10 10 03 28 30.0000000  0  8 18 29 02 31 27 03 16 19
 -18051558.56849 -14066143.46648         0.00041  20387264.39748  20387263.23249
  13768785.44648  10728923.35944         0.00041  23635886.42744  23635883.48848
  -8830164.63548  -6880641.88645         0.00041  23807610.92145  23807606.97448
 -10182638.64949  -7934518.75646         0.00041  22108188.73346  22108188.18149
 -16314343.45848 -12712466.29746         0.00041  22370204.37646  22370202.70248
 -10659131.36748  -8305809.72945         0.00041  23347056.00145  23347055.31948
 -16071080.79249 -12522916.98046         0.00041  22240877.46646  22240875.01249
  -2674522.78749  -2084041.30947         0.00041  20665499.70147  20665497.83449
 96 10 10 03 29 00.0000000  0  8 18 29 02 31 27 03 16 19
 -18012431.93949 -14035655.18847         0.00041  20394709.97047  20394708.70549
  13864111.06948  10803203.07244         0.00041  23654025.92544  23654022.95048
  -8915441.95748  -6947091.71245         0.00041  23791383.40045  23791379.29548
 -10230982.55449  -7972189.31846         0.00041  22098989.85846  22098988.41849
 -16377087.83448 -12761357.99646         0.00041  22358264.53546  22358262.64248
 -10637193.89848  -8288715.58946         0.00041  23351231.62746  23351229.79348
 -16068561.12249 -12520953.61346         0.00041  22241356.83946  22241354.56549
  -2689602.59149  -2095791.80347         0.00041  20662629.95647  20662628.34149
 96 10 10 03 29 30.0000000  0  8 18 29 02 31 27 03 16 19
 -17972818.68749 -14004787.72148         0.00041  20402248.17748  20402247.00849
  13959679.58548  10877672.04444         0.00041  23672207.92544  23672209.08348
  -9000525.13548  -7013390.24945         0.00041  23775191.73645  23775188.28648
 -10278813.24149  -8009459.95646         0.00041  22089888.03646  22089886.79349
 -16439773.18748 -12810203.70146         0.00041  22346336.13046  22346333.91748
 -10614711.97248  -8271197.18546         0.00041  23355510.02146  23355508.13748
 -16065471.14348 -12518545.84046         0.00041  22241944.20046  22241941.00548
  -2704472.22149  -2107378.52347         0.00041  20659800.45447  20659799.05649
 96 10 10 03 30 00.0000000  0  8 18 29 02 31 27 03 16 19
 -17932734.26749 -13973553.11248         0.00041  20409876.11848  20409874.76749
  14055474.56548  10952317.50344         0.00041  23690440.55944  23690438.77048
  -9085397.45948  -7079524.48845         0.00041  23759040.80645  23759037.73848
 -10326141.68449  -8046339.23646         0.00041  22080881.39246  22080880.45949
 -16502401.62048 -12859005.05846         0.00041  22334418.31846  22334416.08748
 -10591692.13948  -8253259.64845         0.00041  23359890.30145  23359888.72048
 -16061833.17649 -12515711.06446         0.00041  22242637.40846  22242634.29149
  -2719145.78949  -2118812.46547         0.00041  20657008.18747  20657006.44449
 96 10 10 03 30 30.0000000  0  8 18 29 02 31 27 03 16 19
 -17892161.80249 -13941938.21447         0.00041  20417596.79247  20417595.45649
  14151491.07548  11027135.50644         0.00041  23708713.18644  23708710.42248
  -9170029.37648  -7145471.41145         0.00041  23742935.29245  23742932.13748
 -10372970.29249  -8082829.03946         0.00041  22071970.66746  22071969.40549
 -16564956.91949 -12907749.42446         0.00041  22322514.89046  22322512.41749
 -10568119.50748  -8234891.34746         0.00041  23364375.14846  23364374.11048
 -16057641.45749 -12512444.79746         0.00041  22243435.68746  22243432.81449
  -2733612.28449  -2130085.05547         0.00041  20654255.22747  20654253.23249
 96 10 10 03 31 00.0000000  0  8 18 29 02 31 27 03 16 19
 -17851127.88249 -13909963.73547         0.00041  20425405.21747  20425404.12749
  14247685.46448  11102092.14044         0.00041  23727014.40644  23727015.66448
  -9254447.54048  -7211251.77145         0.00041  23726870.92745  23726867.15948
 -10419352.59049  -8118971.08046         0.00041  22063143.63746  22063143.06449
 -16627463.17349 -12956455.57546         0.00041  22310620.71346  22310617.98349
 -10544023.09848  -8216114.91646         0.00041  23368961.01646  23368959.74748
 -16052923.30649 -12508768.31846         0.00041  22244332.52246  22244329.44349
  -2747917.27349  -2141231.79447         0.00041  20651533.21247  20651531.41449
 96 10 10 03 31 30.0000000  0  8 18 29 02 31 27 03 16 19
 -17809582.06249 -13877590.37547         0.00041  20433311.18347  20433310.06349
  14344106.88548  11177225.70944         0.00041  23745362.67944  23745363.68448
  -9338592.91648  -7276819.55746         0.00041  23710858.86846  23710855.15048
 -10465232.61449  -8154721.74646         0.00041  22054412.75546  22054412.31549
 -16689844.99149 -13005064.76946         0.00041  22298749.35246  22298746.98049
 -10519348.39048  -8196887.87146         0.00041  23373656.01646  23373654.60248
 -16047631.35349 -12504644.72946         0.00041  22245339.21646  22245336.45549
  -2762011.45349  -2152214.26147         0.00041  20648851.38847  20648849.60249
 96 10 10 03 32 00.0000000  0  8 18 29 02 31 27 03 16 19
 -17767531.91149 -13844824.03347         0.00041  20441313.00847  20441311.76249
  14440746.42048  11252529.22444         0.00041  23763753.42444  23763753.58248
  -9422480.21648  -7342186.26345         0.00041  23694895.35145  23694891.76848
 -10510600.26349  -8190073.14046         0.00041  22045780.21346  22045779.06549
 -16752093.80049 -13053570.32146         0.00041  22286903.90546  22286901.58549
 -10494112.85448  -8177223.82746         0.00041  23378457.93746  23378457.70248
 -16041740.97549 -12500054.82946         0.00041  22246461.09046  22246458.05049
  -2775891.19449  -2163029.63747         0.00041  20646210.16847  20646207.97549
 96 10 10 03 32 30.0000000  0  8 18 29 02 31 27 03 16 19
 -17725025.43049 -13811702.10547         0.00041  20449401.73347  20449400.45949
  14537578.99347  11327983.63144         0.00041  23782178.69144  23782178.69147
  -9506173.23148  -7407401.56946         0.00041  23678969.68446  23678965.27948
 -10555479.68149  -8225044.07746         0.00041  22037240.31646  22037238.71649
 -16814246.87449 -13102001.26846         0.00041  22275076.50646  22275074.89049
 -10468357.34848  -8157154.58446         0.00041  23383360.22746  23383358.03048
 -16035275.95349 -12495017.16046         0.00041  22247691.15246  22247687.96449
  -2789594.01349  -2173707.15847         0.00041  20643602.69147  20643600.42449
 96 10 10 03 33 00.0000000  0  8 18 29 02 31 27 03 16 19
 -17682011.11849 -13778184.46147         0.00041  20457587.17047  20457585.89149
  14634656.51647  11403628.45444         0.00041  23800651.80944  23800651.80947
  -9589623.55648  -7472427.76145         0.00041  23663089.71245  23663084.92748
 -10599804.41949  -8259582.81846         0.00041  22028805.31446  22028804.41149
 -16876253.44949 -13150318.06246         0.00041  22263276.75646  22263275.79249
 -10442028.44248  -8136638.55245         0.00041  23388370.02845  23388368.21148
 -16028182.56949 -12489489.85346         0.00041  22249040.81546  22249037.82249
  -2803062.00649  -2184201.69347         0.00041  20641039.73247  20641037.91149
 96 10 10 03 33 30.0000000  0  8 18 29 02 31 27 03 16 19
 -17638537.50049 -13744308.92247         0.00041  20465859.88547  20465858.70649
  14731917.75848  11479415.99744         0.00041  23819161.42144  23819161.42148
  -9672902.01848  -7537320.03246         0.00041  23647242.67946  23647237.87448
 -10643613.02249  -8293719.39146         0.00041  22020468.37246  22020467.36449
 -16938174.12849 -13198567.92246         0.00041  22251493.75746  22251492.50049
 -10415201.31648  -8115734.30045         0.00041  23393474.90845  23393473.35148
 -16020535.74749 -12483531.29746         0.00041  22250495.33246  22250492.86749
  -2816352.48249  -2194557.89947         0.00041  20638510.07547  20638508.49549
 96 10 10 03 34 00.0000000  0  8 18 29 02 31 27 03 16 19
 -17594613.38849 -13710082.35247         0.00041  20474218.28647  20474217.16649
  14829345.67148  11555333.85044         0.00041  23837702.50444  23837702.50448
  -9756038.82148  -7602101.93546         0.00041  23631421.02246  23631417.96048
 -10686921.21849  -8327466.02946         0.00041  22012226.97546  22012226.15749
 -17000036.96949 -13246772.71846         0.00041  22239721.35046  22239719.38949
 -10387894.48348  -8094456.22645         0.00041  23398670.90545  23398670.39048
 -16012357.05549 -12477158.29946         0.00041  22252052.24546  22252049.27949
  -2829501.84149  -2204804.14547         0.00041  20636007.88047  20636006.27849
